<?xml version="1.0" encoding="UTF-8" standalone="no" ?>
<gpx xmlns="http://www.topografix.com/GPX/1/1" xmlns:xsi="http://www.w3.org/2001/XMLSchema-instance" xsi:schemaLocation="http://www.topografix.com/GPX/1/1 http://www.topografix.com/GPX/1/1/gpx.xsd" version="1.1" creator="VisuGPX - https://www.visugpx.com">
  <metadata>
    <name>Le Bois-Plage-en-Ré</name>
  </metadata>
  <trk>
    <name><![CDATA[Le Bois-Plage-en-Ré_1]]></name>
    <trkseg>
      <trkpt lat="46.18284" lon="-1.36881">
        <ele>9.6</ele>
        <time>2025-06-29T08:19:39Z</time>
      </trkpt>
      <trkpt lat="46.18284" lon="-1.36881">
        <ele>9.6</ele>
        <time>2025-06-29T08:19:40Z</time>
      </trkpt>
      <trkpt lat="46.18281" lon="-1.36894">
        <ele>9.2</ele>
        <time>2025-06-29T08:19:49Z</time>
      </trkpt>
      <trkpt lat="46.18282" lon="-1.36905">
        <ele>9</ele>
        <time>2025-06-29T08:19:53Z</time>
      </trkpt>
      <trkpt lat="46.18282" lon="-1.36908">
        <ele>9</ele>
        <time>2025-06-29T08:19:55Z</time>
      </trkpt>
      <trkpt lat="46.18277" lon="-1.36916">
        <ele>9.2</ele>
        <time>2025-06-29T08:20:02Z</time>
      </trkpt>
      <trkpt lat="46.18276" lon="-1.36917">
        <ele>9.4</ele>
        <time>2025-06-29T08:20:03Z</time>
      </trkpt>
      <trkpt lat="46.18274" lon="-1.3692">
        <ele>9.4</ele>
        <time>2025-06-29T08:20:06Z</time>
      </trkpt>
      <trkpt lat="46.18275" lon="-1.36919">
        <ele>9.4</ele>
        <time>2025-06-29T08:20:08Z</time>
      </trkpt>
      <trkpt lat="46.18276" lon="-1.36919">
        <ele>9.4</ele>
        <time>2025-06-29T08:20:09Z</time>
      </trkpt>
      <trkpt lat="46.18272" lon="-1.36921">
        <ele>9.4</ele>
        <time>2025-06-29T08:20:13Z</time>
      </trkpt>
      <trkpt lat="46.18271" lon="-1.36925">
        <ele>9.4</ele>
        <time>2025-06-29T08:20:15Z</time>
      </trkpt>
      <trkpt lat="46.18271" lon="-1.36927">
        <ele>9.4</ele>
        <time>2025-06-29T08:20:17Z</time>
      </trkpt>
      <trkpt lat="46.1827" lon="-1.36933">
        <ele>9.4</ele>
        <time>2025-06-29T08:20:20Z</time>
      </trkpt>
      <trkpt lat="46.18269" lon="-1.36937">
        <ele>9.6</ele>
        <time>2025-06-29T08:20:22Z</time>
      </trkpt>
      <trkpt lat="46.18267" lon="-1.36943">
        <ele>9.4</ele>
        <time>2025-06-29T08:20:25Z</time>
      </trkpt>
      <trkpt lat="46.18266" lon="-1.36952">
        <ele>9.4</ele>
        <time>2025-06-29T08:20:30Z</time>
      </trkpt>
      <trkpt lat="46.18262" lon="-1.36966">
        <ele>9.6</ele>
        <time>2025-06-29T08:20:38Z</time>
      </trkpt>
      <trkpt lat="46.18263" lon="-1.36974">
        <ele>9.6</ele>
        <time>2025-06-29T08:20:43Z</time>
      </trkpt>
      <trkpt lat="46.18262" lon="-1.36976">
        <ele>9.6</ele>
        <time>2025-06-29T08:20:45Z</time>
      </trkpt>
      <trkpt lat="46.18262" lon="-1.36979">
        <ele>9.6</ele>
        <time>2025-06-29T08:20:47Z</time>
      </trkpt>
      <trkpt lat="46.18258" lon="-1.36981">
        <ele>9.6</ele>
        <time>2025-06-29T08:20:52Z</time>
      </trkpt>
      <trkpt lat="46.18255" lon="-1.36983">
        <ele>9.6</ele>
        <time>2025-06-29T08:20:55Z</time>
      </trkpt>
      <trkpt lat="46.18252" lon="-1.36985">
        <ele>9.6</ele>
        <time>2025-06-29T08:20:57Z</time>
      </trkpt>
      <trkpt lat="46.18248" lon="-1.36985">
        <ele>9.8</ele>
        <time>2025-06-29T08:21:00Z</time>
      </trkpt>
      <trkpt lat="46.18237" lon="-1.36985">
        <ele>10</ele>
        <time>2025-06-29T08:21:08Z</time>
      </trkpt>
      <trkpt lat="46.18228" lon="-1.36985">
        <ele>9.8</ele>
        <time>2025-06-29T08:21:16Z</time>
      </trkpt>
      <trkpt lat="46.18225" lon="-1.36987">
        <ele>9.6</ele>
        <time>2025-06-29T08:21:19Z</time>
      </trkpt>
      <trkpt lat="46.18224" lon="-1.36992">
        <ele>9.8</ele>
        <time>2025-06-29T08:21:23Z</time>
      </trkpt>
      <trkpt lat="46.1822" lon="-1.37004">
        <ele>9.4</ele>
        <time>2025-06-29T08:21:31Z</time>
      </trkpt>
      <trkpt lat="46.18219" lon="-1.37005">
        <ele>9.4</ele>
        <time>2025-06-29T08:21:32Z</time>
      </trkpt>
      <trkpt lat="46.18214" lon="-1.37012">
        <ele>9.8</ele>
        <time>2025-06-29T08:21:37Z</time>
      </trkpt>
      <trkpt lat="46.18209" lon="-1.37011">
        <ele>9.4</ele>
        <time>2025-06-29T08:21:41Z</time>
      </trkpt>
      <trkpt lat="46.18205" lon="-1.37007">
        <ele>9</ele>
        <time>2025-06-29T08:21:45Z</time>
      </trkpt>
      <trkpt lat="46.18194" lon="-1.36993">
        <ele>9.6</ele>
        <time>2025-06-29T08:21:56Z</time>
      </trkpt>
      <trkpt lat="46.18185" lon="-1.36987">
        <ele>9.6</ele>
        <time>2025-06-29T08:22:03Z</time>
      </trkpt>
      <trkpt lat="46.18176" lon="-1.36982">
        <ele>9.6</ele>
        <time>2025-06-29T08:22:12Z</time>
      </trkpt>
      <trkpt lat="46.18164" lon="-1.36973">
        <ele>9.4</ele>
        <time>2025-06-29T08:22:23Z</time>
      </trkpt>
      <trkpt lat="46.18158" lon="-1.36966">
        <ele>9</ele>
        <time>2025-06-29T08:22:30Z</time>
      </trkpt>
      <trkpt lat="46.18157" lon="-1.36965">
        <ele>9</ele>
        <time>2025-06-29T08:22:31Z</time>
      </trkpt>
      <trkpt lat="46.18156" lon="-1.36963">
        <ele>9.2</ele>
        <time>2025-06-29T08:22:38Z</time>
      </trkpt>
      <trkpt lat="46.18157" lon="-1.36963">
        <ele>9</ele>
        <time>2025-06-29T08:22:43Z</time>
      </trkpt>
      <trkpt lat="46.18157" lon="-1.36964">
        <ele>8.6</ele>
        <time>2025-06-29T08:22:50Z</time>
      </trkpt>
      <trkpt lat="46.18154" lon="-1.36962">
        <ele>8.6</ele>
        <time>2025-06-29T08:22:52Z</time>
      </trkpt>
      <trkpt lat="46.18146" lon="-1.36957">
        <ele>8.4</ele>
        <time>2025-06-29T08:22:57Z</time>
      </trkpt>
      <trkpt lat="46.18144" lon="-1.36954">
        <ele>8.2</ele>
        <time>2025-06-29T08:22:59Z</time>
      </trkpt>
      <trkpt lat="46.18137" lon="-1.3695">
        <ele>8</ele>
        <time>2025-06-29T08:23:04Z</time>
      </trkpt>
      <trkpt lat="46.18131" lon="-1.36946">
        <ele>8</ele>
        <time>2025-06-29T08:23:09Z</time>
      </trkpt>
      <trkpt lat="46.18128" lon="-1.36943">
        <ele>8.2</ele>
        <time>2025-06-29T08:23:12Z</time>
      </trkpt>
      <trkpt lat="46.18127" lon="-1.36942">
        <ele>8.2</ele>
        <time>2025-06-29T08:23:13Z</time>
      </trkpt>
      <trkpt lat="46.1812" lon="-1.36937">
        <ele>8</ele>
        <time>2025-06-29T08:23:20Z</time>
      </trkpt>
      <trkpt lat="46.18117" lon="-1.36936">
        <ele>8</ele>
        <time>2025-06-29T08:23:22Z</time>
      </trkpt>
      <trkpt lat="46.18112" lon="-1.36936">
        <ele>8</ele>
        <time>2025-06-29T08:23:26Z</time>
      </trkpt>
      <trkpt lat="46.18108" lon="-1.36935">
        <ele>8.2</ele>
        <time>2025-06-29T08:23:31Z</time>
      </trkpt>
      <trkpt lat="46.18107" lon="-1.36934">
        <ele>8.2</ele>
        <time>2025-06-29T08:23:33Z</time>
      </trkpt>
      <trkpt lat="46.18104" lon="-1.36931">
        <ele>8.2</ele>
        <time>2025-06-29T08:23:36Z</time>
      </trkpt>
      <trkpt lat="46.18099" lon="-1.36927">
        <ele>8.2</ele>
        <time>2025-06-29T08:23:39Z</time>
      </trkpt>
      <trkpt lat="46.18096" lon="-1.36925">
        <ele>8.2</ele>
        <time>2025-06-29T08:23:41Z</time>
      </trkpt>
      <trkpt lat="46.18091" lon="-1.36919">
        <ele>8.6</ele>
        <time>2025-06-29T08:23:45Z</time>
      </trkpt>
      <trkpt lat="46.18089" lon="-1.36915">
        <ele>8.6</ele>
        <time>2025-06-29T08:23:47Z</time>
      </trkpt>
      <trkpt lat="46.18084" lon="-1.36911">
        <ele>8.4</ele>
        <time>2025-06-29T08:23:51Z</time>
      </trkpt>
      <trkpt lat="46.18083" lon="-1.3691">
        <ele>8.4</ele>
        <time>2025-06-29T08:23:52Z</time>
      </trkpt>
      <trkpt lat="46.18073" lon="-1.369">
        <ele>8.6</ele>
        <time>2025-06-29T08:24:01Z</time>
      </trkpt>
      <trkpt lat="46.18068" lon="-1.36896">
        <ele>8.6</ele>
        <time>2025-06-29T08:24:05Z</time>
      </trkpt>
      <trkpt lat="46.18066" lon="-1.36893">
        <ele>8.8</ele>
        <time>2025-06-29T08:24:07Z</time>
      </trkpt>
      <trkpt lat="46.18061" lon="-1.36886">
        <ele>9</ele>
        <time>2025-06-29T08:24:13Z</time>
      </trkpt>
      <trkpt lat="46.1806" lon="-1.36886">
        <ele>9</ele>
        <time>2025-06-29T08:24:14Z</time>
      </trkpt>
      <trkpt lat="46.18056" lon="-1.36882">
        <ele>9.2</ele>
        <time>2025-06-29T08:24:19Z</time>
      </trkpt>
      <trkpt lat="46.18048" lon="-1.36875">
        <ele>9.2</ele>
        <time>2025-06-29T08:24:26Z</time>
      </trkpt>
      <trkpt lat="46.18047" lon="-1.36873">
        <ele>9.2</ele>
        <time>2025-06-29T08:24:27Z</time>
      </trkpt>
      <trkpt lat="46.18042" lon="-1.36867">
        <ele>9.2</ele>
        <time>2025-06-29T08:24:34Z</time>
      </trkpt>
      <trkpt lat="46.18036" lon="-1.36866">
        <ele>9.4</ele>
        <time>2025-06-29T08:24:39Z</time>
      </trkpt>
      <trkpt lat="46.18034" lon="-1.36864">
        <ele>9.4</ele>
        <time>2025-06-29T08:24:41Z</time>
      </trkpt>
      <trkpt lat="46.18032" lon="-1.36863">
        <ele>9.4</ele>
        <time>2025-06-29T08:24:43Z</time>
      </trkpt>
      <trkpt lat="46.18032" lon="-1.36857">
        <ele>9.4</ele>
        <time>2025-06-29T08:24:48Z</time>
      </trkpt>
      <trkpt lat="46.18031" lon="-1.36856">
        <ele>9.4</ele>
        <time>2025-06-29T08:24:49Z</time>
      </trkpt>
      <trkpt lat="46.18027" lon="-1.36849">
        <ele>9.4</ele>
        <time>2025-06-29T08:24:55Z</time>
      </trkpt>
      <trkpt lat="46.18025" lon="-1.36845">
        <ele>9.4</ele>
        <time>2025-06-29T08:24:58Z</time>
      </trkpt>
      <trkpt lat="46.18023" lon="-1.36838">
        <ele>9.4</ele>
        <time>2025-06-29T08:25:02Z</time>
      </trkpt>
      <trkpt lat="46.18022" lon="-1.36833">
        <ele>9.6</ele>
        <time>2025-06-29T08:25:05Z</time>
      </trkpt>
      <trkpt lat="46.18019" lon="-1.36823">
        <ele>9.6</ele>
        <time>2025-06-29T08:25:10Z</time>
      </trkpt>
      <trkpt lat="46.18018" lon="-1.36818">
        <ele>9.8</ele>
        <time>2025-06-29T08:25:13Z</time>
      </trkpt>
      <trkpt lat="46.18016" lon="-1.36814">
        <ele>9.6</ele>
        <time>2025-06-29T08:25:16Z</time>
      </trkpt>
      <trkpt lat="46.18014" lon="-1.36812">
        <ele>9.6</ele>
        <time>2025-06-29T08:25:18Z</time>
      </trkpt>
      <trkpt lat="46.18008" lon="-1.36807">
        <ele>9.8</ele>
        <time>2025-06-29T08:25:22Z</time>
      </trkpt>
      <trkpt lat="46.18007" lon="-1.36805">
        <ele>9.8</ele>
        <time>2025-06-29T08:25:24Z</time>
      </trkpt>
      <trkpt lat="46.18004" lon="-1.36801">
        <ele>10</ele>
        <time>2025-06-29T08:25:28Z</time>
      </trkpt>
      <trkpt lat="46.17999" lon="-1.36795">
        <ele>10.2</ele>
        <time>2025-06-29T08:25:35Z</time>
      </trkpt>
      <trkpt lat="46.17995" lon="-1.36782">
        <ele>10.4</ele>
        <time>2025-06-29T08:25:42Z</time>
      </trkpt>
      <trkpt lat="46.17991" lon="-1.36773">
        <ele>10.4</ele>
        <time>2025-06-29T08:25:47Z</time>
      </trkpt>
      <trkpt lat="46.17991" lon="-1.36771">
        <ele>10.4</ele>
        <time>2025-06-29T08:25:48Z</time>
      </trkpt>
      <trkpt lat="46.17991" lon="-1.36767">
        <ele>10.6</ele>
        <time>2025-06-29T08:25:50Z</time>
      </trkpt>
      <trkpt lat="46.17991" lon="-1.36763">
        <ele>10.6</ele>
        <time>2025-06-29T08:25:52Z</time>
      </trkpt>
      <trkpt lat="46.1799" lon="-1.36756">
        <ele>10.6</ele>
        <time>2025-06-29T08:25:56Z</time>
      </trkpt>
      <trkpt lat="46.1799" lon="-1.36751">
        <ele>10.4</ele>
        <time>2025-06-29T08:25:58Z</time>
      </trkpt>
      <trkpt lat="46.17992" lon="-1.36741">
        <ele>10.4</ele>
        <time>2025-06-29T08:26:04Z</time>
      </trkpt>
      <trkpt lat="46.17993" lon="-1.36739">
        <ele>10.4</ele>
        <time>2025-06-29T08:26:05Z</time>
      </trkpt>
      <trkpt lat="46.17994" lon="-1.36734">
        <ele>10.4</ele>
        <time>2025-06-29T08:26:08Z</time>
      </trkpt>
      <trkpt lat="46.17994" lon="-1.36731">
        <ele>10.4</ele>
        <time>2025-06-29T08:26:10Z</time>
      </trkpt>
      <trkpt lat="46.17994" lon="-1.36729">
        <ele>10.2</ele>
        <time>2025-06-29T08:26:11Z</time>
      </trkpt>
      <trkpt lat="46.17994" lon="-1.36728">
        <ele>10.2</ele>
        <time>2025-06-29T08:26:12Z</time>
      </trkpt>
      <trkpt lat="46.1799" lon="-1.36721">
        <ele>10</ele>
        <time>2025-06-29T08:26:16Z</time>
      </trkpt>
      <trkpt lat="46.17989" lon="-1.36717">
        <ele>10</ele>
        <time>2025-06-29T08:26:18Z</time>
      </trkpt>
      <trkpt lat="46.17989" lon="-1.36705">
        <ele>10.2</ele>
        <time>2025-06-29T08:26:22Z</time>
      </trkpt>
      <trkpt lat="46.17988" lon="-1.36687">
        <ele>10.2</ele>
        <time>2025-06-29T08:26:31Z</time>
      </trkpt>
      <trkpt lat="46.17987" lon="-1.36685">
        <ele>10.2</ele>
        <time>2025-06-29T08:26:32Z</time>
      </trkpt>
      <trkpt lat="46.17986" lon="-1.36684">
        <ele>10.2</ele>
        <time>2025-06-29T08:26:33Z</time>
      </trkpt>
      <trkpt lat="46.17986" lon="-1.36683">
        <ele>10.2</ele>
        <time>2025-06-29T08:26:34Z</time>
      </trkpt>
      <trkpt lat="46.17985" lon="-1.36682">
        <ele>10.2</ele>
        <time>2025-06-29T08:26:35Z</time>
      </trkpt>
      <trkpt lat="46.17983" lon="-1.36674">
        <ele>10.4</ele>
        <time>2025-06-29T08:26:39Z</time>
      </trkpt>
      <trkpt lat="46.17982" lon="-1.36673">
        <ele>10.4</ele>
        <time>2025-06-29T08:26:40Z</time>
      </trkpt>
      <trkpt lat="46.17979" lon="-1.36668">
        <ele>10.4</ele>
        <time>2025-06-29T08:26:43Z</time>
      </trkpt>
      <trkpt lat="46.17976" lon="-1.36662">
        <ele>10.4</ele>
        <time>2025-06-29T08:26:46Z</time>
      </trkpt>
      <trkpt lat="46.17972" lon="-1.36658">
        <ele>10.4</ele>
        <time>2025-06-29T08:26:49Z</time>
      </trkpt>
      <trkpt lat="46.17968" lon="-1.36648">
        <ele>10.4</ele>
        <time>2025-06-29T08:26:54Z</time>
      </trkpt>
      <trkpt lat="46.17963" lon="-1.36636">
        <ele>10.6</ele>
        <time>2025-06-29T08:27:02Z</time>
      </trkpt>
      <trkpt lat="46.17964" lon="-1.36632">
        <ele>10.8</ele>
        <time>2025-06-29T08:27:05Z</time>
      </trkpt>
      <trkpt lat="46.17963" lon="-1.36626">
        <ele>11</ele>
        <time>2025-06-29T08:27:08Z</time>
      </trkpt>
      <trkpt lat="46.17961" lon="-1.36622">
        <ele>11</ele>
        <time>2025-06-29T08:27:10Z</time>
      </trkpt>
      <trkpt lat="46.17959" lon="-1.36615">
        <ele>10.6</ele>
        <time>2025-06-29T08:27:14Z</time>
      </trkpt>
      <trkpt lat="46.17953" lon="-1.36601">
        <ele>10.6</ele>
        <time>2025-06-29T08:27:22Z</time>
      </trkpt>
      <trkpt lat="46.17953" lon="-1.36599">
        <ele>10.6</ele>
        <time>2025-06-29T08:27:23Z</time>
      </trkpt>
      <trkpt lat="46.17953" lon="-1.36596">
        <ele>10.8</ele>
        <time>2025-06-29T08:27:25Z</time>
      </trkpt>
      <trkpt lat="46.17951" lon="-1.36591">
        <ele>10.8</ele>
        <time>2025-06-29T08:27:29Z</time>
      </trkpt>
      <trkpt lat="46.17952" lon="-1.36584">
        <ele>11</ele>
        <time>2025-06-29T08:27:33Z</time>
      </trkpt>
      <trkpt lat="46.1795" lon="-1.3658">
        <ele>11</ele>
        <time>2025-06-29T08:27:35Z</time>
      </trkpt>
      <trkpt lat="46.1795" lon="-1.36577">
        <ele>11</ele>
        <time>2025-06-29T08:27:36Z</time>
      </trkpt>
      <trkpt lat="46.17949" lon="-1.36573">
        <ele>11</ele>
        <time>2025-06-29T08:27:38Z</time>
      </trkpt>
      <trkpt lat="46.17949" lon="-1.36569">
        <ele>11</ele>
        <time>2025-06-29T08:27:41Z</time>
      </trkpt>
      <trkpt lat="46.17947" lon="-1.36566">
        <ele>11.2</ele>
        <time>2025-06-29T08:27:44Z</time>
      </trkpt>
      <trkpt lat="46.17947" lon="-1.36562">
        <ele>11.4</ele>
        <time>2025-06-29T08:27:47Z</time>
      </trkpt>
      <trkpt lat="46.17946" lon="-1.36561">
        <ele>11.4</ele>
        <time>2025-06-29T08:27:48Z</time>
      </trkpt>
      <trkpt lat="46.17947" lon="-1.36554">
        <ele>11.2</ele>
        <time>2025-06-29T08:27:52Z</time>
      </trkpt>
      <trkpt lat="46.1795" lon="-1.36544">
        <ele>11.2</ele>
        <time>2025-06-29T08:27:58Z</time>
      </trkpt>
      <trkpt lat="46.1795" lon="-1.36542">
        <ele>11.4</ele>
        <time>2025-06-29T08:27:59Z</time>
      </trkpt>
      <trkpt lat="46.17951" lon="-1.36537">
        <ele>11.4</ele>
        <time>2025-06-29T08:28:02Z</time>
      </trkpt>
      <trkpt lat="46.17949" lon="-1.3653">
        <ele>11.4</ele>
        <time>2025-06-29T08:28:06Z</time>
      </trkpt>
      <trkpt lat="46.17948" lon="-1.36527">
        <ele>11.4</ele>
        <time>2025-06-29T08:28:08Z</time>
      </trkpt>
      <trkpt lat="46.17948" lon="-1.36525">
        <ele>11.4</ele>
        <time>2025-06-29T08:28:09Z</time>
      </trkpt>
      <trkpt lat="46.17947" lon="-1.36524">
        <ele>11.4</ele>
        <time>2025-06-29T08:28:10Z</time>
      </trkpt>
      <trkpt lat="46.17946" lon="-1.3652">
        <ele>11.4</ele>
        <time>2025-06-29T08:28:13Z</time>
      </trkpt>
      <trkpt lat="46.17944" lon="-1.36517">
        <ele>11.4</ele>
        <time>2025-06-29T08:28:15Z</time>
      </trkpt>
      <trkpt lat="46.17943" lon="-1.36514">
        <ele>11.4</ele>
        <time>2025-06-29T08:28:17Z</time>
      </trkpt>
      <trkpt lat="46.17943" lon="-1.36512">
        <ele>11.6</ele>
        <time>2025-06-29T08:28:18Z</time>
      </trkpt>
      <trkpt lat="46.17941" lon="-1.36505">
        <ele>11.4</ele>
        <time>2025-06-29T08:28:21Z</time>
      </trkpt>
      <trkpt lat="46.17941" lon="-1.36498">
        <ele>11.4</ele>
        <time>2025-06-29T08:28:24Z</time>
      </trkpt>
      <trkpt lat="46.17942" lon="-1.36498">
        <ele>11.2</ele>
        <time>2025-06-29T08:28:25Z</time>
      </trkpt>
      <trkpt lat="46.17944" lon="-1.36492">
        <ele>11.4</ele>
        <time>2025-06-29T08:28:28Z</time>
      </trkpt>
      <trkpt lat="46.17942" lon="-1.36485">
        <ele>11.4</ele>
        <time>2025-06-29T08:28:31Z</time>
      </trkpt>
      <trkpt lat="46.1794" lon="-1.3648">
        <ele>11.2</ele>
        <time>2025-06-29T08:28:35Z</time>
      </trkpt>
      <trkpt lat="46.1794" lon="-1.36476">
        <ele>11.2</ele>
        <time>2025-06-29T08:28:37Z</time>
      </trkpt>
      <trkpt lat="46.17941" lon="-1.36473">
        <ele>11.2</ele>
        <time>2025-06-29T08:28:39Z</time>
      </trkpt>
      <trkpt lat="46.17942" lon="-1.36464">
        <ele>11.2</ele>
        <time>2025-06-29T08:28:43Z</time>
      </trkpt>
      <trkpt lat="46.17943" lon="-1.36461">
        <ele>11.2</ele>
        <time>2025-06-29T08:28:44Z</time>
      </trkpt>
      <trkpt lat="46.1794" lon="-1.3645">
        <ele>11.4</ele>
        <time>2025-06-29T08:28:49Z</time>
      </trkpt>
      <trkpt lat="46.17938" lon="-1.36439">
        <ele>11.4</ele>
        <time>2025-06-29T08:28:56Z</time>
      </trkpt>
      <trkpt lat="46.17935" lon="-1.36429">
        <ele>11.4</ele>
        <time>2025-06-29T08:29:02Z</time>
      </trkpt>
      <trkpt lat="46.17933" lon="-1.36426">
        <ele>11.4</ele>
        <time>2025-06-29T08:29:04Z</time>
      </trkpt>
      <trkpt lat="46.17933" lon="-1.36423">
        <ele>11.4</ele>
        <time>2025-06-29T08:29:06Z</time>
      </trkpt>
      <trkpt lat="46.17933" lon="-1.36417">
        <ele>11.4</ele>
        <time>2025-06-29T08:29:09Z</time>
      </trkpt>
      <trkpt lat="46.17934" lon="-1.36409">
        <ele>11.2</ele>
        <time>2025-06-29T08:29:13Z</time>
      </trkpt>
      <trkpt lat="46.17934" lon="-1.36408">
        <ele>11.2</ele>
        <time>2025-06-29T08:29:14Z</time>
      </trkpt>
      <trkpt lat="46.17929" lon="-1.36395">
        <ele>11.2</ele>
        <time>2025-06-29T08:29:22Z</time>
      </trkpt>
      <trkpt lat="46.17929" lon="-1.36392">
        <ele>11.2</ele>
        <time>2025-06-29T08:29:24Z</time>
      </trkpt>
      <trkpt lat="46.17926" lon="-1.36387">
        <ele>11.4</ele>
        <time>2025-06-29T08:29:28Z</time>
      </trkpt>
      <trkpt lat="46.17926" lon="-1.36386">
        <ele>11.4</ele>
        <time>2025-06-29T08:29:29Z</time>
      </trkpt>
      <trkpt lat="46.17926" lon="-1.36379">
        <ele>11.4</ele>
        <time>2025-06-29T08:29:33Z</time>
      </trkpt>
      <trkpt lat="46.17925" lon="-1.36377">
        <ele>11.4</ele>
        <time>2025-06-29T08:29:34Z</time>
      </trkpt>
      <trkpt lat="46.17925" lon="-1.36372">
        <ele>11.4</ele>
        <time>2025-06-29T08:29:37Z</time>
      </trkpt>
      <trkpt lat="46.17924" lon="-1.3637">
        <ele>11.4</ele>
        <time>2025-06-29T08:29:38Z</time>
      </trkpt>
      <trkpt lat="46.17923" lon="-1.36365">
        <ele>11.4</ele>
        <time>2025-06-29T08:29:40Z</time>
      </trkpt>
      <trkpt lat="46.17922" lon="-1.36358">
        <ele>11.4</ele>
        <time>2025-06-29T08:29:44Z</time>
      </trkpt>
      <trkpt lat="46.17923" lon="-1.36349">
        <ele>11.4</ele>
        <time>2025-06-29T08:29:48Z</time>
      </trkpt>
      <trkpt lat="46.17922" lon="-1.36345">
        <ele>11.4</ele>
        <time>2025-06-29T08:29:50Z</time>
      </trkpt>
      <trkpt lat="46.1792" lon="-1.36334">
        <ele>11.6</ele>
        <time>2025-06-29T08:29:55Z</time>
      </trkpt>
      <trkpt lat="46.17921" lon="-1.36329">
        <ele>11.8</ele>
        <time>2025-06-29T08:29:57Z</time>
      </trkpt>
      <trkpt lat="46.1792" lon="-1.36324">
        <ele>11.8</ele>
        <time>2025-06-29T08:29:59Z</time>
      </trkpt>
      <trkpt lat="46.17916" lon="-1.36313">
        <ele>11.8</ele>
        <time>2025-06-29T08:30:05Z</time>
      </trkpt>
      <trkpt lat="46.17917" lon="-1.36312">
        <ele>11.8</ele>
        <time>2025-06-29T08:30:07Z</time>
      </trkpt>
      <trkpt lat="46.17917" lon="-1.3631">
        <ele>11.8</ele>
        <time>2025-06-29T08:30:08Z</time>
      </trkpt>
      <trkpt lat="46.17915" lon="-1.36308">
        <ele>12.2</ele>
        <time>2025-06-29T08:30:11Z</time>
      </trkpt>
      <trkpt lat="46.17909" lon="-1.363">
        <ele>12.2</ele>
        <time>2025-06-29T08:30:17Z</time>
      </trkpt>
      <trkpt lat="46.17908" lon="-1.36299">
        <ele>12.2</ele>
        <time>2025-06-29T08:30:18Z</time>
      </trkpt>
      <trkpt lat="46.17907" lon="-1.36298">
        <ele>12.2</ele>
        <time>2025-06-29T08:30:19Z</time>
      </trkpt>
      <trkpt lat="46.17905" lon="-1.36294">
        <ele>12.4</ele>
        <time>2025-06-29T08:30:21Z</time>
      </trkpt>
      <trkpt lat="46.17904" lon="-1.3629">
        <ele>12.4</ele>
        <time>2025-06-29T08:30:23Z</time>
      </trkpt>
      <trkpt lat="46.17897" lon="-1.36277">
        <ele>12.6</ele>
        <time>2025-06-29T08:30:32Z</time>
      </trkpt>
      <trkpt lat="46.17897" lon="-1.36272">
        <ele>12.6</ele>
        <time>2025-06-29T08:30:35Z</time>
      </trkpt>
      <trkpt lat="46.17896" lon="-1.36269">
        <ele>12.6</ele>
        <time>2025-06-29T08:30:37Z</time>
      </trkpt>
      <trkpt lat="46.17895" lon="-1.36267">
        <ele>12.6</ele>
        <time>2025-06-29T08:30:38Z</time>
      </trkpt>
      <trkpt lat="46.17894" lon="-1.36262">
        <ele>12.6</ele>
        <time>2025-06-29T08:30:40Z</time>
      </trkpt>
      <trkpt lat="46.17893" lon="-1.3626">
        <ele>12.6</ele>
        <time>2025-06-29T08:30:41Z</time>
      </trkpt>
      <trkpt lat="46.17889" lon="-1.36244">
        <ele>12.6</ele>
        <time>2025-06-29T08:30:50Z</time>
      </trkpt>
      <trkpt lat="46.17889" lon="-1.36242">
        <ele>12.6</ele>
        <time>2025-06-29T08:30:51Z</time>
      </trkpt>
      <trkpt lat="46.17888" lon="-1.36236">
        <ele>12.4</ele>
        <time>2025-06-29T08:30:54Z</time>
      </trkpt>
      <trkpt lat="46.17892" lon="-1.36228">
        <ele>12.2</ele>
        <time>2025-06-29T08:30:58Z</time>
      </trkpt>
      <trkpt lat="46.17898" lon="-1.36221">
        <ele>12.2</ele>
        <time>2025-06-29T08:31:04Z</time>
      </trkpt>
      <trkpt lat="46.17905" lon="-1.36218">
        <ele>12.6</ele>
        <time>2025-06-29T08:31:11Z</time>
      </trkpt>
      <trkpt lat="46.17914" lon="-1.36216">
        <ele>12.6</ele>
        <time>2025-06-29T08:31:18Z</time>
      </trkpt>
      <trkpt lat="46.17923" lon="-1.36213">
        <ele>12.6</ele>
        <time>2025-06-29T08:31:25Z</time>
      </trkpt>
      <trkpt lat="46.17936" lon="-1.36212">
        <ele>12.6</ele>
        <time>2025-06-29T08:31:35Z</time>
      </trkpt>
      <trkpt lat="46.17946" lon="-1.36215">
        <ele>12.6</ele>
        <time>2025-06-29T08:31:43Z</time>
      </trkpt>
      <trkpt lat="46.17952" lon="-1.36218">
        <ele>12.6</ele>
        <time>2025-06-29T08:31:48Z</time>
      </trkpt>
      <trkpt lat="46.17958" lon="-1.36222">
        <ele>12.8</ele>
        <time>2025-06-29T08:31:53Z</time>
      </trkpt>
      <trkpt lat="46.17968" lon="-1.36228">
        <ele>12.6</ele>
        <time>2025-06-29T08:32:01Z</time>
      </trkpt>
      <trkpt lat="46.17976" lon="-1.36233">
        <ele>12.6</ele>
        <time>2025-06-29T08:32:08Z</time>
      </trkpt>
      <trkpt lat="46.17985" lon="-1.36239">
        <ele>12.6</ele>
        <time>2025-06-29T08:32:16Z</time>
      </trkpt>
      <trkpt lat="46.17996" lon="-1.36244">
        <ele>12.6</ele>
        <time>2025-06-29T08:32:25Z</time>
      </trkpt>
      <trkpt lat="46.18002" lon="-1.36246">
        <ele>12.8</ele>
        <time>2025-06-29T08:32:29Z</time>
      </trkpt>
      <trkpt lat="46.18008" lon="-1.36244">
        <ele>13.2</ele>
        <time>2025-06-29T08:32:34Z</time>
      </trkpt>
      <trkpt lat="46.18009" lon="-1.36244">
        <ele>13.2</ele>
        <time>2025-06-29T08:32:35Z</time>
      </trkpt>
      <trkpt lat="46.18011" lon="-1.36243">
        <ele>13.2</ele>
        <time>2025-06-29T08:32:37Z</time>
      </trkpt>
      <trkpt lat="46.18013" lon="-1.36243">
        <ele>13.2</ele>
        <time>2025-06-29T08:32:40Z</time>
      </trkpt>
      <trkpt lat="46.18018" lon="-1.36243">
        <ele>13.2</ele>
        <time>2025-06-29T08:32:44Z</time>
      </trkpt>
      <trkpt lat="46.18022" lon="-1.3624">
        <ele>13</ele>
        <time>2025-06-29T08:32:47Z</time>
      </trkpt>
      <trkpt lat="46.18029" lon="-1.36233">
        <ele>13</ele>
        <time>2025-06-29T08:32:52Z</time>
      </trkpt>
      <trkpt lat="46.1803" lon="-1.36232">
        <ele>13</ele>
        <time>2025-06-29T08:32:53Z</time>
      </trkpt>
      <trkpt lat="46.18039" lon="-1.3623">
        <ele>13.4</ele>
        <time>2025-06-29T08:33:00Z</time>
      </trkpt>
      <trkpt lat="46.18045" lon="-1.3623">
        <ele>13.2</ele>
        <time>2025-06-29T08:33:05Z</time>
      </trkpt>
      <trkpt lat="46.18047" lon="-1.3623">
        <ele>13.4</ele>
        <time>2025-06-29T08:33:06Z</time>
      </trkpt>
      <trkpt lat="46.18053" lon="-1.3623">
        <ele>13.4</ele>
        <time>2025-06-29T08:33:11Z</time>
      </trkpt>
      <trkpt lat="46.18058" lon="-1.36231">
        <ele>13.4</ele>
        <time>2025-06-29T08:33:14Z</time>
      </trkpt>
      <trkpt lat="46.18069" lon="-1.36225">
        <ele>13.2</ele>
        <time>2025-06-29T08:33:22Z</time>
      </trkpt>
      <trkpt lat="46.18071" lon="-1.36221">
        <ele>13.2</ele>
        <time>2025-06-29T08:33:25Z</time>
      </trkpt>
      <trkpt lat="46.18072" lon="-1.36214">
        <ele>13.2</ele>
        <time>2025-06-29T08:33:28Z</time>
      </trkpt>
      <trkpt lat="46.1807" lon="-1.36209">
        <ele>13.4</ele>
        <time>2025-06-29T08:33:31Z</time>
      </trkpt>
      <trkpt lat="46.18069" lon="-1.36206">
        <ele>13.4</ele>
        <time>2025-06-29T08:33:33Z</time>
      </trkpt>
      <trkpt lat="46.18069" lon="-1.36204">
        <ele>13.4</ele>
        <time>2025-06-29T08:33:34Z</time>
      </trkpt>
      <trkpt lat="46.18067" lon="-1.36194">
        <ele>13.6</ele>
        <time>2025-06-29T08:33:39Z</time>
      </trkpt>
      <trkpt lat="46.18064" lon="-1.36189">
        <ele>13.6</ele>
        <time>2025-06-29T08:33:42Z</time>
      </trkpt>
      <trkpt lat="46.18063" lon="-1.36183">
        <ele>13.8</ele>
        <time>2025-06-29T08:33:45Z</time>
      </trkpt>
      <trkpt lat="46.18059" lon="-1.36174">
        <ele>14</ele>
        <time>2025-06-29T08:33:50Z</time>
      </trkpt>
      <trkpt lat="46.18057" lon="-1.36164">
        <ele>14</ele>
        <time>2025-06-29T08:33:57Z</time>
      </trkpt>
      <trkpt lat="46.18054" lon="-1.3615">
        <ele>14.2</ele>
        <time>2025-06-29T08:34:05Z</time>
      </trkpt>
      <trkpt lat="46.18049" lon="-1.36138">
        <ele>14.4</ele>
        <time>2025-06-29T08:34:12Z</time>
      </trkpt>
      <trkpt lat="46.18048" lon="-1.36136">
        <ele>14.4</ele>
        <time>2025-06-29T08:34:13Z</time>
      </trkpt>
      <trkpt lat="46.18047" lon="-1.36119">
        <ele>14.2</ele>
        <time>2025-06-29T08:34:21Z</time>
      </trkpt>
      <trkpt lat="46.18044" lon="-1.36109">
        <ele>14.2</ele>
        <time>2025-06-29T08:34:27Z</time>
      </trkpt>
      <trkpt lat="46.18044" lon="-1.36107">
        <ele>14.2</ele>
        <time>2025-06-29T08:34:28Z</time>
      </trkpt>
      <trkpt lat="46.18044" lon="-1.36106">
        <ele>14</ele>
        <time>2025-06-29T08:34:29Z</time>
      </trkpt>
      <trkpt lat="46.18045" lon="-1.36103">
        <ele>14</ele>
        <time>2025-06-29T08:34:31Z</time>
      </trkpt>
      <trkpt lat="46.18048" lon="-1.36098">
        <ele>14.2</ele>
        <time>2025-06-29T08:34:34Z</time>
      </trkpt>
      <trkpt lat="46.18048" lon="-1.36093">
        <ele>14</ele>
        <time>2025-06-29T08:34:36Z</time>
      </trkpt>
      <trkpt lat="46.18046" lon="-1.36089">
        <ele>14</ele>
        <time>2025-06-29T08:34:38Z</time>
      </trkpt>
      <trkpt lat="46.18047" lon="-1.36087">
        <ele>14</ele>
        <time>2025-06-29T08:34:39Z</time>
      </trkpt>
      <trkpt lat="46.18046" lon="-1.36083">
        <ele>14.2</ele>
        <time>2025-06-29T08:34:41Z</time>
      </trkpt>
      <trkpt lat="46.18044" lon="-1.3608">
        <ele>14.2</ele>
        <time>2025-06-29T08:34:43Z</time>
      </trkpt>
      <trkpt lat="46.1804" lon="-1.36074">
        <ele>14.2</ele>
        <time>2025-06-29T08:34:48Z</time>
      </trkpt>
      <trkpt lat="46.18038" lon="-1.36072">
        <ele>14.2</ele>
        <time>2025-06-29T08:34:49Z</time>
      </trkpt>
      <trkpt lat="46.18038" lon="-1.36062">
        <ele>14</ele>
        <time>2025-06-29T08:34:54Z</time>
      </trkpt>
      <trkpt lat="46.18039" lon="-1.36059">
        <ele>14</ele>
        <time>2025-06-29T08:34:55Z</time>
      </trkpt>
      <trkpt lat="46.18037" lon="-1.36055">
        <ele>13.8</ele>
        <time>2025-06-29T08:34:57Z</time>
      </trkpt>
      <trkpt lat="46.18036" lon="-1.3605">
        <ele>13.6</ele>
        <time>2025-06-29T08:34:59Z</time>
      </trkpt>
      <trkpt lat="46.18035" lon="-1.36049">
        <ele>13.6</ele>
        <time>2025-06-29T08:35:00Z</time>
      </trkpt>
      <trkpt lat="46.18034" lon="-1.36047">
        <ele>13.6</ele>
        <time>2025-06-29T08:35:02Z</time>
      </trkpt>
      <trkpt lat="46.18034" lon="-1.36044">
        <ele>13.8</ele>
        <time>2025-06-29T08:35:04Z</time>
      </trkpt>
      <trkpt lat="46.18034" lon="-1.36038">
        <ele>13.8</ele>
        <time>2025-06-29T08:35:06Z</time>
      </trkpt>
      <trkpt lat="46.18034" lon="-1.36036">
        <ele>13.8</ele>
        <time>2025-06-29T08:35:07Z</time>
      </trkpt>
      <trkpt lat="46.18031" lon="-1.3603">
        <ele>13.8</ele>
        <time>2025-06-29T08:35:11Z</time>
      </trkpt>
      <trkpt lat="46.18031" lon="-1.36019">
        <ele>14</ele>
        <time>2025-06-29T08:35:18Z</time>
      </trkpt>
      <trkpt lat="46.18036" lon="-1.36015">
        <ele>13.4</ele>
        <time>2025-06-29T08:35:24Z</time>
      </trkpt>
      <trkpt lat="46.1804" lon="-1.3601">
        <ele>13.2</ele>
        <time>2025-06-29T08:35:30Z</time>
      </trkpt>
      <trkpt lat="46.18047" lon="-1.36004">
        <ele>13.2</ele>
        <time>2025-06-29T08:35:36Z</time>
      </trkpt>
      <trkpt lat="46.18048" lon="-1.36002">
        <ele>13</ele>
        <time>2025-06-29T08:35:38Z</time>
      </trkpt>
      <trkpt lat="46.18052" lon="-1.36001">
        <ele>12.8</ele>
        <time>2025-06-29T08:35:42Z</time>
      </trkpt>
      <trkpt lat="46.18053" lon="-1.36001">
        <ele>12.8</ele>
        <time>2025-06-29T08:35:43Z</time>
      </trkpt>
      <trkpt lat="46.18058" lon="-1.35996">
        <ele>12.8</ele>
        <time>2025-06-29T08:35:48Z</time>
      </trkpt>
      <trkpt lat="46.18061" lon="-1.35993">
        <ele>12.8</ele>
        <time>2025-06-29T08:35:50Z</time>
      </trkpt>
      <trkpt lat="46.18062" lon="-1.35992">
        <ele>12.6</ele>
        <time>2025-06-29T08:35:51Z</time>
      </trkpt>
      <trkpt lat="46.18071" lon="-1.35984">
        <ele>12.8</ele>
        <time>2025-06-29T08:35:58Z</time>
      </trkpt>
      <trkpt lat="46.18077" lon="-1.35976">
        <ele>12.8</ele>
        <time>2025-06-29T08:36:05Z</time>
      </trkpt>
      <trkpt lat="46.18078" lon="-1.35975">
        <ele>12.8</ele>
        <time>2025-06-29T08:36:06Z</time>
      </trkpt>
      <trkpt lat="46.18082" lon="-1.35972">
        <ele>12.8</ele>
        <time>2025-06-29T08:36:10Z</time>
      </trkpt>
      <trkpt lat="46.18084" lon="-1.35968">
        <ele>12.8</ele>
        <time>2025-06-29T08:36:13Z</time>
      </trkpt>
      <trkpt lat="46.18085" lon="-1.35967">
        <ele>12.8</ele>
        <time>2025-06-29T08:36:14Z</time>
      </trkpt>
      <trkpt lat="46.18086" lon="-1.35964">
        <ele>12.8</ele>
        <time>2025-06-29T08:36:16Z</time>
      </trkpt>
      <trkpt lat="46.18088" lon="-1.3596">
        <ele>12.8</ele>
        <time>2025-06-29T08:36:19Z</time>
      </trkpt>
      <trkpt lat="46.18092" lon="-1.35958">
        <ele>12.8</ele>
        <time>2025-06-29T08:36:21Z</time>
      </trkpt>
      <trkpt lat="46.18094" lon="-1.3595">
        <ele>12.8</ele>
        <time>2025-06-29T08:36:25Z</time>
      </trkpt>
      <trkpt lat="46.18094" lon="-1.35949">
        <ele>12.8</ele>
        <time>2025-06-29T08:36:26Z</time>
      </trkpt>
      <trkpt lat="46.18098" lon="-1.35944">
        <ele>13</ele>
        <time>2025-06-29T08:36:30Z</time>
      </trkpt>
      <trkpt lat="46.18098" lon="-1.35942">
        <ele>13</ele>
        <time>2025-06-29T08:36:31Z</time>
      </trkpt>
      <trkpt lat="46.18105" lon="-1.35935">
        <ele>13</ele>
        <time>2025-06-29T08:36:37Z</time>
      </trkpt>
      <trkpt lat="46.18107" lon="-1.35932">
        <ele>13</ele>
        <time>2025-06-29T08:36:39Z</time>
      </trkpt>
      <trkpt lat="46.18113" lon="-1.35926">
        <ele>13.2</ele>
        <time>2025-06-29T08:36:44Z</time>
      </trkpt>
      <trkpt lat="46.18116" lon="-1.35921">
        <ele>13.2</ele>
        <time>2025-06-29T08:36:48Z</time>
      </trkpt>
      <trkpt lat="46.18118" lon="-1.35919">
        <ele>13.2</ele>
        <time>2025-06-29T08:36:50Z</time>
      </trkpt>
      <trkpt lat="46.18119" lon="-1.35916">
        <ele>13.2</ele>
        <time>2025-06-29T08:36:52Z</time>
      </trkpt>
      <trkpt lat="46.1812" lon="-1.35914">
        <ele>13.2</ele>
        <time>2025-06-29T08:36:54Z</time>
      </trkpt>
      <trkpt lat="46.18122" lon="-1.35912">
        <ele>13.2</ele>
        <time>2025-06-29T08:36:56Z</time>
      </trkpt>
      <trkpt lat="46.18127" lon="-1.35909">
        <ele>13.6</ele>
        <time>2025-06-29T08:37:00Z</time>
      </trkpt>
      <trkpt lat="46.1813" lon="-1.35905">
        <ele>13.6</ele>
        <time>2025-06-29T08:37:03Z</time>
      </trkpt>
      <trkpt lat="46.18136" lon="-1.35899">
        <ele>13.8</ele>
        <time>2025-06-29T08:37:09Z</time>
      </trkpt>
      <trkpt lat="46.1814" lon="-1.35897">
        <ele>14</ele>
        <time>2025-06-29T08:37:12Z</time>
      </trkpt>
      <trkpt lat="46.18146" lon="-1.35889">
        <ele>14.4</ele>
        <time>2025-06-29T08:37:19Z</time>
      </trkpt>
      <trkpt lat="46.18146" lon="-1.35888">
        <ele>14.4</ele>
        <time>2025-06-29T08:37:20Z</time>
      </trkpt>
      <trkpt lat="46.18149" lon="-1.35884">
        <ele>14.2</ele>
        <time>2025-06-29T08:37:24Z</time>
      </trkpt>
      <trkpt lat="46.18159" lon="-1.35883">
        <ele>14.2</ele>
        <time>2025-06-29T08:37:30Z</time>
      </trkpt>
      <trkpt lat="46.18161" lon="-1.35881">
        <ele>14.2</ele>
        <time>2025-06-29T08:37:32Z</time>
      </trkpt>
      <trkpt lat="46.18167" lon="-1.35871">
        <ele>14.2</ele>
        <time>2025-06-29T08:37:39Z</time>
      </trkpt>
      <trkpt lat="46.18169" lon="-1.35869">
        <ele>14.2</ele>
        <time>2025-06-29T08:37:41Z</time>
      </trkpt>
      <trkpt lat="46.1817" lon="-1.35865">
        <ele>14.2</ele>
        <time>2025-06-29T08:37:44Z</time>
      </trkpt>
      <trkpt lat="46.18173" lon="-1.35862">
        <ele>14.2</ele>
        <time>2025-06-29T08:37:46Z</time>
      </trkpt>
      <trkpt lat="46.18175" lon="-1.35859">
        <ele>14.2</ele>
        <time>2025-06-29T08:37:48Z</time>
      </trkpt>
      <trkpt lat="46.18178" lon="-1.35858">
        <ele>14.2</ele>
        <time>2025-06-29T08:37:50Z</time>
      </trkpt>
      <trkpt lat="46.18179" lon="-1.35857">
        <ele>14.2</ele>
        <time>2025-06-29T08:37:51Z</time>
      </trkpt>
      <trkpt lat="46.1818" lon="-1.35854">
        <ele>14.2</ele>
        <time>2025-06-29T08:37:56Z</time>
      </trkpt>
      <trkpt lat="46.1818" lon="-1.35853">
        <ele>14.2</ele>
        <time>2025-06-29T08:37:57Z</time>
      </trkpt>
      <trkpt lat="46.18182" lon="-1.3585">
        <ele>14.2</ele>
        <time>2025-06-29T08:37:59Z</time>
      </trkpt>
      <trkpt lat="46.18184" lon="-1.35847">
        <ele>14.2</ele>
        <time>2025-06-29T08:38:01Z</time>
      </trkpt>
      <trkpt lat="46.18189" lon="-1.35842">
        <ele>14.4</ele>
        <time>2025-06-29T08:38:05Z</time>
      </trkpt>
      <trkpt lat="46.18189" lon="-1.3584">
        <ele>14.4</ele>
        <time>2025-06-29T08:38:06Z</time>
      </trkpt>
      <trkpt lat="46.1819" lon="-1.35838">
        <ele>14.4</ele>
        <time>2025-06-29T08:38:07Z</time>
      </trkpt>
      <trkpt lat="46.18194" lon="-1.35832">
        <ele>14.2</ele>
        <time>2025-06-29T08:38:11Z</time>
      </trkpt>
      <trkpt lat="46.18195" lon="-1.35831">
        <ele>14.2</ele>
        <time>2025-06-29T08:38:12Z</time>
      </trkpt>
      <trkpt lat="46.18196" lon="-1.3583">
        <ele>14.2</ele>
        <time>2025-06-29T08:38:14Z</time>
      </trkpt>
      <trkpt lat="46.18199" lon="-1.35827">
        <ele>14.4</ele>
        <time>2025-06-29T08:38:16Z</time>
      </trkpt>
      <trkpt lat="46.18204" lon="-1.35817">
        <ele>14.6</ele>
        <time>2025-06-29T08:38:22Z</time>
      </trkpt>
      <trkpt lat="46.18205" lon="-1.35815">
        <ele>14.6</ele>
        <time>2025-06-29T08:38:23Z</time>
      </trkpt>
      <trkpt lat="46.18207" lon="-1.3581">
        <ele>14.4</ele>
        <time>2025-06-29T08:38:27Z</time>
      </trkpt>
      <trkpt lat="46.18209" lon="-1.35808">
        <ele>14.6</ele>
        <time>2025-06-29T08:38:29Z</time>
      </trkpt>
      <trkpt lat="46.1821" lon="-1.35807">
        <ele>14.6</ele>
        <time>2025-06-29T08:38:30Z</time>
      </trkpt>
      <trkpt lat="46.18213" lon="-1.35802">
        <ele>14.8</ele>
        <time>2025-06-29T08:38:33Z</time>
      </trkpt>
      <trkpt lat="46.18215" lon="-1.35799">
        <ele>15</ele>
        <time>2025-06-29T08:38:35Z</time>
      </trkpt>
      <trkpt lat="46.18216" lon="-1.35797">
        <ele>15</ele>
        <time>2025-06-29T08:38:36Z</time>
      </trkpt>
      <trkpt lat="46.18218" lon="-1.35795">
        <ele>15</ele>
        <time>2025-06-29T08:38:38Z</time>
      </trkpt>
      <trkpt lat="46.18221" lon="-1.35788">
        <ele>15</ele>
        <time>2025-06-29T08:38:42Z</time>
      </trkpt>
      <trkpt lat="46.18224" lon="-1.35785">
        <ele>15</ele>
        <time>2025-06-29T08:38:44Z</time>
      </trkpt>
      <trkpt lat="46.18225" lon="-1.35784">
        <ele>15</ele>
        <time>2025-06-29T08:38:46Z</time>
      </trkpt>
      <trkpt lat="46.18225" lon="-1.35783">
        <ele>15</ele>
        <time>2025-06-29T08:38:48Z</time>
      </trkpt>
      <trkpt lat="46.18223" lon="-1.35779">
        <ele>15</ele>
        <time>2025-06-29T08:38:50Z</time>
      </trkpt>
      <trkpt lat="46.18221" lon="-1.35775">
        <ele>15.2</ele>
        <time>2025-06-29T08:38:52Z</time>
      </trkpt>
      <trkpt lat="46.18221" lon="-1.35773">
        <ele>15.2</ele>
        <time>2025-06-29T08:38:53Z</time>
      </trkpt>
      <trkpt lat="46.18222" lon="-1.35772">
        <ele>15.2</ele>
        <time>2025-06-29T08:38:57Z</time>
      </trkpt>
      <trkpt lat="46.18222" lon="-1.35766">
        <ele>15.2</ele>
        <time>2025-06-29T08:39:02Z</time>
      </trkpt>
      <trkpt lat="46.18221" lon="-1.3576">
        <ele>15.2</ele>
        <time>2025-06-29T08:39:06Z</time>
      </trkpt>
      <trkpt lat="46.18223" lon="-1.35756">
        <ele>15</ele>
        <time>2025-06-29T08:39:09Z</time>
      </trkpt>
      <trkpt lat="46.18219" lon="-1.35745">
        <ele>15</ele>
        <time>2025-06-29T08:39:15Z</time>
      </trkpt>
      <trkpt lat="46.18218" lon="-1.35735">
        <ele>15</ele>
        <time>2025-06-29T08:39:21Z</time>
      </trkpt>
      <trkpt lat="46.18221" lon="-1.3573">
        <ele>15.6</ele>
        <time>2025-06-29T08:39:26Z</time>
      </trkpt>
      <trkpt lat="46.18225" lon="-1.35728">
        <ele>15.6</ele>
        <time>2025-06-29T08:39:29Z</time>
      </trkpt>
      <trkpt lat="46.18227" lon="-1.35725">
        <ele>15.6</ele>
        <time>2025-06-29T08:39:31Z</time>
      </trkpt>
      <trkpt lat="46.18231" lon="-1.35722">
        <ele>15.6</ele>
        <time>2025-06-29T08:39:34Z</time>
      </trkpt>
      <trkpt lat="46.18236" lon="-1.35719">
        <ele>15.8</ele>
        <time>2025-06-29T08:39:38Z</time>
      </trkpt>
      <trkpt lat="46.1824" lon="-1.35719">
        <ele>15.8</ele>
        <time>2025-06-29T08:39:40Z</time>
      </trkpt>
      <trkpt lat="46.18243" lon="-1.35717">
        <ele>15.8</ele>
        <time>2025-06-29T08:39:43Z</time>
      </trkpt>
      <trkpt lat="46.18245" lon="-1.35714">
        <ele>15.8</ele>
        <time>2025-06-29T08:39:48Z</time>
      </trkpt>
      <trkpt lat="46.18246" lon="-1.35713">
        <ele>16</ele>
        <time>2025-06-29T08:39:49Z</time>
      </trkpt>
      <trkpt lat="46.18251" lon="-1.35711">
        <ele>16.2</ele>
        <time>2025-06-29T08:39:53Z</time>
      </trkpt>
      <trkpt lat="46.18253" lon="-1.35709">
        <ele>16.2</ele>
        <time>2025-06-29T08:39:55Z</time>
      </trkpt>
      <trkpt lat="46.18256" lon="-1.35706">
        <ele>16.2</ele>
        <time>2025-06-29T08:39:58Z</time>
      </trkpt>
      <trkpt lat="46.18258" lon="-1.35705">
        <ele>16.2</ele>
        <time>2025-06-29T08:40:00Z</time>
      </trkpt>
      <trkpt lat="46.18262" lon="-1.35703">
        <ele>16.2</ele>
        <time>2025-06-29T08:40:03Z</time>
      </trkpt>
      <trkpt lat="46.1827" lon="-1.35699">
        <ele>16</ele>
        <time>2025-06-29T08:40:08Z</time>
      </trkpt>
      <trkpt lat="46.18277" lon="-1.35697">
        <ele>16.2</ele>
        <time>2025-06-29T08:40:14Z</time>
      </trkpt>
      <trkpt lat="46.18278" lon="-1.35699">
        <ele>16.2</ele>
        <time>2025-06-29T08:40:15Z</time>
      </trkpt>
      <trkpt lat="46.1828" lon="-1.357">
        <ele>16.2</ele>
        <time>2025-06-29T08:40:17Z</time>
      </trkpt>
      <trkpt lat="46.18285" lon="-1.35699">
        <ele>16</ele>
        <time>2025-06-29T08:40:21Z</time>
      </trkpt>
      <trkpt lat="46.18294" lon="-1.35699">
        <ele>16.4</ele>
        <time>2025-06-29T08:40:29Z</time>
      </trkpt>
      <trkpt lat="46.18297" lon="-1.35698">
        <ele>16.4</ele>
        <time>2025-06-29T08:40:31Z</time>
      </trkpt>
      <trkpt lat="46.18306" lon="-1.35699">
        <ele>16.6</ele>
        <time>2025-06-29T08:40:38Z</time>
      </trkpt>
      <trkpt lat="46.18309" lon="-1.35697">
        <ele>16.6</ele>
        <time>2025-06-29T08:40:41Z</time>
      </trkpt>
      <trkpt lat="46.18314" lon="-1.35696">
        <ele>17</ele>
        <time>2025-06-29T08:40:45Z</time>
      </trkpt>
      <trkpt lat="46.18315" lon="-1.35696">
        <ele>17</ele>
        <time>2025-06-29T08:40:46Z</time>
      </trkpt>
      <trkpt lat="46.18323" lon="-1.357">
        <ele>17.2</ele>
        <time>2025-06-29T08:40:53Z</time>
      </trkpt>
      <trkpt lat="46.18327" lon="-1.35701">
        <ele>17.4</ele>
        <time>2025-06-29T08:40:56Z</time>
      </trkpt>
      <trkpt lat="46.18331" lon="-1.35701">
        <ele>17.4</ele>
        <time>2025-06-29T08:41:00Z</time>
      </trkpt>
      <trkpt lat="46.18339" lon="-1.35702">
        <ele>17.6</ele>
        <time>2025-06-29T08:41:07Z</time>
      </trkpt>
      <trkpt lat="46.18348" lon="-1.35701">
        <ele>17.8</ele>
        <time>2025-06-29T08:41:13Z</time>
      </trkpt>
      <trkpt lat="46.18352" lon="-1.35701">
        <ele>17.6</ele>
        <time>2025-06-29T08:41:16Z</time>
      </trkpt>
      <trkpt lat="46.18353" lon="-1.35701">
        <ele>17.6</ele>
        <time>2025-06-29T08:41:17Z</time>
      </trkpt>
      <trkpt lat="46.18358" lon="-1.35704">
        <ele>17.4</ele>
        <time>2025-06-29T08:41:22Z</time>
      </trkpt>
      <trkpt lat="46.1837" lon="-1.35706">
        <ele>17.6</ele>
        <time>2025-06-29T08:41:31Z</time>
      </trkpt>
      <trkpt lat="46.18371" lon="-1.35706">
        <ele>17.8</ele>
        <time>2025-06-29T08:41:32Z</time>
      </trkpt>
      <trkpt lat="46.18378" lon="-1.35704">
        <ele>18</ele>
        <time>2025-06-29T08:41:38Z</time>
      </trkpt>
      <trkpt lat="46.18378" lon="-1.35703">
        <ele>18</ele>
        <time>2025-06-29T08:41:40Z</time>
      </trkpt>
      <trkpt lat="46.18379" lon="-1.35703">
        <ele>18</ele>
        <time>2025-06-29T08:41:41Z</time>
      </trkpt>
      <trkpt lat="46.18387" lon="-1.35707">
        <ele>18.4</ele>
        <time>2025-06-29T08:41:48Z</time>
      </trkpt>
      <trkpt lat="46.18389" lon="-1.35707">
        <ele>18.4</ele>
        <time>2025-06-29T08:41:49Z</time>
      </trkpt>
      <trkpt lat="46.18394" lon="-1.35707">
        <ele>18</ele>
        <time>2025-06-29T08:41:55Z</time>
      </trkpt>
      <trkpt lat="46.18404" lon="-1.35707">
        <ele>17.8</ele>
        <time>2025-06-29T08:42:01Z</time>
      </trkpt>
      <trkpt lat="46.18415" lon="-1.35705">
        <ele>17.8</ele>
        <time>2025-06-29T08:42:09Z</time>
      </trkpt>
      <trkpt lat="46.18416" lon="-1.35704">
        <ele>17.6</ele>
        <time>2025-06-29T08:42:14Z</time>
      </trkpt>
      <trkpt lat="46.18415" lon="-1.35704">
        <ele>17.6</ele>
        <time>2025-06-29T08:42:15Z</time>
      </trkpt>
      <trkpt lat="46.18412" lon="-1.35704">
        <ele>17.8</ele>
        <time>2025-06-29T08:42:18Z</time>
      </trkpt>
      <trkpt lat="46.18412" lon="-1.35701">
        <ele>17.8</ele>
        <time>2025-06-29T08:42:21Z</time>
      </trkpt>
      <trkpt lat="46.18413" lon="-1.357">
        <ele>17.8</ele>
        <time>2025-06-29T08:42:22Z</time>
      </trkpt>
      <trkpt lat="46.1842" lon="-1.35694">
        <ele>17.6</ele>
        <time>2025-06-29T08:42:29Z</time>
      </trkpt>
      <trkpt lat="46.18421" lon="-1.35695">
        <ele>17.6</ele>
        <time>2025-06-29T08:42:30Z</time>
      </trkpt>
      <trkpt lat="46.18426" lon="-1.35701">
        <ele>17.4</ele>
        <time>2025-06-29T08:42:34Z</time>
      </trkpt>
      <trkpt lat="46.18427" lon="-1.35705">
        <ele>17.2</ele>
        <time>2025-06-29T08:42:36Z</time>
      </trkpt>
      <trkpt lat="46.18434" lon="-1.35708">
        <ele>17.6</ele>
        <time>2025-06-29T08:42:42Z</time>
      </trkpt>
      <trkpt lat="46.18437" lon="-1.35707">
        <ele>18</ele>
        <time>2025-06-29T08:42:44Z</time>
      </trkpt>
      <trkpt lat="46.18441" lon="-1.35706">
        <ele>18.2</ele>
        <time>2025-06-29T08:42:47Z</time>
      </trkpt>
      <trkpt lat="46.18445" lon="-1.35707">
        <ele>17.8</ele>
        <time>2025-06-29T08:42:50Z</time>
      </trkpt>
      <trkpt lat="46.18448" lon="-1.35708">
        <ele>17.6</ele>
        <time>2025-06-29T08:42:53Z</time>
      </trkpt>
      <trkpt lat="46.18452" lon="-1.35705">
        <ele>17.4</ele>
        <time>2025-06-29T08:42:56Z</time>
      </trkpt>
      <trkpt lat="46.18459" lon="-1.35703">
        <ele>17.8</ele>
        <time>2025-06-29T08:43:01Z</time>
      </trkpt>
      <trkpt lat="46.18462" lon="-1.35702">
        <ele>17.6</ele>
        <time>2025-06-29T08:43:04Z</time>
      </trkpt>
      <trkpt lat="46.18471" lon="-1.35703">
        <ele>17.4</ele>
        <time>2025-06-29T08:43:11Z</time>
      </trkpt>
      <trkpt lat="46.18482" lon="-1.35705">
        <ele>17.6</ele>
        <time>2025-06-29T08:43:19Z</time>
      </trkpt>
      <trkpt lat="46.18491" lon="-1.35704">
        <ele>17.8</ele>
        <time>2025-06-29T08:43:26Z</time>
      </trkpt>
      <trkpt lat="46.18501" lon="-1.35708">
        <ele>18</ele>
        <time>2025-06-29T08:43:33Z</time>
      </trkpt>
      <trkpt lat="46.18503" lon="-1.35708">
        <ele>18.2</ele>
        <time>2025-06-29T08:43:35Z</time>
      </trkpt>
      <trkpt lat="46.18509" lon="-1.35706">
        <ele>17.8</ele>
        <time>2025-06-29T08:43:40Z</time>
      </trkpt>
      <trkpt lat="46.18511" lon="-1.35705">
        <ele>17.8</ele>
        <time>2025-06-29T08:43:41Z</time>
      </trkpt>
      <trkpt lat="46.18515" lon="-1.35703">
        <ele>17.6</ele>
        <time>2025-06-29T08:43:44Z</time>
      </trkpt>
      <trkpt lat="46.18519" lon="-1.35702">
        <ele>17.6</ele>
        <time>2025-06-29T08:43:47Z</time>
      </trkpt>
      <trkpt lat="46.18527" lon="-1.35703">
        <ele>17.4</ele>
        <time>2025-06-29T08:43:54Z</time>
      </trkpt>
      <trkpt lat="46.18528" lon="-1.35704">
        <ele>17.4</ele>
        <time>2025-06-29T08:43:55Z</time>
      </trkpt>
      <trkpt lat="46.18529" lon="-1.35704">
        <ele>17.4</ele>
        <time>2025-06-29T08:43:56Z</time>
      </trkpt>
      <trkpt lat="46.18535" lon="-1.35706">
        <ele>17.4</ele>
        <time>2025-06-29T08:44:01Z</time>
      </trkpt>
      <trkpt lat="46.18541" lon="-1.35702">
        <ele>17.4</ele>
        <time>2025-06-29T08:44:05Z</time>
      </trkpt>
      <trkpt lat="46.18545" lon="-1.35705">
        <ele>17.4</ele>
        <time>2025-06-29T08:44:08Z</time>
      </trkpt>
      <trkpt lat="46.18548" lon="-1.35707">
        <ele>17.4</ele>
        <time>2025-06-29T08:44:10Z</time>
      </trkpt>
      <trkpt lat="46.18557" lon="-1.35706">
        <ele>17.4</ele>
        <time>2025-06-29T08:44:16Z</time>
      </trkpt>
      <trkpt lat="46.18568" lon="-1.35704">
        <ele>17.6</ele>
        <time>2025-06-29T08:44:25Z</time>
      </trkpt>
      <trkpt lat="46.1857" lon="-1.35704">
        <ele>17.6</ele>
        <time>2025-06-29T08:44:27Z</time>
      </trkpt>
      <trkpt lat="46.18576" lon="-1.35704">
        <ele>17.4</ele>
        <time>2025-06-29T08:44:31Z</time>
      </trkpt>
      <trkpt lat="46.18577" lon="-1.35704">
        <ele>17.4</ele>
        <time>2025-06-29T08:44:32Z</time>
      </trkpt>
      <trkpt lat="46.18579" lon="-1.35705">
        <ele>17.4</ele>
        <time>2025-06-29T08:44:34Z</time>
      </trkpt>
      <trkpt lat="46.18585" lon="-1.35705">
        <ele>17.4</ele>
        <time>2025-06-29T08:44:38Z</time>
      </trkpt>
      <trkpt lat="46.18586" lon="-1.35704">
        <ele>17.2</ele>
        <time>2025-06-29T08:44:39Z</time>
      </trkpt>
      <trkpt lat="46.18591" lon="-1.35701">
        <ele>17.2</ele>
        <time>2025-06-29T08:44:43Z</time>
      </trkpt>
      <trkpt lat="46.18597" lon="-1.35702">
        <ele>17.2</ele>
        <time>2025-06-29T08:44:47Z</time>
      </trkpt>
      <trkpt lat="46.18597" lon="-1.35703">
        <ele>17.4</ele>
        <time>2025-06-29T08:44:48Z</time>
      </trkpt>
      <trkpt lat="46.18598" lon="-1.357">
        <ele>17.4</ele>
        <time>2025-06-29T08:44:50Z</time>
      </trkpt>
      <trkpt lat="46.18598" lon="-1.35693">
        <ele>17.4</ele>
        <time>2025-06-29T08:44:53Z</time>
      </trkpt>
      <trkpt lat="46.18598" lon="-1.3569">
        <ele>17.4</ele>
        <time>2025-06-29T08:44:55Z</time>
      </trkpt>
      <trkpt lat="46.186" lon="-1.35688">
        <ele>17.4</ele>
        <time>2025-06-29T08:44:57Z</time>
      </trkpt>
      <trkpt lat="46.18602" lon="-1.35687">
        <ele>17.4</ele>
        <time>2025-06-29T08:44:58Z</time>
      </trkpt>
      <trkpt lat="46.18612" lon="-1.35679">
        <ele>17.4</ele>
        <time>2025-06-29T08:45:04Z</time>
      </trkpt>
      <trkpt lat="46.18613" lon="-1.35677">
        <ele>17.4</ele>
        <time>2025-06-29T08:45:05Z</time>
      </trkpt>
      <trkpt lat="46.18616" lon="-1.35675">
        <ele>17.4</ele>
        <time>2025-06-29T08:45:07Z</time>
      </trkpt>
      <trkpt lat="46.18618" lon="-1.35674">
        <ele>17.6</ele>
        <time>2025-06-29T08:45:09Z</time>
      </trkpt>
      <trkpt lat="46.18619" lon="-1.35673">
        <ele>17.6</ele>
        <time>2025-06-29T08:45:10Z</time>
      </trkpt>
      <trkpt lat="46.18625" lon="-1.35664">
        <ele>17.8</ele>
        <time>2025-06-29T08:45:15Z</time>
      </trkpt>
      <trkpt lat="46.18627" lon="-1.35653">
        <ele>17.6</ele>
        <time>2025-06-29T08:45:22Z</time>
      </trkpt>
      <trkpt lat="46.18625" lon="-1.35648">
        <ele>17.8</ele>
        <time>2025-06-29T08:45:25Z</time>
      </trkpt>
      <trkpt lat="46.18623" lon="-1.35644">
        <ele>18</ele>
        <time>2025-06-29T08:45:28Z</time>
      </trkpt>
      <trkpt lat="46.1862" lon="-1.35641">
        <ele>18</ele>
        <time>2025-06-29T08:45:30Z</time>
      </trkpt>
      <trkpt lat="46.18615" lon="-1.35634">
        <ele>17.8</ele>
        <time>2025-06-29T08:45:35Z</time>
      </trkpt>
      <trkpt lat="46.18612" lon="-1.35629">
        <ele>17.8</ele>
        <time>2025-06-29T08:45:38Z</time>
      </trkpt>
      <trkpt lat="46.18611" lon="-1.35623">
        <ele>18</ele>
        <time>2025-06-29T08:45:42Z</time>
      </trkpt>
      <trkpt lat="46.18609" lon="-1.3562">
        <ele>18</ele>
        <time>2025-06-29T08:45:44Z</time>
      </trkpt>
      <trkpt lat="46.18608" lon="-1.35616">
        <ele>18</ele>
        <time>2025-06-29T08:45:46Z</time>
      </trkpt>
      <trkpt lat="46.18606" lon="-1.35615">
        <ele>17.8</ele>
        <time>2025-06-29T08:45:49Z</time>
      </trkpt>
      <trkpt lat="46.18603" lon="-1.35613">
        <ele>17.8</ele>
        <time>2025-06-29T08:45:52Z</time>
      </trkpt>
      <trkpt lat="46.18601" lon="-1.3561">
        <ele>17.6</ele>
        <time>2025-06-29T08:45:55Z</time>
      </trkpt>
      <trkpt lat="46.18601" lon="-1.3561">
        <ele>17.6</ele>
        <time>2025-06-29T08:45:56Z</time>
      </trkpt>
      <trkpt lat="46.18599" lon="-1.35608">
        <ele>17.6</ele>
        <time>2025-06-29T08:45:58Z</time>
      </trkpt>
      <trkpt lat="46.18596" lon="-1.35604">
        <ele>17.6</ele>
        <time>2025-06-29T08:46:01Z</time>
      </trkpt>
      <trkpt lat="46.18595" lon="-1.35603">
        <ele>17.6</ele>
        <time>2025-06-29T08:46:02Z</time>
      </trkpt>
      <trkpt lat="46.18593" lon="-1.356">
        <ele>18</ele>
        <time>2025-06-29T08:46:07Z</time>
      </trkpt>
      <trkpt lat="46.18589" lon="-1.35594">
        <ele>17.6</ele>
        <time>2025-06-29T08:46:13Z</time>
      </trkpt>
      <trkpt lat="46.18584" lon="-1.35594">
        <ele>17.6</ele>
        <time>2025-06-29T08:46:20Z</time>
      </trkpt>
      <trkpt lat="46.18579" lon="-1.35589">
        <ele>17.6</ele>
        <time>2025-06-29T08:46:26Z</time>
      </trkpt>
      <trkpt lat="46.18579" lon="-1.35588">
        <ele>17.6</ele>
        <time>2025-06-29T08:46:27Z</time>
      </trkpt>
      <trkpt lat="46.18578" lon="-1.35587">
        <ele>17.4</ele>
        <time>2025-06-29T08:46:29Z</time>
      </trkpt>
      <trkpt lat="46.18575" lon="-1.35583">
        <ele>17.4</ele>
        <time>2025-06-29T08:46:32Z</time>
      </trkpt>
      <trkpt lat="46.18573" lon="-1.35576">
        <ele>17.4</ele>
        <time>2025-06-29T08:46:35Z</time>
      </trkpt>
      <trkpt lat="46.18571" lon="-1.35573">
        <ele>17.4</ele>
        <time>2025-06-29T08:46:37Z</time>
      </trkpt>
      <trkpt lat="46.1857" lon="-1.3557">
        <ele>17.4</ele>
        <time>2025-06-29T08:46:39Z</time>
      </trkpt>
      <trkpt lat="46.18568" lon="-1.35568">
        <ele>17.4</ele>
        <time>2025-06-29T08:46:41Z</time>
      </trkpt>
      <trkpt lat="46.18568" lon="-1.35567">
        <ele>17.4</ele>
        <time>2025-06-29T08:46:42Z</time>
      </trkpt>
      <trkpt lat="46.18567" lon="-1.35567">
        <ele>17.4</ele>
        <time>2025-06-29T08:46:43Z</time>
      </trkpt>
      <trkpt lat="46.18565" lon="-1.35566">
        <ele>17.6</ele>
        <time>2025-06-29T08:46:45Z</time>
      </trkpt>
      <trkpt lat="46.18563" lon="-1.35563">
        <ele>17.6</ele>
        <time>2025-06-29T08:46:47Z</time>
      </trkpt>
      <trkpt lat="46.1856" lon="-1.35559">
        <ele>17.6</ele>
        <time>2025-06-29T08:46:50Z</time>
      </trkpt>
      <trkpt lat="46.18557" lon="-1.35556">
        <ele>17.6</ele>
        <time>2025-06-29T08:46:53Z</time>
      </trkpt>
      <trkpt lat="46.18556" lon="-1.35555">
        <ele>17.8</ele>
        <time>2025-06-29T08:46:54Z</time>
      </trkpt>
      <trkpt lat="46.1855" lon="-1.35549">
        <ele>18</ele>
        <time>2025-06-29T08:47:02Z</time>
      </trkpt>
      <trkpt lat="46.18545" lon="-1.35541">
        <ele>17.8</ele>
        <time>2025-06-29T08:47:09Z</time>
      </trkpt>
      <trkpt lat="46.18541" lon="-1.35533">
        <ele>17.6</ele>
        <time>2025-06-29T08:47:16Z</time>
      </trkpt>
      <trkpt lat="46.1854" lon="-1.3553">
        <ele>17.4</ele>
        <time>2025-06-29T08:47:18Z</time>
      </trkpt>
      <trkpt lat="46.18538" lon="-1.35526">
        <ele>17.2</ele>
        <time>2025-06-29T08:47:21Z</time>
      </trkpt>
      <trkpt lat="46.18537" lon="-1.35525">
        <ele>17.2</ele>
        <time>2025-06-29T08:47:22Z</time>
      </trkpt>
      <trkpt lat="46.18533" lon="-1.35519">
        <ele>17.2</ele>
        <time>2025-06-29T08:47:26Z</time>
      </trkpt>
      <trkpt lat="46.18532" lon="-1.35518">
        <ele>17.2</ele>
        <time>2025-06-29T08:47:27Z</time>
      </trkpt>
      <trkpt lat="46.1853" lon="-1.35517">
        <ele>17.4</ele>
        <time>2025-06-29T08:47:31Z</time>
      </trkpt>
      <trkpt lat="46.18525" lon="-1.3551">
        <ele>17.4</ele>
        <time>2025-06-29T08:47:36Z</time>
      </trkpt>
      <trkpt lat="46.18522" lon="-1.35507">
        <ele>17.4</ele>
        <time>2025-06-29T08:47:38Z</time>
      </trkpt>
      <trkpt lat="46.18521" lon="-1.35505">
        <ele>17.6</ele>
        <time>2025-06-29T08:47:40Z</time>
      </trkpt>
      <trkpt lat="46.18517" lon="-1.35499">
        <ele>17.4</ele>
        <time>2025-06-29T08:47:45Z</time>
      </trkpt>
      <trkpt lat="46.18516" lon="-1.35498">
        <ele>17.4</ele>
        <time>2025-06-29T08:47:46Z</time>
      </trkpt>
      <trkpt lat="46.18515" lon="-1.35495">
        <ele>17.4</ele>
        <time>2025-06-29T08:47:49Z</time>
      </trkpt>
      <trkpt lat="46.18515" lon="-1.35494">
        <ele>17.4</ele>
        <time>2025-06-29T08:47:50Z</time>
      </trkpt>
      <trkpt lat="46.1851" lon="-1.35483">
        <ele>17.6</ele>
        <time>2025-06-29T08:47:56Z</time>
      </trkpt>
      <trkpt lat="46.18509" lon="-1.35481">
        <ele>17.6</ele>
        <time>2025-06-29T08:47:57Z</time>
      </trkpt>
      <trkpt lat="46.18506" lon="-1.35478">
        <ele>17.6</ele>
        <time>2025-06-29T08:48:00Z</time>
      </trkpt>
      <trkpt lat="46.18505" lon="-1.35475">
        <ele>17.6</ele>
        <time>2025-06-29T08:48:02Z</time>
      </trkpt>
      <trkpt lat="46.18501" lon="-1.35471">
        <ele>17.6</ele>
        <time>2025-06-29T08:48:06Z</time>
      </trkpt>
      <trkpt lat="46.18501" lon="-1.35469">
        <ele>17.6</ele>
        <time>2025-06-29T08:48:08Z</time>
      </trkpt>
      <trkpt lat="46.18502" lon="-1.35466">
        <ele>17.4</ele>
        <time>2025-06-29T08:48:10Z</time>
      </trkpt>
      <trkpt lat="46.18502" lon="-1.35463">
        <ele>17</ele>
        <time>2025-06-29T08:48:12Z</time>
      </trkpt>
      <trkpt lat="46.18505" lon="-1.35459">
        <ele>17</ele>
        <time>2025-06-29T08:48:15Z</time>
      </trkpt>
      <trkpt lat="46.18511" lon="-1.35453">
        <ele>17.2</ele>
        <time>2025-06-29T08:48:21Z</time>
      </trkpt>
      <trkpt lat="46.18512" lon="-1.35452">
        <ele>17.2</ele>
        <time>2025-06-29T08:48:22Z</time>
      </trkpt>
      <trkpt lat="46.18513" lon="-1.35451">
        <ele>17.2</ele>
        <time>2025-06-29T08:48:23Z</time>
      </trkpt>
      <trkpt lat="46.18515" lon="-1.35449">
        <ele>17</ele>
        <time>2025-06-29T08:48:25Z</time>
      </trkpt>
      <trkpt lat="46.18517" lon="-1.35447">
        <ele>17</ele>
        <time>2025-06-29T08:48:27Z</time>
      </trkpt>
      <trkpt lat="46.18521" lon="-1.35435">
        <ele>17</ele>
        <time>2025-06-29T08:48:34Z</time>
      </trkpt>
      <trkpt lat="46.18522" lon="-1.35429">
        <ele>17.2</ele>
        <time>2025-06-29T08:48:38Z</time>
      </trkpt>
      <trkpt lat="46.18521" lon="-1.35427">
        <ele>17.4</ele>
        <time>2025-06-29T08:48:40Z</time>
      </trkpt>
      <trkpt lat="46.18524" lon="-1.35422">
        <ele>17</ele>
        <time>2025-06-29T08:48:45Z</time>
      </trkpt>
      <trkpt lat="46.1853" lon="-1.35415">
        <ele>17</ele>
        <time>2025-06-29T08:48:52Z</time>
      </trkpt>
      <trkpt lat="46.18537" lon="-1.35406">
        <ele>16.8</ele>
        <time>2025-06-29T08:48:58Z</time>
      </trkpt>
      <trkpt lat="46.18538" lon="-1.35404">
        <ele>16.8</ele>
        <time>2025-06-29T08:48:59Z</time>
      </trkpt>
      <trkpt lat="46.18538" lon="-1.35402">
        <ele>16.8</ele>
        <time>2025-06-29T08:49:00Z</time>
      </trkpt>
      <trkpt lat="46.18539" lon="-1.35396">
        <ele>16.8</ele>
        <time>2025-06-29T08:49:06Z</time>
      </trkpt>
      <trkpt lat="46.18541" lon="-1.35393">
        <ele>16.8</ele>
        <time>2025-06-29T08:49:08Z</time>
      </trkpt>
      <trkpt lat="46.18544" lon="-1.35389">
        <ele>17</ele>
        <time>2025-06-29T08:49:13Z</time>
      </trkpt>
      <trkpt lat="46.18545" lon="-1.35389">
        <ele>17</ele>
        <time>2025-06-29T08:49:14Z</time>
      </trkpt>
      <trkpt lat="46.18549" lon="-1.35388">
        <ele>17</ele>
        <time>2025-06-29T08:49:17Z</time>
      </trkpt>
      <trkpt lat="46.18553" lon="-1.35384">
        <ele>17</ele>
        <time>2025-06-29T08:49:19Z</time>
      </trkpt>
      <trkpt lat="46.18557" lon="-1.35379">
        <ele>17</ele>
        <time>2025-06-29T08:49:23Z</time>
      </trkpt>
      <trkpt lat="46.18559" lon="-1.35377">
        <ele>17</ele>
        <time>2025-06-29T08:49:25Z</time>
      </trkpt>
      <trkpt lat="46.1856" lon="-1.35376">
        <ele>17</ele>
        <time>2025-06-29T08:49:26Z</time>
      </trkpt>
      <trkpt lat="46.18567" lon="-1.35368">
        <ele>16.8</ele>
        <time>2025-06-29T08:49:32Z</time>
      </trkpt>
      <trkpt lat="46.18572" lon="-1.35359">
        <ele>17</ele>
        <time>2025-06-29T08:49:38Z</time>
      </trkpt>
      <trkpt lat="46.18573" lon="-1.35356">
        <ele>17</ele>
        <time>2025-06-29T08:49:40Z</time>
      </trkpt>
      <trkpt lat="46.18575" lon="-1.35352">
        <ele>16.8</ele>
        <time>2025-06-29T08:49:44Z</time>
      </trkpt>
      <trkpt lat="46.18576" lon="-1.35351">
        <ele>16.8</ele>
        <time>2025-06-29T08:49:45Z</time>
      </trkpt>
      <trkpt lat="46.18578" lon="-1.35349">
        <ele>16.8</ele>
        <time>2025-06-29T08:49:47Z</time>
      </trkpt>
      <trkpt lat="46.18582" lon="-1.35348">
        <ele>16.8</ele>
        <time>2025-06-29T08:49:49Z</time>
      </trkpt>
      <trkpt lat="46.18584" lon="-1.35346">
        <ele>16.8</ele>
        <time>2025-06-29T08:49:51Z</time>
      </trkpt>
      <trkpt lat="46.18588" lon="-1.35339">
        <ele>16.8</ele>
        <time>2025-06-29T08:49:56Z</time>
      </trkpt>
      <trkpt lat="46.1859" lon="-1.35337">
        <ele>16.8</ele>
        <time>2025-06-29T08:49:58Z</time>
      </trkpt>
      <trkpt lat="46.18591" lon="-1.35335">
        <ele>17</ele>
        <time>2025-06-29T08:49:59Z</time>
      </trkpt>
      <trkpt lat="46.18592" lon="-1.35333">
        <ele>17</ele>
        <time>2025-06-29T08:50:01Z</time>
      </trkpt>
      <trkpt lat="46.18593" lon="-1.3533">
        <ele>17</ele>
        <time>2025-06-29T08:50:03Z</time>
      </trkpt>
      <trkpt lat="46.18601" lon="-1.35322">
        <ele>17</ele>
        <time>2025-06-29T08:50:11Z</time>
      </trkpt>
      <trkpt lat="46.18604" lon="-1.3532">
        <ele>17</ele>
        <time>2025-06-29T08:50:13Z</time>
      </trkpt>
      <trkpt lat="46.18609" lon="-1.35316">
        <ele>17.2</ele>
        <time>2025-06-29T08:50:16Z</time>
      </trkpt>
      <trkpt lat="46.18611" lon="-1.35316">
        <ele>17.2</ele>
        <time>2025-06-29T08:50:17Z</time>
      </trkpt>
      <trkpt lat="46.18624" lon="-1.35308">
        <ele>17</ele>
        <time>2025-06-29T08:50:25Z</time>
      </trkpt>
      <trkpt lat="46.18628" lon="-1.35301">
        <ele>17</ele>
        <time>2025-06-29T08:50:31Z</time>
      </trkpt>
      <trkpt lat="46.18635" lon="-1.35297">
        <ele>17.2</ele>
        <time>2025-06-29T08:50:37Z</time>
      </trkpt>
      <trkpt lat="46.18637" lon="-1.35294">
        <ele>17.4</ele>
        <time>2025-06-29T08:50:39Z</time>
      </trkpt>
      <trkpt lat="46.18637" lon="-1.35292">
        <ele>17.4</ele>
        <time>2025-06-29T08:50:40Z</time>
      </trkpt>
      <trkpt lat="46.18638" lon="-1.35287">
        <ele>17.4</ele>
        <time>2025-06-29T08:50:43Z</time>
      </trkpt>
      <trkpt lat="46.18641" lon="-1.35281">
        <ele>17.6</ele>
        <time>2025-06-29T08:50:47Z</time>
      </trkpt>
      <trkpt lat="46.18641" lon="-1.35279">
        <ele>17.6</ele>
        <time>2025-06-29T08:50:48Z</time>
      </trkpt>
      <trkpt lat="46.18642" lon="-1.35276">
        <ele>17.6</ele>
        <time>2025-06-29T08:50:50Z</time>
      </trkpt>
      <trkpt lat="46.18643" lon="-1.35275">
        <ele>17.4</ele>
        <time>2025-06-29T08:50:51Z</time>
      </trkpt>
      <trkpt lat="46.18645" lon="-1.35273">
        <ele>17.4</ele>
        <time>2025-06-29T08:50:53Z</time>
      </trkpt>
      <trkpt lat="46.18646" lon="-1.35264">
        <ele>17.4</ele>
        <time>2025-06-29T08:50:57Z</time>
      </trkpt>
      <trkpt lat="46.18645" lon="-1.35259">
        <ele>17.4</ele>
        <time>2025-06-29T08:50:59Z</time>
      </trkpt>
      <trkpt lat="46.18635" lon="-1.35253">
        <ele>17.4</ele>
        <time>2025-06-29T08:51:03Z</time>
      </trkpt>
      <trkpt lat="46.18634" lon="-1.35251">
        <ele>17.4</ele>
        <time>2025-06-29T08:51:04Z</time>
      </trkpt>
      <trkpt lat="46.18631" lon="-1.35247">
        <ele>17.6</ele>
        <time>2025-06-29T08:51:07Z</time>
      </trkpt>
      <trkpt lat="46.1863" lon="-1.35247">
        <ele>17.6</ele>
        <time>2025-06-29T08:51:08Z</time>
      </trkpt>
      <trkpt lat="46.18628" lon="-1.35246">
        <ele>17.6</ele>
        <time>2025-06-29T08:51:10Z</time>
      </trkpt>
      <trkpt lat="46.18626" lon="-1.35243">
        <ele>17.4</ele>
        <time>2025-06-29T08:51:13Z</time>
      </trkpt>
      <trkpt lat="46.18623" lon="-1.35238">
        <ele>17.4</ele>
        <time>2025-06-29T08:51:17Z</time>
      </trkpt>
      <trkpt lat="46.18621" lon="-1.35235">
        <ele>17.2</ele>
        <time>2025-06-29T08:51:19Z</time>
      </trkpt>
      <trkpt lat="46.18619" lon="-1.35234">
        <ele>17.2</ele>
        <time>2025-06-29T08:51:21Z</time>
      </trkpt>
      <trkpt lat="46.18618" lon="-1.35233">
        <ele>17.2</ele>
        <time>2025-06-29T08:51:22Z</time>
      </trkpt>
      <trkpt lat="46.18617" lon="-1.35231">
        <ele>17.2</ele>
        <time>2025-06-29T08:51:25Z</time>
      </trkpt>
      <trkpt lat="46.18617" lon="-1.3523">
        <ele>17.2</ele>
        <time>2025-06-29T08:51:26Z</time>
      </trkpt>
      <trkpt lat="46.18616" lon="-1.3523">
        <ele>17.2</ele>
        <time>2025-06-29T08:51:27Z</time>
      </trkpt>
      <trkpt lat="46.18611" lon="-1.35225">
        <ele>17.2</ele>
        <time>2025-06-29T08:51:32Z</time>
      </trkpt>
      <trkpt lat="46.18609" lon="-1.35222">
        <ele>17.2</ele>
        <time>2025-06-29T08:51:36Z</time>
      </trkpt>
      <trkpt lat="46.18608" lon="-1.3522">
        <ele>17.2</ele>
        <time>2025-06-29T08:51:37Z</time>
      </trkpt>
      <trkpt lat="46.18605" lon="-1.35215">
        <ele>17.6</ele>
        <time>2025-06-29T08:51:41Z</time>
      </trkpt>
      <trkpt lat="46.18604" lon="-1.35214">
        <ele>17.6</ele>
        <time>2025-06-29T08:51:42Z</time>
      </trkpt>
      <trkpt lat="46.18599" lon="-1.3521">
        <ele>17.4</ele>
        <time>2025-06-29T08:51:45Z</time>
      </trkpt>
      <trkpt lat="46.18598" lon="-1.35207">
        <ele>17.4</ele>
        <time>2025-06-29T08:51:47Z</time>
      </trkpt>
      <trkpt lat="46.18597" lon="-1.35205">
        <ele>17.4</ele>
        <time>2025-06-29T08:51:48Z</time>
      </trkpt>
      <trkpt lat="46.18593" lon="-1.35198">
        <ele>17.4</ele>
        <time>2025-06-29T08:51:53Z</time>
      </trkpt>
      <trkpt lat="46.18591" lon="-1.35195">
        <ele>17.6</ele>
        <time>2025-06-29T08:51:56Z</time>
      </trkpt>
      <trkpt lat="46.1859" lon="-1.35194">
        <ele>17.6</ele>
        <time>2025-06-29T08:51:57Z</time>
      </trkpt>
      <trkpt lat="46.18589" lon="-1.35191">
        <ele>17.6</ele>
        <time>2025-06-29T08:51:59Z</time>
      </trkpt>
      <trkpt lat="46.18589" lon="-1.35188">
        <ele>17.4</ele>
        <time>2025-06-29T08:52:01Z</time>
      </trkpt>
      <trkpt lat="46.18583" lon="-1.35177">
        <ele>17.2</ele>
        <time>2025-06-29T08:52:08Z</time>
      </trkpt>
      <trkpt lat="46.18582" lon="-1.35174">
        <ele>17.2</ele>
        <time>2025-06-29T08:52:10Z</time>
      </trkpt>
      <trkpt lat="46.18585" lon="-1.35171">
        <ele>17.2</ele>
        <time>2025-06-29T08:52:13Z</time>
      </trkpt>
      <trkpt lat="46.18594" lon="-1.35159">
        <ele>17.4</ele>
        <time>2025-06-29T08:52:21Z</time>
      </trkpt>
      <trkpt lat="46.18596" lon="-1.35158">
        <ele>17.4</ele>
        <time>2025-06-29T08:52:22Z</time>
      </trkpt>
      <trkpt lat="46.18599" lon="-1.35154">
        <ele>17.4</ele>
        <time>2025-06-29T08:52:26Z</time>
      </trkpt>
      <trkpt lat="46.18601" lon="-1.3515">
        <ele>17.6</ele>
        <time>2025-06-29T08:52:29Z</time>
      </trkpt>
      <trkpt lat="46.18603" lon="-1.35145">
        <ele>17.6</ele>
        <time>2025-06-29T08:52:32Z</time>
      </trkpt>
      <trkpt lat="46.18605" lon="-1.35142">
        <ele>17.4</ele>
        <time>2025-06-29T08:52:34Z</time>
      </trkpt>
      <trkpt lat="46.18608" lon="-1.35139">
        <ele>17.4</ele>
        <time>2025-06-29T08:52:37Z</time>
      </trkpt>
      <trkpt lat="46.18613" lon="-1.35132">
        <ele>17.6</ele>
        <time>2025-06-29T08:52:42Z</time>
      </trkpt>
      <trkpt lat="46.18614" lon="-1.3513">
        <ele>17.6</ele>
        <time>2025-06-29T08:52:43Z</time>
      </trkpt>
      <trkpt lat="46.1862" lon="-1.35123">
        <ele>17.8</ele>
        <time>2025-06-29T08:52:49Z</time>
      </trkpt>
      <trkpt lat="46.18623" lon="-1.3512">
        <ele>17.8</ele>
        <time>2025-06-29T08:52:52Z</time>
      </trkpt>
      <trkpt lat="46.18625" lon="-1.35118">
        <ele>17.8</ele>
        <time>2025-06-29T08:52:54Z</time>
      </trkpt>
      <trkpt lat="46.18632" lon="-1.35108">
        <ele>18</ele>
        <time>2025-06-29T08:53:01Z</time>
      </trkpt>
      <trkpt lat="46.18635" lon="-1.35108">
        <ele>18</ele>
        <time>2025-06-29T08:53:03Z</time>
      </trkpt>
      <trkpt lat="46.18641" lon="-1.35104">
        <ele>18.2</ele>
        <time>2025-06-29T08:53:07Z</time>
      </trkpt>
      <trkpt lat="46.1865" lon="-1.35099">
        <ele>18.6</ele>
        <time>2025-06-29T08:53:12Z</time>
      </trkpt>
      <trkpt lat="46.18651" lon="-1.35097">
        <ele>18.6</ele>
        <time>2025-06-29T08:53:13Z</time>
      </trkpt>
      <trkpt lat="46.18656" lon="-1.35091">
        <ele>18.2</ele>
        <time>2025-06-29T08:53:19Z</time>
      </trkpt>
      <trkpt lat="46.18658" lon="-1.35087">
        <ele>18</ele>
        <time>2025-06-29T08:53:23Z</time>
      </trkpt>
      <trkpt lat="46.18661" lon="-1.35085">
        <ele>18</ele>
        <time>2025-06-29T08:53:25Z</time>
      </trkpt>
      <trkpt lat="46.18663" lon="-1.35081">
        <ele>18</ele>
        <time>2025-06-29T08:53:27Z</time>
      </trkpt>
      <trkpt lat="46.18663" lon="-1.35079">
        <ele>18</ele>
        <time>2025-06-29T08:53:28Z</time>
      </trkpt>
      <trkpt lat="46.18666" lon="-1.35077">
        <ele>18</ele>
        <time>2025-06-29T08:53:31Z</time>
      </trkpt>
      <trkpt lat="46.1867" lon="-1.35072">
        <ele>18.4</ele>
        <time>2025-06-29T08:53:34Z</time>
      </trkpt>
      <trkpt lat="46.18679" lon="-1.35061">
        <ele>18.4</ele>
        <time>2025-06-29T08:53:41Z</time>
      </trkpt>
      <trkpt lat="46.18683" lon="-1.35057">
        <ele>18.4</ele>
        <time>2025-06-29T08:53:45Z</time>
      </trkpt>
      <trkpt lat="46.18684" lon="-1.35054">
        <ele>18.4</ele>
        <time>2025-06-29T08:53:47Z</time>
      </trkpt>
      <trkpt lat="46.18685" lon="-1.35053">
        <ele>18.4</ele>
        <time>2025-06-29T08:53:48Z</time>
      </trkpt>
      <trkpt lat="46.18688" lon="-1.3505">
        <ele>18.4</ele>
        <time>2025-06-29T08:53:50Z</time>
      </trkpt>
      <trkpt lat="46.18689" lon="-1.35048">
        <ele>18.6</ele>
        <time>2025-06-29T08:53:51Z</time>
      </trkpt>
      <trkpt lat="46.18695" lon="-1.35041">
        <ele>18.8</ele>
        <time>2025-06-29T08:53:57Z</time>
      </trkpt>
      <trkpt lat="46.18696" lon="-1.35041">
        <ele>18.8</ele>
        <time>2025-06-29T08:53:58Z</time>
      </trkpt>
      <trkpt lat="46.18697" lon="-1.35038">
        <ele>18.8</ele>
        <time>2025-06-29T08:54:00Z</time>
      </trkpt>
      <trkpt lat="46.187" lon="-1.35034">
        <ele>18.6</ele>
        <time>2025-06-29T08:54:03Z</time>
      </trkpt>
      <trkpt lat="46.187" lon="-1.35032">
        <ele>18.6</ele>
        <time>2025-06-29T08:54:04Z</time>
      </trkpt>
      <trkpt lat="46.18698" lon="-1.35019">
        <ele>18.6</ele>
        <time>2025-06-29T08:54:12Z</time>
      </trkpt>
      <trkpt lat="46.18695" lon="-1.35014">
        <ele>18.6</ele>
        <time>2025-06-29T08:54:15Z</time>
      </trkpt>
      <trkpt lat="46.18694" lon="-1.35012">
        <ele>18.6</ele>
        <time>2025-06-29T08:54:17Z</time>
      </trkpt>
      <trkpt lat="46.18692" lon="-1.35011">
        <ele>18.6</ele>
        <time>2025-06-29T08:54:18Z</time>
      </trkpt>
      <trkpt lat="46.18692" lon="-1.3501">
        <ele>18.8</ele>
        <time>2025-06-29T08:54:19Z</time>
      </trkpt>
      <trkpt lat="46.1869" lon="-1.34998">
        <ele>18.8</ele>
        <time>2025-06-29T08:54:24Z</time>
      </trkpt>
      <trkpt lat="46.1869" lon="-1.34993">
        <ele>18.8</ele>
        <time>2025-06-29T08:54:27Z</time>
      </trkpt>
      <trkpt lat="46.18689" lon="-1.3499">
        <ele>18.6</ele>
        <time>2025-06-29T08:54:30Z</time>
      </trkpt>
      <trkpt lat="46.18684" lon="-1.3498">
        <ele>18.6</ele>
        <time>2025-06-29T08:54:36Z</time>
      </trkpt>
      <trkpt lat="46.18684" lon="-1.34978">
        <ele>18.6</ele>
        <time>2025-06-29T08:54:37Z</time>
      </trkpt>
      <trkpt lat="46.18681" lon="-1.34969">
        <ele>18.6</ele>
        <time>2025-06-29T08:54:43Z</time>
      </trkpt>
      <trkpt lat="46.18681" lon="-1.34966">
        <ele>18.6</ele>
        <time>2025-06-29T08:54:45Z</time>
      </trkpt>
      <trkpt lat="46.18682" lon="-1.34962">
        <ele>18.8</ele>
        <time>2025-06-29T08:54:48Z</time>
      </trkpt>
      <trkpt lat="46.18683" lon="-1.34954">
        <ele>18.8</ele>
        <time>2025-06-29T08:54:52Z</time>
      </trkpt>
      <trkpt lat="46.18684" lon="-1.34952">
        <ele>18.6</ele>
        <time>2025-06-29T08:54:53Z</time>
      </trkpt>
      <trkpt lat="46.18686" lon="-1.34946">
        <ele>18.6</ele>
        <time>2025-06-29T08:54:56Z</time>
      </trkpt>
      <trkpt lat="46.18686" lon="-1.34945">
        <ele>18.6</ele>
        <time>2025-06-29T08:54:57Z</time>
      </trkpt>
      <trkpt lat="46.18687" lon="-1.34943">
        <ele>18.6</ele>
        <time>2025-06-29T08:54:58Z</time>
      </trkpt>
      <trkpt lat="46.18687" lon="-1.3494">
        <ele>18.6</ele>
        <time>2025-06-29T08:55:00Z</time>
      </trkpt>
      <trkpt lat="46.18687" lon="-1.34939">
        <ele>18.6</ele>
        <time>2025-06-29T08:55:01Z</time>
      </trkpt>
      <trkpt lat="46.18687" lon="-1.34935">
        <ele>18.6</ele>
        <time>2025-06-29T08:55:03Z</time>
      </trkpt>
      <trkpt lat="46.18687" lon="-1.34932">
        <ele>18.8</ele>
        <time>2025-06-29T08:55:05Z</time>
      </trkpt>
      <trkpt lat="46.18686" lon="-1.3493">
        <ele>18.8</ele>
        <time>2025-06-29T08:55:06Z</time>
      </trkpt>
      <trkpt lat="46.18685" lon="-1.34929">
        <ele>18.6</ele>
        <time>2025-06-29T08:55:07Z</time>
      </trkpt>
      <trkpt lat="46.18683" lon="-1.34919">
        <ele>18.6</ele>
        <time>2025-06-29T08:55:12Z</time>
      </trkpt>
      <trkpt lat="46.18682" lon="-1.34913">
        <ele>18.4</ele>
        <time>2025-06-29T08:55:15Z</time>
      </trkpt>
      <trkpt lat="46.18683" lon="-1.34909">
        <ele>18.4</ele>
        <time>2025-06-29T08:55:17Z</time>
      </trkpt>
      <trkpt lat="46.18683" lon="-1.34907">
        <ele>18.4</ele>
        <time>2025-06-29T08:55:18Z</time>
      </trkpt>
      <trkpt lat="46.18682" lon="-1.34906">
        <ele>18.4</ele>
        <time>2025-06-29T08:55:19Z</time>
      </trkpt>
      <trkpt lat="46.18684" lon="-1.34901">
        <ele>18.4</ele>
        <time>2025-06-29T08:55:22Z</time>
      </trkpt>
      <trkpt lat="46.18686" lon="-1.34896">
        <ele>18.4</ele>
        <time>2025-06-29T08:55:25Z</time>
      </trkpt>
      <trkpt lat="46.18687" lon="-1.34892">
        <ele>18.4</ele>
        <time>2025-06-29T08:55:27Z</time>
      </trkpt>
      <trkpt lat="46.18688" lon="-1.34888">
        <ele>18.4</ele>
        <time>2025-06-29T08:55:29Z</time>
      </trkpt>
      <trkpt lat="46.18687" lon="-1.34883">
        <ele>18.4</ele>
        <time>2025-06-29T08:55:31Z</time>
      </trkpt>
      <trkpt lat="46.18687" lon="-1.3488">
        <ele>18.4</ele>
        <time>2025-06-29T08:55:33Z</time>
      </trkpt>
      <trkpt lat="46.18687" lon="-1.34874">
        <ele>18.2</ele>
        <time>2025-06-29T08:55:36Z</time>
      </trkpt>
      <trkpt lat="46.18685" lon="-1.34868">
        <ele>18.2</ele>
        <time>2025-06-29T08:55:41Z</time>
      </trkpt>
      <trkpt lat="46.18683" lon="-1.34866">
        <ele>18.2</ele>
        <time>2025-06-29T08:55:42Z</time>
      </trkpt>
      <trkpt lat="46.18682" lon="-1.34866">
        <ele>18.2</ele>
        <time>2025-06-29T08:55:43Z</time>
      </trkpt>
      <trkpt lat="46.18679" lon="-1.34862">
        <ele>18.2</ele>
        <time>2025-06-29T08:55:46Z</time>
      </trkpt>
      <trkpt lat="46.18679" lon="-1.34856">
        <ele>18.4</ele>
        <time>2025-06-29T08:55:49Z</time>
      </trkpt>
      <trkpt lat="46.18677" lon="-1.3485">
        <ele>18.2</ele>
        <time>2025-06-29T08:55:53Z</time>
      </trkpt>
      <trkpt lat="46.18674" lon="-1.34847">
        <ele>18.2</ele>
        <time>2025-06-29T08:55:57Z</time>
      </trkpt>
      <trkpt lat="46.18673" lon="-1.34843">
        <ele>18.2</ele>
        <time>2025-06-29T08:55:59Z</time>
      </trkpt>
      <trkpt lat="46.18673" lon="-1.34835">
        <ele>18.4</ele>
        <time>2025-06-29T08:56:03Z</time>
      </trkpt>
      <trkpt lat="46.18673" lon="-1.34834">
        <ele>18.4</ele>
        <time>2025-06-29T08:56:04Z</time>
      </trkpt>
      <trkpt lat="46.18674" lon="-1.34828">
        <ele>18.4</ele>
        <time>2025-06-29T08:56:08Z</time>
      </trkpt>
      <trkpt lat="46.18673" lon="-1.34818">
        <ele>18.4</ele>
        <time>2025-06-29T08:56:14Z</time>
      </trkpt>
      <trkpt lat="46.18671" lon="-1.34817">
        <ele>18.4</ele>
        <time>2025-06-29T08:56:15Z</time>
      </trkpt>
      <trkpt lat="46.18669" lon="-1.34813">
        <ele>18.6</ele>
        <time>2025-06-29T08:56:17Z</time>
      </trkpt>
      <trkpt lat="46.1867" lon="-1.34804">
        <ele>18.6</ele>
        <time>2025-06-29T08:56:20Z</time>
      </trkpt>
      <trkpt lat="46.18671" lon="-1.348">
        <ele>18.6</ele>
        <time>2025-06-29T08:56:22Z</time>
      </trkpt>
      <trkpt lat="46.18671" lon="-1.34799">
        <ele>18.6</ele>
        <time>2025-06-29T08:56:23Z</time>
      </trkpt>
      <trkpt lat="46.1867" lon="-1.3479">
        <ele>18.6</ele>
        <time>2025-06-29T08:56:27Z</time>
      </trkpt>
      <trkpt lat="46.18669" lon="-1.34787">
        <ele>18.6</ele>
        <time>2025-06-29T08:56:29Z</time>
      </trkpt>
      <trkpt lat="46.18669" lon="-1.34782">
        <ele>18.6</ele>
        <time>2025-06-29T08:56:31Z</time>
      </trkpt>
      <trkpt lat="46.18665" lon="-1.34774">
        <ele>18.6</ele>
        <time>2025-06-29T08:56:35Z</time>
      </trkpt>
      <trkpt lat="46.18664" lon="-1.34773">
        <ele>18.6</ele>
        <time>2025-06-29T08:56:36Z</time>
      </trkpt>
      <trkpt lat="46.18663" lon="-1.34769">
        <ele>18.8</ele>
        <time>2025-06-29T08:56:39Z</time>
      </trkpt>
      <trkpt lat="46.18661" lon="-1.34765">
        <ele>18.8</ele>
        <time>2025-06-29T08:56:42Z</time>
      </trkpt>
      <trkpt lat="46.18659" lon="-1.34761">
        <ele>19</ele>
        <time>2025-06-29T08:56:44Z</time>
      </trkpt>
      <trkpt lat="46.18659" lon="-1.34759">
        <ele>19</ele>
        <time>2025-06-29T08:56:45Z</time>
      </trkpt>
      <trkpt lat="46.18661" lon="-1.34754">
        <ele>19.2</ele>
        <time>2025-06-29T08:56:49Z</time>
      </trkpt>
      <trkpt lat="46.18663" lon="-1.34751">
        <ele>19.2</ele>
        <time>2025-06-29T08:56:54Z</time>
      </trkpt>
      <trkpt lat="46.18663" lon="-1.34749">
        <ele>18.8</ele>
        <time>2025-06-29T08:56:55Z</time>
      </trkpt>
      <trkpt lat="46.18663" lon="-1.34747">
        <ele>18.8</ele>
        <time>2025-06-29T08:56:56Z</time>
      </trkpt>
      <trkpt lat="46.18662" lon="-1.34742">
        <ele>18.6</ele>
        <time>2025-06-29T08:56:59Z</time>
      </trkpt>
      <trkpt lat="46.18662" lon="-1.3473">
        <ele>18.8</ele>
        <time>2025-06-29T08:57:05Z</time>
      </trkpt>
      <trkpt lat="46.18663" lon="-1.34727">
        <ele>18.8</ele>
        <time>2025-06-29T08:57:07Z</time>
      </trkpt>
      <trkpt lat="46.18663" lon="-1.34726">
        <ele>18.8</ele>
        <time>2025-06-29T08:57:08Z</time>
      </trkpt>
      <trkpt lat="46.18663" lon="-1.34721">
        <ele>18.8</ele>
        <time>2025-06-29T08:57:10Z</time>
      </trkpt>
      <trkpt lat="46.18662" lon="-1.34716">
        <ele>18.6</ele>
        <time>2025-06-29T08:57:12Z</time>
      </trkpt>
      <trkpt lat="46.18662" lon="-1.34712">
        <ele>18.4</ele>
        <time>2025-06-29T08:57:14Z</time>
      </trkpt>
      <trkpt lat="46.18662" lon="-1.34707">
        <ele>18.2</ele>
        <time>2025-06-29T08:57:17Z</time>
      </trkpt>
      <trkpt lat="46.18663" lon="-1.34707">
        <ele>18.2</ele>
        <time>2025-06-29T08:57:18Z</time>
      </trkpt>
      <trkpt lat="46.18664" lon="-1.34707">
        <ele>18.2</ele>
        <time>2025-06-29T08:57:19Z</time>
      </trkpt>
      <trkpt lat="46.18666" lon="-1.34699">
        <ele>18.2</ele>
        <time>2025-06-29T08:57:23Z</time>
      </trkpt>
      <trkpt lat="46.18666" lon="-1.34697">
        <ele>18.2</ele>
        <time>2025-06-29T08:57:24Z</time>
      </trkpt>
      <trkpt lat="46.18668" lon="-1.3469">
        <ele>18.2</ele>
        <time>2025-06-29T08:57:27Z</time>
      </trkpt>
      <trkpt lat="46.18669" lon="-1.34686">
        <ele>18.2</ele>
        <time>2025-06-29T08:57:29Z</time>
      </trkpt>
      <trkpt lat="46.18671" lon="-1.34683">
        <ele>18.2</ele>
        <time>2025-06-29T08:57:31Z</time>
      </trkpt>
      <trkpt lat="46.1867" lon="-1.34682">
        <ele>18.2</ele>
        <time>2025-06-29T08:57:32Z</time>
      </trkpt>
      <trkpt lat="46.18668" lon="-1.34677">
        <ele>18.2</ele>
        <time>2025-06-29T08:57:35Z</time>
      </trkpt>
      <trkpt lat="46.1867" lon="-1.34673">
        <ele>18.2</ele>
        <time>2025-06-29T08:57:37Z</time>
      </trkpt>
      <trkpt lat="46.1867" lon="-1.3467">
        <ele>18.2</ele>
        <time>2025-06-29T08:57:38Z</time>
      </trkpt>
      <trkpt lat="46.18673" lon="-1.34663">
        <ele>18.2</ele>
        <time>2025-06-29T08:57:42Z</time>
      </trkpt>
      <trkpt lat="46.18675" lon="-1.34658">
        <ele>18.4</ele>
        <time>2025-06-29T08:57:44Z</time>
      </trkpt>
      <trkpt lat="46.18677" lon="-1.3465">
        <ele>18.4</ele>
        <time>2025-06-29T08:57:48Z</time>
      </trkpt>
      <trkpt lat="46.18678" lon="-1.34647">
        <ele>18.2</ele>
        <time>2025-06-29T08:57:50Z</time>
      </trkpt>
      <trkpt lat="46.18679" lon="-1.34644">
        <ele>18.2</ele>
        <time>2025-06-29T08:57:52Z</time>
      </trkpt>
      <trkpt lat="46.18681" lon="-1.34638">
        <ele>18.2</ele>
        <time>2025-06-29T08:57:56Z</time>
      </trkpt>
      <trkpt lat="46.18684" lon="-1.34628">
        <ele>18.2</ele>
        <time>2025-06-29T08:58:01Z</time>
      </trkpt>
      <trkpt lat="46.18684" lon="-1.34627">
        <ele>18.2</ele>
        <time>2025-06-29T08:58:02Z</time>
      </trkpt>
      <trkpt lat="46.18683" lon="-1.34622">
        <ele>18.4</ele>
        <time>2025-06-29T08:58:05Z</time>
      </trkpt>
      <trkpt lat="46.18684" lon="-1.3462">
        <ele>18.4</ele>
        <time>2025-06-29T08:58:06Z</time>
      </trkpt>
      <trkpt lat="46.18686" lon="-1.34609">
        <ele>18.6</ele>
        <time>2025-06-29T08:58:11Z</time>
      </trkpt>
      <trkpt lat="46.18688" lon="-1.34602">
        <ele>18.8</ele>
        <time>2025-06-29T08:58:15Z</time>
      </trkpt>
      <trkpt lat="46.18689" lon="-1.34599">
        <ele>18.8</ele>
        <time>2025-06-29T08:58:17Z</time>
      </trkpt>
      <trkpt lat="46.18689" lon="-1.34598">
        <ele>18.8</ele>
        <time>2025-06-29T08:58:18Z</time>
      </trkpt>
      <trkpt lat="46.18694" lon="-1.34591">
        <ele>18.8</ele>
        <time>2025-06-29T08:58:21Z</time>
      </trkpt>
      <trkpt lat="46.18694" lon="-1.34586">
        <ele>19</ele>
        <time>2025-06-29T08:58:24Z</time>
      </trkpt>
      <trkpt lat="46.18695" lon="-1.34584">
        <ele>19</ele>
        <time>2025-06-29T08:58:25Z</time>
      </trkpt>
      <trkpt lat="46.18698" lon="-1.34578">
        <ele>19</ele>
        <time>2025-06-29T08:58:28Z</time>
      </trkpt>
      <trkpt lat="46.18699" lon="-1.34577">
        <ele>19</ele>
        <time>2025-06-29T08:58:29Z</time>
      </trkpt>
      <trkpt lat="46.18699" lon="-1.34575">
        <ele>18.8</ele>
        <time>2025-06-29T08:58:30Z</time>
      </trkpt>
      <trkpt lat="46.18699" lon="-1.34572">
        <ele>18.8</ele>
        <time>2025-06-29T08:58:32Z</time>
      </trkpt>
      <trkpt lat="46.187" lon="-1.34569">
        <ele>18.6</ele>
        <time>2025-06-29T08:58:34Z</time>
      </trkpt>
      <trkpt lat="46.18702" lon="-1.34565">
        <ele>18.6</ele>
        <time>2025-06-29T08:58:37Z</time>
      </trkpt>
      <trkpt lat="46.18701" lon="-1.34562">
        <ele>18.6</ele>
        <time>2025-06-29T08:58:39Z</time>
      </trkpt>
      <trkpt lat="46.18702" lon="-1.34561">
        <ele>18.4</ele>
        <time>2025-06-29T08:58:40Z</time>
      </trkpt>
      <trkpt lat="46.18706" lon="-1.34554">
        <ele>18.4</ele>
        <time>2025-06-29T08:58:44Z</time>
      </trkpt>
      <trkpt lat="46.18707" lon="-1.34553">
        <ele>18.4</ele>
        <time>2025-06-29T08:58:45Z</time>
      </trkpt>
      <trkpt lat="46.18709" lon="-1.3455">
        <ele>18.4</ele>
        <time>2025-06-29T08:58:47Z</time>
      </trkpt>
      <trkpt lat="46.18708" lon="-1.34546">
        <ele>18.4</ele>
        <time>2025-06-29T08:58:49Z</time>
      </trkpt>
      <trkpt lat="46.18708" lon="-1.34545">
        <ele>18.4</ele>
        <time>2025-06-29T08:58:50Z</time>
      </trkpt>
      <trkpt lat="46.18708" lon="-1.34542">
        <ele>18.4</ele>
        <time>2025-06-29T08:58:52Z</time>
      </trkpt>
      <trkpt lat="46.18708" lon="-1.34539">
        <ele>18.4</ele>
        <time>2025-06-29T08:58:53Z</time>
      </trkpt>
      <trkpt lat="46.18708" lon="-1.34534">
        <ele>18.4</ele>
        <time>2025-06-29T08:58:55Z</time>
      </trkpt>
      <trkpt lat="46.18708" lon="-1.34532">
        <ele>18.4</ele>
        <time>2025-06-29T08:58:56Z</time>
      </trkpt>
      <trkpt lat="46.18706" lon="-1.34525">
        <ele>18.4</ele>
        <time>2025-06-29T08:58:58Z</time>
      </trkpt>
      <trkpt lat="46.18706" lon="-1.34517">
        <ele>18.4</ele>
        <time>2025-06-29T08:59:01Z</time>
      </trkpt>
      <trkpt lat="46.18705" lon="-1.34514">
        <ele>18.4</ele>
        <time>2025-06-29T08:59:03Z</time>
      </trkpt>
      <trkpt lat="46.18704" lon="-1.34511">
        <ele>18.4</ele>
        <time>2025-06-29T08:59:05Z</time>
      </trkpt>
      <trkpt lat="46.18704" lon="-1.3451">
        <ele>18.4</ele>
        <time>2025-06-29T08:59:06Z</time>
      </trkpt>
      <trkpt lat="46.18708" lon="-1.34499">
        <ele>18.6</ele>
        <time>2025-06-29T08:59:11Z</time>
      </trkpt>
      <trkpt lat="46.1871" lon="-1.34492">
        <ele>18.8</ele>
        <time>2025-06-29T08:59:15Z</time>
      </trkpt>
      <trkpt lat="46.18711" lon="-1.34489">
        <ele>18.8</ele>
        <time>2025-06-29T08:59:17Z</time>
      </trkpt>
      <trkpt lat="46.18712" lon="-1.34487">
        <ele>18.8</ele>
        <time>2025-06-29T08:59:18Z</time>
      </trkpt>
      <trkpt lat="46.18714" lon="-1.34484">
        <ele>18.8</ele>
        <time>2025-06-29T08:59:19Z</time>
      </trkpt>
      <trkpt lat="46.18719" lon="-1.34475">
        <ele>18.2</ele>
        <time>2025-06-29T08:59:24Z</time>
      </trkpt>
      <trkpt lat="46.18725" lon="-1.34468">
        <ele>18.2</ele>
        <time>2025-06-29T08:59:31Z</time>
      </trkpt>
      <trkpt lat="46.1873" lon="-1.3446">
        <ele>18.4</ele>
        <time>2025-06-29T08:59:37Z</time>
      </trkpt>
      <trkpt lat="46.1873" lon="-1.34459">
        <ele>18.4</ele>
        <time>2025-06-29T08:59:38Z</time>
      </trkpt>
      <trkpt lat="46.18731" lon="-1.34457">
        <ele>18.4</ele>
        <time>2025-06-29T08:59:40Z</time>
      </trkpt>
      <trkpt lat="46.1873" lon="-1.34454">
        <ele>18.4</ele>
        <time>2025-06-29T08:59:42Z</time>
      </trkpt>
      <trkpt lat="46.18731" lon="-1.34451">
        <ele>18.4</ele>
        <time>2025-06-29T08:59:45Z</time>
      </trkpt>
      <trkpt lat="46.18732" lon="-1.34448">
        <ele>18.6</ele>
        <time>2025-06-29T08:59:47Z</time>
      </trkpt>
      <trkpt lat="46.18734" lon="-1.34444">
        <ele>18.4</ele>
        <time>2025-06-29T08:59:50Z</time>
      </trkpt>
      <trkpt lat="46.18736" lon="-1.34443">
        <ele>18.4</ele>
        <time>2025-06-29T08:59:51Z</time>
      </trkpt>
      <trkpt lat="46.18737" lon="-1.34442">
        <ele>18.2</ele>
        <time>2025-06-29T08:59:52Z</time>
      </trkpt>
      <trkpt lat="46.18739" lon="-1.34439">
        <ele>18.2</ele>
        <time>2025-06-29T08:59:54Z</time>
      </trkpt>
      <trkpt lat="46.18742" lon="-1.34434">
        <ele>18.4</ele>
        <time>2025-06-29T08:59:58Z</time>
      </trkpt>
      <trkpt lat="46.18743" lon="-1.34429">
        <ele>18.2</ele>
        <time>2025-06-29T09:00:01Z</time>
      </trkpt>
      <trkpt lat="46.18747" lon="-1.34423">
        <ele>18.2</ele>
        <time>2025-06-29T09:00:05Z</time>
      </trkpt>
      <trkpt lat="46.18748" lon="-1.34421">
        <ele>18.4</ele>
        <time>2025-06-29T09:00:06Z</time>
      </trkpt>
      <trkpt lat="46.18748" lon="-1.3442">
        <ele>18.4</ele>
        <time>2025-06-29T09:00:08Z</time>
      </trkpt>
      <trkpt lat="46.18748" lon="-1.34417">
        <ele>18.4</ele>
        <time>2025-06-29T09:00:10Z</time>
      </trkpt>
      <trkpt lat="46.18747" lon="-1.34414">
        <ele>18.8</ele>
        <time>2025-06-29T09:00:12Z</time>
      </trkpt>
      <trkpt lat="46.18748" lon="-1.344">
        <ele>19</ele>
        <time>2025-06-29T09:00:20Z</time>
      </trkpt>
      <trkpt lat="46.1875" lon="-1.34395">
        <ele>19</ele>
        <time>2025-06-29T09:00:23Z</time>
      </trkpt>
      <trkpt lat="46.18752" lon="-1.34394">
        <ele>18.8</ele>
        <time>2025-06-29T09:00:24Z</time>
      </trkpt>
      <trkpt lat="46.18758" lon="-1.34388">
        <ele>18.8</ele>
        <time>2025-06-29T09:00:28Z</time>
      </trkpt>
      <trkpt lat="46.18762" lon="-1.34375">
        <ele>19</ele>
        <time>2025-06-29T09:00:34Z</time>
      </trkpt>
      <trkpt lat="46.18768" lon="-1.34369">
        <ele>19</ele>
        <time>2025-06-29T09:00:40Z</time>
      </trkpt>
      <trkpt lat="46.18768" lon="-1.34367">
        <ele>18.8</ele>
        <time>2025-06-29T09:00:41Z</time>
      </trkpt>
      <trkpt lat="46.18767" lon="-1.34352">
        <ele>18.8</ele>
        <time>2025-06-29T09:00:48Z</time>
      </trkpt>
      <trkpt lat="46.18768" lon="-1.34344">
        <ele>18.4</ele>
        <time>2025-06-29T09:00:54Z</time>
      </trkpt>
      <trkpt lat="46.18768" lon="-1.34342">
        <ele>18.4</ele>
        <time>2025-06-29T09:00:55Z</time>
      </trkpt>
      <trkpt lat="46.18768" lon="-1.34336">
        <ele>18</ele>
        <time>2025-06-29T09:00:59Z</time>
      </trkpt>
      <trkpt lat="46.18767" lon="-1.34331">
        <ele>18</ele>
        <time>2025-06-29T09:01:02Z</time>
      </trkpt>
      <trkpt lat="46.18768" lon="-1.34323">
        <ele>18.2</ele>
        <time>2025-06-29T09:01:08Z</time>
      </trkpt>
      <trkpt lat="46.1877" lon="-1.34319">
        <ele>18.6</ele>
        <time>2025-06-29T09:01:11Z</time>
      </trkpt>
      <trkpt lat="46.18771" lon="-1.34321">
        <ele>18.6</ele>
        <time>2025-06-29T09:01:13Z</time>
      </trkpt>
      <trkpt lat="46.18777" lon="-1.34332">
        <ele>18</ele>
        <time>2025-06-29T09:01:21Z</time>
      </trkpt>
      <trkpt lat="46.18783" lon="-1.3434">
        <ele>18.4</ele>
        <time>2025-06-29T09:01:28Z</time>
      </trkpt>
      <trkpt lat="46.18788" lon="-1.34347">
        <ele>17.8</ele>
        <time>2025-06-29T09:01:34Z</time>
      </trkpt>
      <trkpt lat="46.18789" lon="-1.34346">
        <ele>17.8</ele>
        <time>2025-06-29T09:01:35Z</time>
      </trkpt>
      <trkpt lat="46.18796" lon="-1.34342">
        <ele>17.6</ele>
        <time>2025-06-29T09:01:42Z</time>
      </trkpt>
      <trkpt lat="46.18796" lon="-1.34342">
        <ele>17.6</ele>
        <time>2025-06-29T09:01:43Z</time>
      </trkpt>
      <trkpt lat="46.18793" lon="-1.34343">
        <ele>17.4</ele>
        <time>2025-06-29T09:01:49Z</time>
      </trkpt>
      <trkpt lat="46.18798" lon="-1.34339">
        <ele>17.4</ele>
        <time>2025-06-29T09:02:00Z</time>
      </trkpt>
      <trkpt lat="46.18801" lon="-1.34334">
        <ele>17.4</ele>
        <time>2025-06-29T09:02:04Z</time>
      </trkpt>
      <trkpt lat="46.18803" lon="-1.34331">
        <ele>17.4</ele>
        <time>2025-06-29T09:02:06Z</time>
      </trkpt>
      <trkpt lat="46.18806" lon="-1.34328">
        <ele>17.4</ele>
        <time>2025-06-29T09:02:09Z</time>
      </trkpt>
      <trkpt lat="46.18806" lon="-1.34326">
        <ele>17.2</ele>
        <time>2025-06-29T09:02:11Z</time>
      </trkpt>
      <trkpt lat="46.18807" lon="-1.34325">
        <ele>17.2</ele>
        <time>2025-06-29T09:02:12Z</time>
      </trkpt>
      <trkpt lat="46.18809" lon="-1.34324">
        <ele>17</ele>
        <time>2025-06-29T09:02:14Z</time>
      </trkpt>
      <trkpt lat="46.18821" lon="-1.34316">
        <ele>17</ele>
        <time>2025-06-29T09:02:24Z</time>
      </trkpt>
      <trkpt lat="46.18822" lon="-1.34316">
        <ele>17</ele>
        <time>2025-06-29T09:02:25Z</time>
      </trkpt>
      <trkpt lat="46.18834" lon="-1.34306">
        <ele>16.2</ele>
        <time>2025-06-29T09:02:35Z</time>
      </trkpt>
      <trkpt lat="46.18843" lon="-1.34301">
        <ele>16.2</ele>
        <time>2025-06-29T09:02:44Z</time>
      </trkpt>
      <trkpt lat="46.18857" lon="-1.34292">
        <ele>16.2</ele>
        <time>2025-06-29T09:02:55Z</time>
      </trkpt>
      <trkpt lat="46.18861" lon="-1.34288">
        <ele>15.8</ele>
        <time>2025-06-29T09:02:59Z</time>
      </trkpt>
      <trkpt lat="46.18863" lon="-1.34284">
        <ele>15.4</ele>
        <time>2025-06-29T09:03:02Z</time>
      </trkpt>
      <trkpt lat="46.18873" lon="-1.34281">
        <ele>15.4</ele>
        <time>2025-06-29T09:03:09Z</time>
      </trkpt>
      <trkpt lat="46.18882" lon="-1.34274">
        <ele>15.2</ele>
        <time>2025-06-29T09:03:17Z</time>
      </trkpt>
      <trkpt lat="46.18892" lon="-1.34266">
        <ele>14.8</ele>
        <time>2025-06-29T09:03:25Z</time>
      </trkpt>
      <trkpt lat="46.189" lon="-1.34259">
        <ele>14.4</ele>
        <time>2025-06-29T09:03:34Z</time>
      </trkpt>
      <trkpt lat="46.18906" lon="-1.34254">
        <ele>14.2</ele>
        <time>2025-06-29T09:03:39Z</time>
      </trkpt>
      <trkpt lat="46.18909" lon="-1.34252">
        <ele>14</ele>
        <time>2025-06-29T09:03:41Z</time>
      </trkpt>
      <trkpt lat="46.18919" lon="-1.34244">
        <ele>13.8</ele>
        <time>2025-06-29T09:03:49Z</time>
      </trkpt>
      <trkpt lat="46.1892" lon="-1.34244">
        <ele>13.8</ele>
        <time>2025-06-29T09:03:50Z</time>
      </trkpt>
      <trkpt lat="46.18923" lon="-1.34242">
        <ele>13.8</ele>
        <time>2025-06-29T09:03:52Z</time>
      </trkpt>
      <trkpt lat="46.18929" lon="-1.34241">
        <ele>13.6</ele>
        <time>2025-06-29T09:03:57Z</time>
      </trkpt>
      <trkpt lat="46.18931" lon="-1.34239">
        <ele>13.6</ele>
        <time>2025-06-29T09:03:59Z</time>
      </trkpt>
      <trkpt lat="46.18934" lon="-1.34236">
        <ele>13.6</ele>
        <time>2025-06-29T09:04:02Z</time>
      </trkpt>
      <trkpt lat="46.18947" lon="-1.34229">
        <ele>13.4</ele>
        <time>2025-06-29T09:04:09Z</time>
      </trkpt>
      <trkpt lat="46.18947" lon="-1.34228">
        <ele>13.4</ele>
        <time>2025-06-29T09:04:10Z</time>
      </trkpt>
      <trkpt lat="46.18952" lon="-1.34221">
        <ele>13.4</ele>
        <time>2025-06-29T09:04:14Z</time>
      </trkpt>
      <trkpt lat="46.18953" lon="-1.34216">
        <ele>13.2</ele>
        <time>2025-06-29T09:04:17Z</time>
      </trkpt>
      <trkpt lat="46.18954" lon="-1.34211">
        <ele>13</ele>
        <time>2025-06-29T09:04:20Z</time>
      </trkpt>
      <trkpt lat="46.18954" lon="-1.34207">
        <ele>12.8</ele>
        <time>2025-06-29T09:04:22Z</time>
      </trkpt>
      <trkpt lat="46.18956" lon="-1.34204">
        <ele>12.8</ele>
        <time>2025-06-29T09:04:24Z</time>
      </trkpt>
      <trkpt lat="46.18956" lon="-1.34201">
        <ele>12.8</ele>
        <time>2025-06-29T09:04:25Z</time>
      </trkpt>
      <trkpt lat="46.18956" lon="-1.34195">
        <ele>12.8</ele>
        <time>2025-06-29T09:04:28Z</time>
      </trkpt>
      <trkpt lat="46.18956" lon="-1.3419">
        <ele>12.8</ele>
        <time>2025-06-29T09:04:31Z</time>
      </trkpt>
      <trkpt lat="46.18956" lon="-1.34188">
        <ele>13</ele>
        <time>2025-06-29T09:04:32Z</time>
      </trkpt>
      <trkpt lat="46.18956" lon="-1.34182">
        <ele>13</ele>
        <time>2025-06-29T09:04:35Z</time>
      </trkpt>
      <trkpt lat="46.18956" lon="-1.34176">
        <ele>12.8</ele>
        <time>2025-06-29T09:04:38Z</time>
      </trkpt>
      <trkpt lat="46.18958" lon="-1.34165">
        <ele>12.8</ele>
        <time>2025-06-29T09:04:44Z</time>
      </trkpt>
      <trkpt lat="46.18958" lon="-1.3416">
        <ele>12.6</ele>
        <time>2025-06-29T09:04:47Z</time>
      </trkpt>
      <trkpt lat="46.18958" lon="-1.34151">
        <ele>12.4</ele>
        <time>2025-06-29T09:04:51Z</time>
      </trkpt>
      <trkpt lat="46.18958" lon="-1.34143">
        <ele>12.2</ele>
        <time>2025-06-29T09:04:56Z</time>
      </trkpt>
      <trkpt lat="46.18956" lon="-1.34139">
        <ele>12.2</ele>
        <time>2025-06-29T09:04:58Z</time>
      </trkpt>
      <trkpt lat="46.18957" lon="-1.34137">
        <ele>12.2</ele>
        <time>2025-06-29T09:04:59Z</time>
      </trkpt>
      <trkpt lat="46.18959" lon="-1.3413">
        <ele>12</ele>
        <time>2025-06-29T09:05:03Z</time>
      </trkpt>
      <trkpt lat="46.18959" lon="-1.34129">
        <ele>12</ele>
        <time>2025-06-29T09:05:04Z</time>
      </trkpt>
      <trkpt lat="46.18959" lon="-1.34114">
        <ele>11.8</ele>
        <time>2025-06-29T09:05:12Z</time>
      </trkpt>
      <trkpt lat="46.1896" lon="-1.34108">
        <ele>11.8</ele>
        <time>2025-06-29T09:05:15Z</time>
      </trkpt>
      <trkpt lat="46.18961" lon="-1.34096">
        <ele>11.4</ele>
        <time>2025-06-29T09:05:21Z</time>
      </trkpt>
      <trkpt lat="46.1896" lon="-1.34087">
        <ele>11</ele>
        <time>2025-06-29T09:05:26Z</time>
      </trkpt>
      <trkpt lat="46.18962" lon="-1.34084">
        <ele>11</ele>
        <time>2025-06-29T09:05:28Z</time>
      </trkpt>
      <trkpt lat="46.18961" lon="-1.34073">
        <ele>10.8</ele>
        <time>2025-06-29T09:05:34Z</time>
      </trkpt>
      <trkpt lat="46.18966" lon="-1.34055">
        <ele>10.8</ele>
        <time>2025-06-29T09:05:43Z</time>
      </trkpt>
      <trkpt lat="46.18966" lon="-1.34053">
        <ele>10.8</ele>
        <time>2025-06-29T09:05:44Z</time>
      </trkpt>
      <trkpt lat="46.18966" lon="-1.3405">
        <ele>10.8</ele>
        <time>2025-06-29T09:05:45Z</time>
      </trkpt>
      <trkpt lat="46.18964" lon="-1.3404">
        <ele>10.6</ele>
        <time>2025-06-29T09:05:50Z</time>
      </trkpt>
      <trkpt lat="46.18963" lon="-1.34037">
        <ele>10.6</ele>
        <time>2025-06-29T09:05:52Z</time>
      </trkpt>
      <trkpt lat="46.18965" lon="-1.34034">
        <ele>10.6</ele>
        <time>2025-06-29T09:05:54Z</time>
      </trkpt>
      <trkpt lat="46.18966" lon="-1.3403">
        <ele>10.6</ele>
        <time>2025-06-29T09:05:56Z</time>
      </trkpt>
      <trkpt lat="46.18966" lon="-1.34016">
        <ele>10.2</ele>
        <time>2025-06-29T09:06:03Z</time>
      </trkpt>
      <trkpt lat="46.18966" lon="-1.34003">
        <ele>10</ele>
        <time>2025-06-29T09:06:10Z</time>
      </trkpt>
      <trkpt lat="46.18966" lon="-1.33999">
        <ele>9.8</ele>
        <time>2025-06-29T09:06:12Z</time>
      </trkpt>
      <trkpt lat="46.18966" lon="-1.33995">
        <ele>9.8</ele>
        <time>2025-06-29T09:06:14Z</time>
      </trkpt>
      <trkpt lat="46.18966" lon="-1.3399">
        <ele>9.8</ele>
        <time>2025-06-29T09:06:17Z</time>
      </trkpt>
      <trkpt lat="46.18966" lon="-1.33988">
        <ele>9.8</ele>
        <time>2025-06-29T09:06:18Z</time>
      </trkpt>
      <trkpt lat="46.18966" lon="-1.33986">
        <ele>9.6</ele>
        <time>2025-06-29T09:06:19Z</time>
      </trkpt>
      <trkpt lat="46.18967" lon="-1.33977">
        <ele>9.6</ele>
        <time>2025-06-29T09:06:24Z</time>
      </trkpt>
      <trkpt lat="46.18969" lon="-1.33968">
        <ele>9.4</ele>
        <time>2025-06-29T09:06:29Z</time>
      </trkpt>
      <trkpt lat="46.1897" lon="-1.33961">
        <ele>9.4</ele>
        <time>2025-06-29T09:06:32Z</time>
      </trkpt>
      <trkpt lat="46.18974" lon="-1.33951">
        <ele>9</ele>
        <time>2025-06-29T09:06:37Z</time>
      </trkpt>
      <trkpt lat="46.18975" lon="-1.3395">
        <ele>9</ele>
        <time>2025-06-29T09:06:38Z</time>
      </trkpt>
      <trkpt lat="46.18979" lon="-1.3394">
        <ele>8.6</ele>
        <time>2025-06-29T09:06:45Z</time>
      </trkpt>
      <trkpt lat="46.18979" lon="-1.33938">
        <ele>8.6</ele>
        <time>2025-06-29T09:06:46Z</time>
      </trkpt>
      <trkpt lat="46.18987" lon="-1.3393">
        <ele>8.4</ele>
        <time>2025-06-29T09:06:53Z</time>
      </trkpt>
      <trkpt lat="46.18994" lon="-1.33928">
        <ele>8.4</ele>
        <time>2025-06-29T09:07:00Z</time>
      </trkpt>
      <trkpt lat="46.18996" lon="-1.33928">
        <ele>8.6</ele>
        <time>2025-06-29T09:07:02Z</time>
      </trkpt>
      <trkpt lat="46.19003" lon="-1.33927">
        <ele>8.6</ele>
        <time>2025-06-29T09:07:07Z</time>
      </trkpt>
      <trkpt lat="46.19005" lon="-1.33926">
        <ele>8.6</ele>
        <time>2025-06-29T09:07:09Z</time>
      </trkpt>
      <trkpt lat="46.19009" lon="-1.33926">
        <ele>8.4</ele>
        <time>2025-06-29T09:07:13Z</time>
      </trkpt>
      <trkpt lat="46.19012" lon="-1.33926">
        <ele>8.4</ele>
        <time>2025-06-29T09:07:16Z</time>
      </trkpt>
      <trkpt lat="46.19024" lon="-1.3392">
        <ele>8.4</ele>
        <time>2025-06-29T09:07:25Z</time>
      </trkpt>
      <trkpt lat="46.19028" lon="-1.33919">
        <ele>8.6</ele>
        <time>2025-06-29T09:07:28Z</time>
      </trkpt>
      <trkpt lat="46.19036" lon="-1.33917">
        <ele>8.6</ele>
        <time>2025-06-29T09:07:34Z</time>
      </trkpt>
      <trkpt lat="46.19051" lon="-1.3391">
        <ele>8</ele>
        <time>2025-06-29T09:07:45Z</time>
      </trkpt>
      <trkpt lat="46.19059" lon="-1.33903">
        <ele>7.8</ele>
        <time>2025-06-29T09:07:53Z</time>
      </trkpt>
      <trkpt lat="46.19072" lon="-1.33895">
        <ele>7.8</ele>
        <time>2025-06-29T09:08:03Z</time>
      </trkpt>
      <trkpt lat="46.19078" lon="-1.3389">
        <ele>7.6</ele>
        <time>2025-06-29T09:08:08Z</time>
      </trkpt>
      <trkpt lat="46.19084" lon="-1.33886">
        <ele>7.6</ele>
        <time>2025-06-29T09:08:13Z</time>
      </trkpt>
      <trkpt lat="46.19096" lon="-1.33879">
        <ele>7.6</ele>
        <time>2025-06-29T09:08:22Z</time>
      </trkpt>
      <trkpt lat="46.19107" lon="-1.33871">
        <ele>7.4</ele>
        <time>2025-06-29T09:08:30Z</time>
      </trkpt>
      <trkpt lat="46.19117" lon="-1.33866">
        <ele>7.2</ele>
        <time>2025-06-29T09:08:37Z</time>
      </trkpt>
      <trkpt lat="46.19125" lon="-1.3386">
        <ele>7.2</ele>
        <time>2025-06-29T09:08:43Z</time>
      </trkpt>
      <trkpt lat="46.19135" lon="-1.33854">
        <ele>7</ele>
        <time>2025-06-29T09:08:51Z</time>
      </trkpt>
      <trkpt lat="46.19146" lon="-1.33847">
        <ele>7</ele>
        <time>2025-06-29T09:08:59Z</time>
      </trkpt>
      <trkpt lat="46.19149" lon="-1.33845">
        <ele>6.6</ele>
        <time>2025-06-29T09:09:03Z</time>
      </trkpt>
      <trkpt lat="46.19153" lon="-1.33843">
        <ele>6.6</ele>
        <time>2025-06-29T09:09:06Z</time>
      </trkpt>
      <trkpt lat="46.19155" lon="-1.33841">
        <ele>6.4</ele>
        <time>2025-06-29T09:09:08Z</time>
      </trkpt>
      <trkpt lat="46.19162" lon="-1.33836">
        <ele>6.6</ele>
        <time>2025-06-29T09:09:14Z</time>
      </trkpt>
      <trkpt lat="46.1917" lon="-1.33831">
        <ele>6.4</ele>
        <time>2025-06-29T09:09:21Z</time>
      </trkpt>
      <trkpt lat="46.19173" lon="-1.33831">
        <ele>6.2</ele>
        <time>2025-06-29T09:09:23Z</time>
      </trkpt>
      <trkpt lat="46.19174" lon="-1.3383">
        <ele>6.2</ele>
        <time>2025-06-29T09:09:24Z</time>
      </trkpt>
      <trkpt lat="46.19181" lon="-1.33825">
        <ele>6.4</ele>
        <time>2025-06-29T09:09:30Z</time>
      </trkpt>
      <trkpt lat="46.19194" lon="-1.33818">
        <ele>5.8</ele>
        <time>2025-06-29T09:09:40Z</time>
      </trkpt>
      <trkpt lat="46.19205" lon="-1.33815">
        <ele>5.8</ele>
        <time>2025-06-29T09:09:48Z</time>
      </trkpt>
      <trkpt lat="46.1921" lon="-1.33811">
        <ele>5.8</ele>
        <time>2025-06-29T09:09:52Z</time>
      </trkpt>
      <trkpt lat="46.19211" lon="-1.33808">
        <ele>5.8</ele>
        <time>2025-06-29T09:09:54Z</time>
      </trkpt>
      <trkpt lat="46.19218" lon="-1.33793">
        <ele>5.8</ele>
        <time>2025-06-29T09:10:04Z</time>
      </trkpt>
      <trkpt lat="46.19223" lon="-1.33788">
        <ele>5.6</ele>
        <time>2025-06-29T09:10:09Z</time>
      </trkpt>
      <trkpt lat="46.19225" lon="-1.33787">
        <ele>5.6</ele>
        <time>2025-06-29T09:10:11Z</time>
      </trkpt>
      <trkpt lat="46.19234" lon="-1.33782">
        <ele>5.8</ele>
        <time>2025-06-29T09:10:20Z</time>
      </trkpt>
      <trkpt lat="46.19239" lon="-1.33776">
        <ele>5.8</ele>
        <time>2025-06-29T09:10:26Z</time>
      </trkpt>
      <trkpt lat="46.19241" lon="-1.33776">
        <ele>5.8</ele>
        <time>2025-06-29T09:10:27Z</time>
      </trkpt>
      <trkpt lat="46.19242" lon="-1.33775">
        <ele>5.8</ele>
        <time>2025-06-29T09:10:28Z</time>
      </trkpt>
      <trkpt lat="46.19246" lon="-1.33774">
        <ele>5.8</ele>
        <time>2025-06-29T09:10:34Z</time>
      </trkpt>
      <trkpt lat="46.19246" lon="-1.33774">
        <ele>5.8</ele>
        <time>2025-06-29T09:10:41Z</time>
      </trkpt>
      <trkpt lat="46.19242" lon="-1.33776">
        <ele>5.6</ele>
        <time>2025-06-29T09:10:48Z</time>
      </trkpt>
      <trkpt lat="46.1924" lon="-1.33777">
        <ele>5.4</ele>
        <time>2025-06-29T09:10:51Z</time>
      </trkpt>
      <trkpt lat="46.1924" lon="-1.33777">
        <ele>5.4</ele>
        <time>2025-06-29T09:10:55Z</time>
      </trkpt>
      <trkpt lat="46.19246" lon="-1.33774">
        <ele>5.6</ele>
        <time>2025-06-29T09:11:05Z</time>
      </trkpt>
      <trkpt lat="46.19252" lon="-1.33772">
        <ele>5.6</ele>
        <time>2025-06-29T09:11:09Z</time>
      </trkpt>
      <trkpt lat="46.19258" lon="-1.33769">
        <ele>6</ele>
        <time>2025-06-29T09:11:15Z</time>
      </trkpt>
      <trkpt lat="46.19263" lon="-1.33766">
        <ele>6</ele>
        <time>2025-06-29T09:11:20Z</time>
      </trkpt>
      <trkpt lat="46.19269" lon="-1.33764">
        <ele>6.2</ele>
        <time>2025-06-29T09:11:24Z</time>
      </trkpt>
      <trkpt lat="46.19273" lon="-1.33762">
        <ele>6.4</ele>
        <time>2025-06-29T09:11:27Z</time>
      </trkpt>
      <trkpt lat="46.19274" lon="-1.33761">
        <ele>6.4</ele>
        <time>2025-06-29T09:11:28Z</time>
      </trkpt>
      <trkpt lat="46.1928" lon="-1.33757">
        <ele>6.6</ele>
        <time>2025-06-29T09:11:32Z</time>
      </trkpt>
      <trkpt lat="46.19281" lon="-1.33757">
        <ele>6.6</ele>
        <time>2025-06-29T09:11:33Z</time>
      </trkpt>
      <trkpt lat="46.19286" lon="-1.33754">
        <ele>7</ele>
        <time>2025-06-29T09:11:39Z</time>
      </trkpt>
      <trkpt lat="46.1929" lon="-1.33753">
        <ele>7</ele>
        <time>2025-06-29T09:11:42Z</time>
      </trkpt>
      <trkpt lat="46.19294" lon="-1.33751">
        <ele>7</ele>
        <time>2025-06-29T09:11:46Z</time>
      </trkpt>
      <trkpt lat="46.193" lon="-1.33746">
        <ele>7.4</ele>
        <time>2025-06-29T09:11:52Z</time>
      </trkpt>
      <trkpt lat="46.193" lon="-1.33745">
        <ele>7.6</ele>
        <time>2025-06-29T09:11:53Z</time>
      </trkpt>
      <trkpt lat="46.193" lon="-1.33744">
        <ele>7.6</ele>
        <time>2025-06-29T09:11:54Z</time>
      </trkpt>
      <trkpt lat="46.19305" lon="-1.33738">
        <ele>7.6</ele>
        <time>2025-06-29T09:12:00Z</time>
      </trkpt>
      <trkpt lat="46.19306" lon="-1.33737">
        <ele>7.8</ele>
        <time>2025-06-29T09:12:01Z</time>
      </trkpt>
      <trkpt lat="46.19314" lon="-1.33732">
        <ele>8.6</ele>
        <time>2025-06-29T09:12:07Z</time>
      </trkpt>
      <trkpt lat="46.19317" lon="-1.33731">
        <ele>8.8</ele>
        <time>2025-06-29T09:12:09Z</time>
      </trkpt>
      <trkpt lat="46.19329" lon="-1.33727">
        <ele>7.8</ele>
        <time>2025-06-29T09:12:16Z</time>
      </trkpt>
      <trkpt lat="46.19337" lon="-1.33725">
        <ele>7.8</ele>
        <time>2025-06-29T09:12:22Z</time>
      </trkpt>
      <trkpt lat="46.19338" lon="-1.33724">
        <ele>7.8</ele>
        <time>2025-06-29T09:12:23Z</time>
      </trkpt>
      <trkpt lat="46.1935" lon="-1.33716">
        <ele>7.8</ele>
        <time>2025-06-29T09:12:32Z</time>
      </trkpt>
      <trkpt lat="46.19358" lon="-1.33709">
        <ele>8</ele>
        <time>2025-06-29T09:12:40Z</time>
      </trkpt>
      <trkpt lat="46.19368" lon="-1.33704">
        <ele>8</ele>
        <time>2025-06-29T09:12:47Z</time>
      </trkpt>
      <trkpt lat="46.19369" lon="-1.33703">
        <ele>8</ele>
        <time>2025-06-29T09:12:48Z</time>
      </trkpt>
      <trkpt lat="46.19373" lon="-1.337">
        <ele>8</ele>
        <time>2025-06-29T09:12:51Z</time>
      </trkpt>
      <trkpt lat="46.19376" lon="-1.33701">
        <ele>8</ele>
        <time>2025-06-29T09:12:53Z</time>
      </trkpt>
      <trkpt lat="46.19381" lon="-1.33702">
        <ele>8</ele>
        <time>2025-06-29T09:12:58Z</time>
      </trkpt>
      <trkpt lat="46.19382" lon="-1.33702">
        <ele>8</ele>
        <time>2025-06-29T09:12:59Z</time>
      </trkpt>
      <trkpt lat="46.19384" lon="-1.33702">
        <ele>7.8</ele>
        <time>2025-06-29T09:13:01Z</time>
      </trkpt>
      <trkpt lat="46.19385" lon="-1.337">
        <ele>8</ele>
        <time>2025-06-29T09:13:03Z</time>
      </trkpt>
      <trkpt lat="46.19395" lon="-1.33696">
        <ele>8</ele>
        <time>2025-06-29T09:13:09Z</time>
      </trkpt>
      <trkpt lat="46.19398" lon="-1.33695">
        <ele>8.2</ele>
        <time>2025-06-29T09:13:12Z</time>
      </trkpt>
      <trkpt lat="46.19401" lon="-1.33696">
        <ele>8</ele>
        <time>2025-06-29T09:13:14Z</time>
      </trkpt>
      <trkpt lat="46.19408" lon="-1.33693">
        <ele>8</ele>
        <time>2025-06-29T09:13:20Z</time>
      </trkpt>
      <trkpt lat="46.19412" lon="-1.33689">
        <ele>8.2</ele>
        <time>2025-06-29T09:13:24Z</time>
      </trkpt>
      <trkpt lat="46.19414" lon="-1.33687">
        <ele>8.2</ele>
        <time>2025-06-29T09:13:27Z</time>
      </trkpt>
      <trkpt lat="46.19415" lon="-1.33686">
        <ele>8.2</ele>
        <time>2025-06-29T09:13:28Z</time>
      </trkpt>
      <trkpt lat="46.19419" lon="-1.33682">
        <ele>8.4</ele>
        <time>2025-06-29T09:13:31Z</time>
      </trkpt>
      <trkpt lat="46.19419" lon="-1.33681">
        <ele>8.4</ele>
        <time>2025-06-29T09:13:32Z</time>
      </trkpt>
      <trkpt lat="46.1942" lon="-1.3368">
        <ele>8.4</ele>
        <time>2025-06-29T09:13:33Z</time>
      </trkpt>
      <trkpt lat="46.19427" lon="-1.33677">
        <ele>8.4</ele>
        <time>2025-06-29T09:13:38Z</time>
      </trkpt>
      <trkpt lat="46.19439" lon="-1.33669">
        <ele>8.4</ele>
        <time>2025-06-29T09:13:47Z</time>
      </trkpt>
      <trkpt lat="46.19452" lon="-1.33666">
        <ele>8.6</ele>
        <time>2025-06-29T09:13:55Z</time>
      </trkpt>
      <trkpt lat="46.19451" lon="-1.33667">
        <ele>8.8</ele>
        <time>2025-06-29T09:13:59Z</time>
      </trkpt>
      <trkpt lat="46.1945" lon="-1.33666">
        <ele>8.8</ele>
        <time>2025-06-29T09:14:06Z</time>
      </trkpt>
      <trkpt lat="46.19454" lon="-1.33664">
        <ele>8.4</ele>
        <time>2025-06-29T09:14:17Z</time>
      </trkpt>
      <trkpt lat="46.19466" lon="-1.33658">
        <ele>8.6</ele>
        <time>2025-06-29T09:14:25Z</time>
      </trkpt>
      <trkpt lat="46.19478" lon="-1.33649">
        <ele>8.6</ele>
        <time>2025-06-29T09:14:34Z</time>
      </trkpt>
      <trkpt lat="46.19489" lon="-1.33644">
        <ele>8.6</ele>
        <time>2025-06-29T09:14:42Z</time>
      </trkpt>
      <trkpt lat="46.19494" lon="-1.33641">
        <ele>8.4</ele>
        <time>2025-06-29T09:14:47Z</time>
      </trkpt>
      <trkpt lat="46.19496" lon="-1.33641">
        <ele>8.4</ele>
        <time>2025-06-29T09:14:48Z</time>
      </trkpt>
      <trkpt lat="46.19501" lon="-1.33637">
        <ele>8.4</ele>
        <time>2025-06-29T09:14:52Z</time>
      </trkpt>
      <trkpt lat="46.19513" lon="-1.33629">
        <ele>8.6</ele>
        <time>2025-06-29T09:15:02Z</time>
      </trkpt>
      <trkpt lat="46.19521" lon="-1.33622">
        <ele>8.4</ele>
        <time>2025-06-29T09:15:09Z</time>
      </trkpt>
      <trkpt lat="46.19533" lon="-1.33613">
        <ele>8.2</ele>
        <time>2025-06-29T09:15:19Z</time>
      </trkpt>
      <trkpt lat="46.19544" lon="-1.33601">
        <ele>8</ele>
        <time>2025-06-29T09:15:30Z</time>
      </trkpt>
      <trkpt lat="46.19548" lon="-1.33597">
        <ele>7.6</ele>
        <time>2025-06-29T09:15:34Z</time>
      </trkpt>
      <trkpt lat="46.1955" lon="-1.33595">
        <ele>7.8</ele>
        <time>2025-06-29T09:15:36Z</time>
      </trkpt>
      <trkpt lat="46.1956" lon="-1.33586">
        <ele>7.6</ele>
        <time>2025-06-29T09:15:44Z</time>
      </trkpt>
      <trkpt lat="46.19561" lon="-1.33585">
        <ele>7.6</ele>
        <time>2025-06-29T09:15:45Z</time>
      </trkpt>
      <trkpt lat="46.19566" lon="-1.33582">
        <ele>7.4</ele>
        <time>2025-06-29T09:15:49Z</time>
      </trkpt>
      <trkpt lat="46.19568" lon="-1.33581">
        <ele>7.4</ele>
        <time>2025-06-29T09:15:50Z</time>
      </trkpt>
      <trkpt lat="46.1957" lon="-1.33579">
        <ele>7.2</ele>
        <time>2025-06-29T09:15:52Z</time>
      </trkpt>
      <trkpt lat="46.19581" lon="-1.33576">
        <ele>6.6</ele>
        <time>2025-06-29T09:16:01Z</time>
      </trkpt>
      <trkpt lat="46.19582" lon="-1.33577">
        <ele>6.4</ele>
        <time>2025-06-29T09:16:02Z</time>
      </trkpt>
      <trkpt lat="46.19591" lon="-1.33578">
        <ele>6.2</ele>
        <time>2025-06-29T09:16:09Z</time>
      </trkpt>
      <trkpt lat="46.19592" lon="-1.33577">
        <ele>6.2</ele>
        <time>2025-06-29T09:16:10Z</time>
      </trkpt>
      <trkpt lat="46.19592" lon="-1.33577">
        <ele>6.2</ele>
        <time>2025-06-29T09:16:11Z</time>
      </trkpt>
      <trkpt lat="46.19591" lon="-1.33578">
        <ele>6</ele>
        <time>2025-06-29T09:16:14Z</time>
      </trkpt>
      <trkpt lat="46.19591" lon="-1.33577">
        <ele>5.6</ele>
        <time>2025-06-29T09:16:20Z</time>
      </trkpt>
      <trkpt lat="46.19591" lon="-1.33577">
        <ele>5.4</ele>
        <time>2025-06-29T09:16:23Z</time>
      </trkpt>
      <trkpt lat="46.19591" lon="-1.3358">
        <ele>5.8</ele>
        <time>2025-06-29T09:16:47Z</time>
      </trkpt>
      <trkpt lat="46.19594" lon="-1.33588">
        <ele>5.8</ele>
        <time>2025-06-29T09:16:51Z</time>
      </trkpt>
      <trkpt lat="46.19606" lon="-1.33601">
        <ele>6</ele>
        <time>2025-06-29T09:17:00Z</time>
      </trkpt>
      <trkpt lat="46.19616" lon="-1.33608">
        <ele>5.8</ele>
        <time>2025-06-29T09:17:08Z</time>
      </trkpt>
      <trkpt lat="46.19628" lon="-1.33617">
        <ele>5.8</ele>
        <time>2025-06-29T09:17:18Z</time>
      </trkpt>
      <trkpt lat="46.19641" lon="-1.33627">
        <ele>5.6</ele>
        <time>2025-06-29T09:17:27Z</time>
      </trkpt>
      <trkpt lat="46.19648" lon="-1.33634">
        <ele>5.8</ele>
        <time>2025-06-29T09:17:36Z</time>
      </trkpt>
      <trkpt lat="46.19648" lon="-1.33634">
        <ele>5.8</ele>
        <time>2025-06-29T09:17:43Z</time>
      </trkpt>
      <trkpt lat="46.19652" lon="-1.33641">
        <ele>5.6</ele>
        <time>2025-06-29T09:17:50Z</time>
      </trkpt>
      <trkpt lat="46.19653" lon="-1.33642">
        <ele>6</ele>
        <time>2025-06-29T09:17:57Z</time>
      </trkpt>
      <trkpt lat="46.19652" lon="-1.33642">
        <ele>6</ele>
        <time>2025-06-29T09:18:00Z</time>
      </trkpt>
      <trkpt lat="46.19654" lon="-1.33641">
        <ele>5.6</ele>
        <time>2025-06-29T09:18:47Z</time>
      </trkpt>
      <trkpt lat="46.19655" lon="-1.33642">
        <ele>6.2</ele>
        <time>2025-06-29T09:18:57Z</time>
      </trkpt>
      <trkpt lat="46.1966" lon="-1.3365">
        <ele>5.4</ele>
        <time>2025-06-29T09:19:03Z</time>
      </trkpt>
      <trkpt lat="46.19672" lon="-1.33662">
        <ele>5</ele>
        <time>2025-06-29T09:19:12Z</time>
      </trkpt>
      <trkpt lat="46.19679" lon="-1.33671">
        <ele>5</ele>
        <time>2025-06-29T09:19:19Z</time>
      </trkpt>
      <trkpt lat="46.1969" lon="-1.33682">
        <ele>5</ele>
        <time>2025-06-29T09:19:29Z</time>
      </trkpt>
      <trkpt lat="46.19691" lon="-1.33683">
        <ele>4.8</ele>
        <time>2025-06-29T09:19:30Z</time>
      </trkpt>
      <trkpt lat="46.19692" lon="-1.33683">
        <ele>4.8</ele>
        <time>2025-06-29T09:19:31Z</time>
      </trkpt>
      <trkpt lat="46.19697" lon="-1.3369">
        <ele>4.8</ele>
        <time>2025-06-29T09:19:37Z</time>
      </trkpt>
      <trkpt lat="46.19706" lon="-1.33698">
        <ele>4.8</ele>
        <time>2025-06-29T09:19:45Z</time>
      </trkpt>
      <trkpt lat="46.19717" lon="-1.33709">
        <ele>5</ele>
        <time>2025-06-29T09:19:55Z</time>
      </trkpt>
      <trkpt lat="46.19718" lon="-1.33711">
        <ele>5</ele>
        <time>2025-06-29T09:19:56Z</time>
      </trkpt>
      <trkpt lat="46.19729" lon="-1.33724">
        <ele>5</ele>
        <time>2025-06-29T09:20:05Z</time>
      </trkpt>
      <trkpt lat="46.1974" lon="-1.33734">
        <ele>5.2</ele>
        <time>2025-06-29T09:20:14Z</time>
      </trkpt>
      <trkpt lat="46.19753" lon="-1.33744">
        <ele>5.2</ele>
        <time>2025-06-29T09:20:25Z</time>
      </trkpt>
      <trkpt lat="46.1976" lon="-1.3375">
        <ele>5.2</ele>
        <time>2025-06-29T09:20:31Z</time>
      </trkpt>
      <trkpt lat="46.19764" lon="-1.33755">
        <ele>5.2</ele>
        <time>2025-06-29T09:20:35Z</time>
      </trkpt>
      <trkpt lat="46.19774" lon="-1.33771">
        <ele>5.2</ele>
        <time>2025-06-29T09:20:47Z</time>
      </trkpt>
      <trkpt lat="46.1978" lon="-1.33786">
        <ele>5</ele>
        <time>2025-06-29T09:20:56Z</time>
      </trkpt>
      <trkpt lat="46.1979" lon="-1.338">
        <ele>5</ele>
        <time>2025-06-29T09:21:05Z</time>
      </trkpt>
      <trkpt lat="46.1979" lon="-1.33802">
        <ele>5</ele>
        <time>2025-06-29T09:21:07Z</time>
      </trkpt>
      <trkpt lat="46.19794" lon="-1.33811">
        <ele>5</ele>
        <time>2025-06-29T09:21:13Z</time>
      </trkpt>
      <trkpt lat="46.19803" lon="-1.33819">
        <ele>5</ele>
        <time>2025-06-29T09:21:23Z</time>
      </trkpt>
      <trkpt lat="46.19809" lon="-1.33833">
        <ele>5.2</ele>
        <time>2025-06-29T09:21:32Z</time>
      </trkpt>
      <trkpt lat="46.1981" lon="-1.33847">
        <ele>5.6</ele>
        <time>2025-06-29T09:21:39Z</time>
      </trkpt>
      <trkpt lat="46.19811" lon="-1.33849">
        <ele>5.6</ele>
        <time>2025-06-29T09:21:41Z</time>
      </trkpt>
      <trkpt lat="46.19816" lon="-1.33859">
        <ele>5.6</ele>
        <time>2025-06-29T09:21:48Z</time>
      </trkpt>
      <trkpt lat="46.19821" lon="-1.33872">
        <ele>5.6</ele>
        <time>2025-06-29T09:21:57Z</time>
      </trkpt>
      <trkpt lat="46.19827" lon="-1.33889">
        <ele>5.8</ele>
        <time>2025-06-29T09:22:07Z</time>
      </trkpt>
      <trkpt lat="46.19831" lon="-1.339">
        <ele>5.8</ele>
        <time>2025-06-29T09:22:14Z</time>
      </trkpt>
      <trkpt lat="46.19833" lon="-1.33903">
        <ele>5.6</ele>
        <time>2025-06-29T09:22:19Z</time>
      </trkpt>
      <trkpt lat="46.19834" lon="-1.33908">
        <ele>5.4</ele>
        <time>2025-06-29T09:22:25Z</time>
      </trkpt>
      <trkpt lat="46.19838" lon="-1.33914">
        <ele>5.6</ele>
        <time>2025-06-29T09:22:29Z</time>
      </trkpt>
      <trkpt lat="46.19841" lon="-1.33918">
        <ele>5.6</ele>
        <time>2025-06-29T09:22:32Z</time>
      </trkpt>
      <trkpt lat="46.19848" lon="-1.33929">
        <ele>5.4</ele>
        <time>2025-06-29T09:22:40Z</time>
      </trkpt>
      <trkpt lat="46.19855" lon="-1.33939">
        <ele>5.4</ele>
        <time>2025-06-29T09:22:48Z</time>
      </trkpt>
      <trkpt lat="46.1986" lon="-1.33944">
        <ele>5.4</ele>
        <time>2025-06-29T09:22:53Z</time>
      </trkpt>
      <trkpt lat="46.19868" lon="-1.33952">
        <ele>5.8</ele>
        <time>2025-06-29T09:23:00Z</time>
      </trkpt>
      <trkpt lat="46.19871" lon="-1.33957">
        <ele>5.6</ele>
        <time>2025-06-29T09:23:04Z</time>
      </trkpt>
      <trkpt lat="46.19876" lon="-1.33962">
        <ele>5.6</ele>
        <time>2025-06-29T09:23:08Z</time>
      </trkpt>
      <trkpt lat="46.19887" lon="-1.33975">
        <ele>6.2</ele>
        <time>2025-06-29T09:23:19Z</time>
      </trkpt>
      <trkpt lat="46.19898" lon="-1.33985">
        <ele>6</ele>
        <time>2025-06-29T09:23:28Z</time>
      </trkpt>
      <trkpt lat="46.19904" lon="-1.33989">
        <ele>5.8</ele>
        <time>2025-06-29T09:23:32Z</time>
      </trkpt>
      <trkpt lat="46.19907" lon="-1.33993">
        <ele>5.8</ele>
        <time>2025-06-29T09:23:35Z</time>
      </trkpt>
      <trkpt lat="46.19909" lon="-1.33996">
        <ele>5.8</ele>
        <time>2025-06-29T09:23:37Z</time>
      </trkpt>
      <trkpt lat="46.19916" lon="-1.34006">
        <ele>5.6</ele>
        <time>2025-06-29T09:23:45Z</time>
      </trkpt>
      <trkpt lat="46.19924" lon="-1.34019">
        <ele>5.8</ele>
        <time>2025-06-29T09:23:54Z</time>
      </trkpt>
      <trkpt lat="46.19925" lon="-1.34022">
        <ele>5.6</ele>
        <time>2025-06-29T09:23:56Z</time>
      </trkpt>
      <trkpt lat="46.1993" lon="-1.34031">
        <ele>5.8</ele>
        <time>2025-06-29T09:24:03Z</time>
      </trkpt>
      <trkpt lat="46.19938" lon="-1.34043">
        <ele>6</ele>
        <time>2025-06-29T09:24:11Z</time>
      </trkpt>
      <trkpt lat="46.19947" lon="-1.3406">
        <ele>6</ele>
        <time>2025-06-29T09:24:21Z</time>
      </trkpt>
      <trkpt lat="46.19948" lon="-1.34062">
        <ele>6</ele>
        <time>2025-06-29T09:24:23Z</time>
      </trkpt>
      <trkpt lat="46.19949" lon="-1.34063">
        <ele>6.2</ele>
        <time>2025-06-29T09:24:26Z</time>
      </trkpt>
      <trkpt lat="46.19951" lon="-1.34066">
        <ele>6.4</ele>
        <time>2025-06-29T09:24:29Z</time>
      </trkpt>
      <trkpt lat="46.19955" lon="-1.34072">
        <ele>6</ele>
        <time>2025-06-29T09:24:33Z</time>
      </trkpt>
      <trkpt lat="46.19962" lon="-1.34082">
        <ele>5.8</ele>
        <time>2025-06-29T09:24:40Z</time>
      </trkpt>
      <trkpt lat="46.19965" lon="-1.34087">
        <ele>5.8</ele>
        <time>2025-06-29T09:24:43Z</time>
      </trkpt>
      <trkpt lat="46.1997" lon="-1.34094">
        <ele>6.2</ele>
        <time>2025-06-29T09:24:48Z</time>
      </trkpt>
      <trkpt lat="46.19982" lon="-1.34108">
        <ele>6.2</ele>
        <time>2025-06-29T09:25:00Z</time>
      </trkpt>
      <trkpt lat="46.19991" lon="-1.34123">
        <ele>5.8</ele>
        <time>2025-06-29T09:25:11Z</time>
      </trkpt>
      <trkpt lat="46.19993" lon="-1.34137">
        <ele>5.8</ele>
        <time>2025-06-29T09:25:19Z</time>
      </trkpt>
      <trkpt lat="46.19996" lon="-1.34153">
        <ele>6.2</ele>
        <time>2025-06-29T09:25:27Z</time>
      </trkpt>
      <trkpt lat="46.19999" lon="-1.34167">
        <ele>5.6</ele>
        <time>2025-06-29T09:25:36Z</time>
      </trkpt>
      <trkpt lat="46.20005" lon="-1.34188">
        <ele>5.8</ele>
        <time>2025-06-29T09:25:48Z</time>
      </trkpt>
      <trkpt lat="46.2001" lon="-1.34207">
        <ele>5.8</ele>
        <time>2025-06-29T09:25:59Z</time>
      </trkpt>
      <trkpt lat="46.2001" lon="-1.3421">
        <ele>5.8</ele>
        <time>2025-06-29T09:26:01Z</time>
      </trkpt>
      <trkpt lat="46.20015" lon="-1.34224">
        <ele>5.6</ele>
        <time>2025-06-29T09:26:10Z</time>
      </trkpt>
      <trkpt lat="46.20018" lon="-1.34241">
        <ele>5.6</ele>
        <time>2025-06-29T09:26:19Z</time>
      </trkpt>
      <trkpt lat="46.20018" lon="-1.34262">
        <ele>5.8</ele>
        <time>2025-06-29T09:26:31Z</time>
      </trkpt>
      <trkpt lat="46.20019" lon="-1.3428">
        <ele>5.8</ele>
        <time>2025-06-29T09:26:40Z</time>
      </trkpt>
      <trkpt lat="46.2002" lon="-1.34304">
        <ele>5.8</ele>
        <time>2025-06-29T09:26:52Z</time>
      </trkpt>
      <trkpt lat="46.20022" lon="-1.34319">
        <ele>5.6</ele>
        <time>2025-06-29T09:27:00Z</time>
      </trkpt>
      <trkpt lat="46.20026" lon="-1.34337">
        <ele>5.8</ele>
        <time>2025-06-29T09:27:10Z</time>
      </trkpt>
      <trkpt lat="46.20029" lon="-1.3435">
        <ele>5.6</ele>
        <time>2025-06-29T09:27:17Z</time>
      </trkpt>
      <trkpt lat="46.20029" lon="-1.34352">
        <ele>5.6</ele>
        <time>2025-06-29T09:27:18Z</time>
      </trkpt>
      <trkpt lat="46.20033" lon="-1.34364">
        <ele>5.6</ele>
        <time>2025-06-29T09:27:25Z</time>
      </trkpt>
      <trkpt lat="46.20036" lon="-1.34381">
        <ele>5.6</ele>
        <time>2025-06-29T09:27:34Z</time>
      </trkpt>
      <trkpt lat="46.2004" lon="-1.34394">
        <ele>5.6</ele>
        <time>2025-06-29T09:27:42Z</time>
      </trkpt>
      <trkpt lat="46.20045" lon="-1.34411">
        <ele>5.6</ele>
        <time>2025-06-29T09:27:51Z</time>
      </trkpt>
      <trkpt lat="46.20048" lon="-1.34421">
        <ele>5.4</ele>
        <time>2025-06-29T09:27:57Z</time>
      </trkpt>
      <trkpt lat="46.2005" lon="-1.34425">
        <ele>5.6</ele>
        <time>2025-06-29T09:28:00Z</time>
      </trkpt>
      <trkpt lat="46.20055" lon="-1.34436">
        <ele>5.6</ele>
        <time>2025-06-29T09:28:07Z</time>
      </trkpt>
      <trkpt lat="46.20062" lon="-1.34447">
        <ele>5.4</ele>
        <time>2025-06-29T09:28:14Z</time>
      </trkpt>
      <trkpt lat="46.2007" lon="-1.3446">
        <ele>5.2</ele>
        <time>2025-06-29T09:28:23Z</time>
      </trkpt>
      <trkpt lat="46.20078" lon="-1.34472">
        <ele>5.2</ele>
        <time>2025-06-29T09:28:31Z</time>
      </trkpt>
      <trkpt lat="46.20079" lon="-1.34473">
        <ele>5.2</ele>
        <time>2025-06-29T09:28:32Z</time>
      </trkpt>
      <trkpt lat="46.2009" lon="-1.34484">
        <ele>5.4</ele>
        <time>2025-06-29T09:28:41Z</time>
      </trkpt>
      <trkpt lat="46.20097" lon="-1.34496">
        <ele>5.2</ele>
        <time>2025-06-29T09:28:50Z</time>
      </trkpt>
      <trkpt lat="46.20109" lon="-1.34507">
        <ele>5.6</ele>
        <time>2025-06-29T09:29:00Z</time>
      </trkpt>
      <trkpt lat="46.20119" lon="-1.34518">
        <ele>5.8</ele>
        <time>2025-06-29T09:29:10Z</time>
      </trkpt>
      <trkpt lat="46.20127" lon="-1.34528">
        <ele>5.6</ele>
        <time>2025-06-29T09:29:19Z</time>
      </trkpt>
      <trkpt lat="46.20136" lon="-1.34538">
        <ele>5.8</ele>
        <time>2025-06-29T09:29:28Z</time>
      </trkpt>
      <trkpt lat="46.20143" lon="-1.34545">
        <ele>5.8</ele>
        <time>2025-06-29T09:29:36Z</time>
      </trkpt>
      <trkpt lat="46.20144" lon="-1.34546">
        <ele>5.8</ele>
        <time>2025-06-29T09:29:37Z</time>
      </trkpt>
      <trkpt lat="46.20145" lon="-1.34548">
        <ele>5.8</ele>
        <time>2025-06-29T09:29:42Z</time>
      </trkpt>
      <trkpt lat="46.20149" lon="-1.34555">
        <ele>5.8</ele>
        <time>2025-06-29T09:29:48Z</time>
      </trkpt>
      <trkpt lat="46.20152" lon="-1.34562">
        <ele>5.8</ele>
        <time>2025-06-29T09:29:52Z</time>
      </trkpt>
      <trkpt lat="46.20153" lon="-1.3457">
        <ele>6</ele>
        <time>2025-06-29T09:29:57Z</time>
      </trkpt>
      <trkpt lat="46.20156" lon="-1.34579">
        <ele>5.4</ele>
        <time>2025-06-29T09:30:03Z</time>
      </trkpt>
      <trkpt lat="46.20157" lon="-1.34581">
        <ele>5.2</ele>
        <time>2025-06-29T09:30:04Z</time>
      </trkpt>
      <trkpt lat="46.20159" lon="-1.34581">
        <ele>5.2</ele>
        <time>2025-06-29T09:30:05Z</time>
      </trkpt>
      <trkpt lat="46.20162" lon="-1.34579">
        <ele>5.2</ele>
        <time>2025-06-29T09:30:08Z</time>
      </trkpt>
      <trkpt lat="46.20163" lon="-1.34578">
        <ele>5.2</ele>
        <time>2025-06-29T09:30:09Z</time>
      </trkpt>
      <trkpt lat="46.20164" lon="-1.34576">
        <ele>5</ele>
        <time>2025-06-29T09:30:11Z</time>
      </trkpt>
      <trkpt lat="46.20163" lon="-1.34575">
        <ele>4.6</ele>
        <time>2025-06-29T09:30:13Z</time>
      </trkpt>
      <trkpt lat="46.20161" lon="-1.34573">
        <ele>4.4</ele>
        <time>2025-06-29T09:30:17Z</time>
      </trkpt>
      <trkpt lat="46.20161" lon="-1.34573">
        <ele>4</ele>
        <time>2025-06-29T09:30:20Z</time>
      </trkpt>
      <trkpt lat="46.2016" lon="-1.34579">
        <ele>4</ele>
        <time>2025-06-29T09:30:38Z</time>
      </trkpt>
      <trkpt lat="46.20163" lon="-1.34589">
        <ele>4.2</ele>
        <time>2025-06-29T09:30:45Z</time>
      </trkpt>
      <trkpt lat="46.20164" lon="-1.34589">
        <ele>4.4</ele>
        <time>2025-06-29T09:30:46Z</time>
      </trkpt>
      <trkpt lat="46.20168" lon="-1.34596">
        <ele>4.8</ele>
        <time>2025-06-29T09:30:51Z</time>
      </trkpt>
      <trkpt lat="46.20171" lon="-1.34603">
        <ele>4.8</ele>
        <time>2025-06-29T09:30:56Z</time>
      </trkpt>
      <trkpt lat="46.20175" lon="-1.34616">
        <ele>5.2</ele>
        <time>2025-06-29T09:31:04Z</time>
      </trkpt>
      <trkpt lat="46.20177" lon="-1.3462">
        <ele>5.4</ele>
        <time>2025-06-29T09:31:07Z</time>
      </trkpt>
      <trkpt lat="46.2018" lon="-1.34627">
        <ele>5.8</ele>
        <time>2025-06-29T09:31:13Z</time>
      </trkpt>
      <trkpt lat="46.20183" lon="-1.34634">
        <ele>6</ele>
        <time>2025-06-29T09:31:18Z</time>
      </trkpt>
      <trkpt lat="46.2019" lon="-1.34647">
        <ele>6.2</ele>
        <time>2025-06-29T09:31:27Z</time>
      </trkpt>
      <trkpt lat="46.20192" lon="-1.34652">
        <ele>6.4</ele>
        <time>2025-06-29T09:31:30Z</time>
      </trkpt>
      <trkpt lat="46.20193" lon="-1.34656">
        <ele>6.4</ele>
        <time>2025-06-29T09:31:32Z</time>
      </trkpt>
      <trkpt lat="46.20195" lon="-1.3466">
        <ele>6.6</ele>
        <time>2025-06-29T09:31:35Z</time>
      </trkpt>
      <trkpt lat="46.202" lon="-1.34672">
        <ele>6.8</ele>
        <time>2025-06-29T09:31:42Z</time>
      </trkpt>
      <trkpt lat="46.20204" lon="-1.34686">
        <ele>7.4</ele>
        <time>2025-06-29T09:31:50Z</time>
      </trkpt>
      <trkpt lat="46.20205" lon="-1.34689">
        <ele>7.6</ele>
        <time>2025-06-29T09:31:52Z</time>
      </trkpt>
      <trkpt lat="46.20209" lon="-1.34705">
        <ele>7.6</ele>
        <time>2025-06-29T09:32:02Z</time>
      </trkpt>
      <trkpt lat="46.20215" lon="-1.34716">
        <ele>8.2</ele>
        <time>2025-06-29T09:32:09Z</time>
      </trkpt>
      <trkpt lat="46.2022" lon="-1.34728">
        <ele>8.4</ele>
        <time>2025-06-29T09:32:16Z</time>
      </trkpt>
      <trkpt lat="46.20222" lon="-1.34733">
        <ele>8.4</ele>
        <time>2025-06-29T09:32:19Z</time>
      </trkpt>
      <trkpt lat="46.20229" lon="-1.34747">
        <ele>8.6</ele>
        <time>2025-06-29T09:32:27Z</time>
      </trkpt>
      <trkpt lat="46.20231" lon="-1.34757">
        <ele>8.8</ele>
        <time>2025-06-29T09:32:33Z</time>
      </trkpt>
      <trkpt lat="46.20234" lon="-1.34762">
        <ele>8.8</ele>
        <time>2025-06-29T09:32:36Z</time>
      </trkpt>
      <trkpt lat="46.20238" lon="-1.34767">
        <ele>9</ele>
        <time>2025-06-29T09:32:40Z</time>
      </trkpt>
      <trkpt lat="46.20244" lon="-1.34778">
        <ele>8.8</ele>
        <time>2025-06-29T09:32:48Z</time>
      </trkpt>
      <trkpt lat="46.20245" lon="-1.34781">
        <ele>8.8</ele>
        <time>2025-06-29T09:32:50Z</time>
      </trkpt>
      <trkpt lat="46.20247" lon="-1.34784">
        <ele>9</ele>
        <time>2025-06-29T09:32:52Z</time>
      </trkpt>
      <trkpt lat="46.20246" lon="-1.34793">
        <ele>9.2</ele>
        <time>2025-06-29T09:32:57Z</time>
      </trkpt>
      <trkpt lat="46.20246" lon="-1.34795">
        <ele>9.2</ele>
        <time>2025-06-29T09:32:58Z</time>
      </trkpt>
      <trkpt lat="46.20248" lon="-1.34797">
        <ele>9.2</ele>
        <time>2025-06-29T09:33:00Z</time>
      </trkpt>
      <trkpt lat="46.20249" lon="-1.34798">
        <ele>9.4</ele>
        <time>2025-06-29T09:33:01Z</time>
      </trkpt>
      <trkpt lat="46.2025" lon="-1.34798">
        <ele>9.4</ele>
        <time>2025-06-29T09:33:02Z</time>
      </trkpt>
      <trkpt lat="46.20257" lon="-1.34802">
        <ele>9</ele>
        <time>2025-06-29T09:33:08Z</time>
      </trkpt>
      <trkpt lat="46.20261" lon="-1.34813">
        <ele>9.2</ele>
        <time>2025-06-29T09:33:16Z</time>
      </trkpt>
      <trkpt lat="46.20263" lon="-1.34817">
        <ele>9</ele>
        <time>2025-06-29T09:33:19Z</time>
      </trkpt>
      <trkpt lat="46.20264" lon="-1.34817">
        <ele>9</ele>
        <time>2025-06-29T09:33:20Z</time>
      </trkpt>
      <trkpt lat="46.20265" lon="-1.34817">
        <ele>9</ele>
        <time>2025-06-29T09:33:22Z</time>
      </trkpt>
      <trkpt lat="46.20265" lon="-1.34817">
        <ele>9</ele>
        <time>2025-06-29T09:33:24Z</time>
      </trkpt>
      <trkpt lat="46.20265" lon="-1.34816">
        <ele>9</ele>
        <time>2025-06-29T09:33:27Z</time>
      </trkpt>
      <trkpt lat="46.20267" lon="-1.34817">
        <ele>9</ele>
        <time>2025-06-29T09:33:33Z</time>
      </trkpt>
      <trkpt lat="46.20268" lon="-1.34823">
        <ele>8.6</ele>
        <time>2025-06-29T09:33:39Z</time>
      </trkpt>
      <trkpt lat="46.20267" lon="-1.34836">
        <ele>8.8</ele>
        <time>2025-06-29T09:33:46Z</time>
      </trkpt>
      <trkpt lat="46.20268" lon="-1.3486">
        <ele>8.6</ele>
        <time>2025-06-29T09:33:58Z</time>
      </trkpt>
      <trkpt lat="46.20271" lon="-1.34866">
        <ele>9</ele>
        <time>2025-06-29T09:34:02Z</time>
      </trkpt>
      <trkpt lat="46.20273" lon="-1.3487">
        <ele>9</ele>
        <time>2025-06-29T09:34:04Z</time>
      </trkpt>
      <trkpt lat="46.20274" lon="-1.34873">
        <ele>8.8</ele>
        <time>2025-06-29T09:34:06Z</time>
      </trkpt>
      <trkpt lat="46.20276" lon="-1.34881">
        <ele>8.6</ele>
        <time>2025-06-29T09:34:10Z</time>
      </trkpt>
      <trkpt lat="46.20283" lon="-1.34897">
        <ele>8.6</ele>
        <time>2025-06-29T09:34:19Z</time>
      </trkpt>
      <trkpt lat="46.20289" lon="-1.34911">
        <ele>8.4</ele>
        <time>2025-06-29T09:34:28Z</time>
      </trkpt>
      <trkpt lat="46.20293" lon="-1.34927">
        <ele>8.6</ele>
        <time>2025-06-29T09:34:37Z</time>
      </trkpt>
      <trkpt lat="46.20299" lon="-1.34938">
        <ele>8.4</ele>
        <time>2025-06-29T09:34:44Z</time>
      </trkpt>
      <trkpt lat="46.20303" lon="-1.34952">
        <ele>8.4</ele>
        <time>2025-06-29T09:34:52Z</time>
      </trkpt>
      <trkpt lat="46.20303" lon="-1.34954">
        <ele>8.4</ele>
        <time>2025-06-29T09:34:53Z</time>
      </trkpt>
      <trkpt lat="46.20305" lon="-1.34959">
        <ele>8.2</ele>
        <time>2025-06-29T09:34:56Z</time>
      </trkpt>
      <trkpt lat="46.20305" lon="-1.3496">
        <ele>8.2</ele>
        <time>2025-06-29T09:34:57Z</time>
      </trkpt>
      <trkpt lat="46.20306" lon="-1.34962">
        <ele>8.2</ele>
        <time>2025-06-29T09:34:58Z</time>
      </trkpt>
      <trkpt lat="46.20308" lon="-1.34967">
        <ele>8.2</ele>
        <time>2025-06-29T09:35:01Z</time>
      </trkpt>
      <trkpt lat="46.20309" lon="-1.3497">
        <ele>8.2</ele>
        <time>2025-06-29T09:35:03Z</time>
      </trkpt>
      <trkpt lat="46.2031" lon="-1.34973">
        <ele>8.2</ele>
        <time>2025-06-29T09:35:05Z</time>
      </trkpt>
      <trkpt lat="46.20317" lon="-1.34981">
        <ele>8</ele>
        <time>2025-06-29T09:35:12Z</time>
      </trkpt>
      <trkpt lat="46.20317" lon="-1.34983">
        <ele>8.2</ele>
        <time>2025-06-29T09:35:13Z</time>
      </trkpt>
      <trkpt lat="46.20313" lon="-1.34991">
        <ele>8.2</ele>
        <time>2025-06-29T09:35:18Z</time>
      </trkpt>
      <trkpt lat="46.20308" lon="-1.34997">
        <ele>8.2</ele>
        <time>2025-06-29T09:35:23Z</time>
      </trkpt>
      <trkpt lat="46.203" lon="-1.35003">
        <ele>8.4</ele>
        <time>2025-06-29T09:35:30Z</time>
      </trkpt>
      <trkpt lat="46.20292" lon="-1.35011">
        <ele>8.6</ele>
        <time>2025-06-29T09:35:37Z</time>
      </trkpt>
      <trkpt lat="46.2029" lon="-1.35012">
        <ele>8.6</ele>
        <time>2025-06-29T09:35:38Z</time>
      </trkpt>
      <trkpt lat="46.20286" lon="-1.35015">
        <ele>8.4</ele>
        <time>2025-06-29T09:35:42Z</time>
      </trkpt>
      <trkpt lat="46.20278" lon="-1.35019">
        <ele>8.4</ele>
        <time>2025-06-29T09:35:49Z</time>
      </trkpt>
      <trkpt lat="46.20273" lon="-1.35025">
        <ele>8.4</ele>
        <time>2025-06-29T09:35:54Z</time>
      </trkpt>
      <trkpt lat="46.20273" lon="-1.35027">
        <ele>8.4</ele>
        <time>2025-06-29T09:35:55Z</time>
      </trkpt>
      <trkpt lat="46.20273" lon="-1.35031">
        <ele>8.6</ele>
        <time>2025-06-29T09:35:57Z</time>
      </trkpt>
      <trkpt lat="46.20275" lon="-1.35037">
        <ele>8.8</ele>
        <time>2025-06-29T09:36:00Z</time>
      </trkpt>
      <trkpt lat="46.20276" lon="-1.35041">
        <ele>8.8</ele>
        <time>2025-06-29T09:36:02Z</time>
      </trkpt>
      <trkpt lat="46.20278" lon="-1.35046">
        <ele>8.6</ele>
        <time>2025-06-29T09:36:05Z</time>
      </trkpt>
      <trkpt lat="46.20284" lon="-1.35054">
        <ele>8.8</ele>
        <time>2025-06-29T09:36:10Z</time>
      </trkpt>
      <trkpt lat="46.20286" lon="-1.35057">
        <ele>8.6</ele>
        <time>2025-06-29T09:36:12Z</time>
      </trkpt>
      <trkpt lat="46.20286" lon="-1.35059">
        <ele>8.4</ele>
        <time>2025-06-29T09:36:13Z</time>
      </trkpt>
      <trkpt lat="46.20288" lon="-1.35073">
        <ele>8.4</ele>
        <time>2025-06-29T09:36:21Z</time>
      </trkpt>
      <trkpt lat="46.20293" lon="-1.3509">
        <ele>8.4</ele>
        <time>2025-06-29T09:36:31Z</time>
      </trkpt>
      <trkpt lat="46.20295" lon="-1.35103">
        <ele>8.4</ele>
        <time>2025-06-29T09:36:37Z</time>
      </trkpt>
      <trkpt lat="46.20299" lon="-1.35116">
        <ele>8.4</ele>
        <time>2025-06-29T09:36:44Z</time>
      </trkpt>
      <trkpt lat="46.20299" lon="-1.35129">
        <ele>8.6</ele>
        <time>2025-06-29T09:36:51Z</time>
      </trkpt>
      <trkpt lat="46.20301" lon="-1.35146">
        <ele>8.6</ele>
        <time>2025-06-29T09:36:59Z</time>
      </trkpt>
      <trkpt lat="46.20302" lon="-1.35163">
        <ele>8.6</ele>
        <time>2025-06-29T09:37:08Z</time>
      </trkpt>
      <trkpt lat="46.20301" lon="-1.35181">
        <ele>8.4</ele>
        <time>2025-06-29T09:37:18Z</time>
      </trkpt>
      <trkpt lat="46.20302" lon="-1.35183">
        <ele>8.4</ele>
        <time>2025-06-29T09:37:19Z</time>
      </trkpt>
      <trkpt lat="46.20302" lon="-1.35185">
        <ele>8.4</ele>
        <time>2025-06-29T09:37:20Z</time>
      </trkpt>
      <trkpt lat="46.20302" lon="-1.35196">
        <ele>8.6</ele>
        <time>2025-06-29T09:37:25Z</time>
      </trkpt>
      <trkpt lat="46.20301" lon="-1.35217">
        <ele>8.2</ele>
        <time>2025-06-29T09:37:36Z</time>
      </trkpt>
      <trkpt lat="46.20306" lon="-1.35232">
        <ele>8.2</ele>
        <time>2025-06-29T09:37:44Z</time>
      </trkpt>
      <trkpt lat="46.20313" lon="-1.35244">
        <ele>8.4</ele>
        <time>2025-06-29T09:37:52Z</time>
      </trkpt>
      <trkpt lat="46.20314" lon="-1.35248">
        <ele>8.4</ele>
        <time>2025-06-29T09:37:54Z</time>
      </trkpt>
      <trkpt lat="46.20315" lon="-1.35254">
        <ele>8.2</ele>
        <time>2025-06-29T09:37:57Z</time>
      </trkpt>
      <trkpt lat="46.20319" lon="-1.35269">
        <ele>8.2</ele>
        <time>2025-06-29T09:38:05Z</time>
      </trkpt>
      <trkpt lat="46.20319" lon="-1.35283">
        <ele>8</ele>
        <time>2025-06-29T09:38:13Z</time>
      </trkpt>
      <trkpt lat="46.20317" lon="-1.35288">
        <ele>7.4</ele>
        <time>2025-06-29T09:38:17Z</time>
      </trkpt>
      <trkpt lat="46.20317" lon="-1.35292">
        <ele>7.2</ele>
        <time>2025-06-29T09:38:19Z</time>
      </trkpt>
      <trkpt lat="46.20317" lon="-1.35294">
        <ele>7</ele>
        <time>2025-06-29T09:38:20Z</time>
      </trkpt>
      <trkpt lat="46.20317" lon="-1.35295">
        <ele>7</ele>
        <time>2025-06-29T09:38:21Z</time>
      </trkpt>
      <trkpt lat="46.20319" lon="-1.353">
        <ele>6.4</ele>
        <time>2025-06-29T09:38:24Z</time>
      </trkpt>
      <trkpt lat="46.2032" lon="-1.35301">
        <ele>6.4</ele>
        <time>2025-06-29T09:38:25Z</time>
      </trkpt>
      <trkpt lat="46.2032" lon="-1.35303">
        <ele>6.2</ele>
        <time>2025-06-29T09:38:26Z</time>
      </trkpt>
      <trkpt lat="46.20322" lon="-1.35312">
        <ele>5.8</ele>
        <time>2025-06-29T09:38:31Z</time>
      </trkpt>
      <trkpt lat="46.20324" lon="-1.35317">
        <ele>5.8</ele>
        <time>2025-06-29T09:38:34Z</time>
      </trkpt>
      <trkpt lat="46.20324" lon="-1.35325">
        <ele>5.6</ele>
        <time>2025-06-29T09:38:39Z</time>
      </trkpt>
      <trkpt lat="46.20324" lon="-1.35331">
        <ele>5.4</ele>
        <time>2025-06-29T09:38:42Z</time>
      </trkpt>
      <trkpt lat="46.20326" lon="-1.35335">
        <ele>5.4</ele>
        <time>2025-06-29T09:38:45Z</time>
      </trkpt>
      <trkpt lat="46.20327" lon="-1.35337">
        <ele>5.2</ele>
        <time>2025-06-29T09:38:46Z</time>
      </trkpt>
      <trkpt lat="46.20327" lon="-1.35347">
        <ele>5</ele>
        <time>2025-06-29T09:38:50Z</time>
      </trkpt>
      <trkpt lat="46.20327" lon="-1.35349">
        <ele>5</ele>
        <time>2025-06-29T09:38:51Z</time>
      </trkpt>
      <trkpt lat="46.2033" lon="-1.35352">
        <ele>5</ele>
        <time>2025-06-29T09:38:53Z</time>
      </trkpt>
      <trkpt lat="46.20333" lon="-1.35357">
        <ele>5</ele>
        <time>2025-06-29T09:38:56Z</time>
      </trkpt>
      <trkpt lat="46.20337" lon="-1.35372">
        <ele>5</ele>
        <time>2025-06-29T09:39:04Z</time>
      </trkpt>
      <trkpt lat="46.20341" lon="-1.35384">
        <ele>4.8</ele>
        <time>2025-06-29T09:39:11Z</time>
      </trkpt>
      <trkpt lat="46.20348" lon="-1.35399">
        <ele>5.2</ele>
        <time>2025-06-29T09:39:20Z</time>
      </trkpt>
      <trkpt lat="46.20349" lon="-1.35402">
        <ele>5.2</ele>
        <time>2025-06-29T09:39:22Z</time>
      </trkpt>
      <trkpt lat="46.2035" lon="-1.35408">
        <ele>4.8</ele>
        <time>2025-06-29T09:39:25Z</time>
      </trkpt>
      <trkpt lat="46.20353" lon="-1.35421">
        <ele>4.6</ele>
        <time>2025-06-29T09:39:31Z</time>
      </trkpt>
      <trkpt lat="46.20353" lon="-1.35425">
        <ele>4.6</ele>
        <time>2025-06-29T09:39:33Z</time>
      </trkpt>
      <trkpt lat="46.20358" lon="-1.35438">
        <ele>4.6</ele>
        <time>2025-06-29T09:39:40Z</time>
      </trkpt>
      <trkpt lat="46.2036" lon="-1.35451">
        <ele>4.6</ele>
        <time>2025-06-29T09:39:47Z</time>
      </trkpt>
      <trkpt lat="46.20361" lon="-1.35452">
        <ele>4.6</ele>
        <time>2025-06-29T09:39:48Z</time>
      </trkpt>
      <trkpt lat="46.20366" lon="-1.35458">
        <ele>4.6</ele>
        <time>2025-06-29T09:39:53Z</time>
      </trkpt>
      <trkpt lat="46.20375" lon="-1.35463">
        <ele>4.2</ele>
        <time>2025-06-29T09:39:59Z</time>
      </trkpt>
      <trkpt lat="46.20379" lon="-1.35466">
        <ele>4.4</ele>
        <time>2025-06-29T09:40:02Z</time>
      </trkpt>
      <trkpt lat="46.20382" lon="-1.35467">
        <ele>4.2</ele>
        <time>2025-06-29T09:40:05Z</time>
      </trkpt>
      <trkpt lat="46.20386" lon="-1.35463">
        <ele>4</ele>
        <time>2025-06-29T09:40:09Z</time>
      </trkpt>
      <trkpt lat="46.20392" lon="-1.35449">
        <ele>4</ele>
        <time>2025-06-29T09:40:18Z</time>
      </trkpt>
      <trkpt lat="46.20399" lon="-1.35438">
        <ele>4</ele>
        <time>2025-06-29T09:40:26Z</time>
      </trkpt>
      <trkpt lat="46.2041" lon="-1.35435">
        <ele>3.6</ele>
        <time>2025-06-29T09:40:35Z</time>
      </trkpt>
      <trkpt lat="46.20411" lon="-1.35436">
        <ele>3.6</ele>
        <time>2025-06-29T09:40:37Z</time>
      </trkpt>
      <trkpt lat="46.20415" lon="-1.35442">
        <ele>3.6</ele>
        <time>2025-06-29T09:40:42Z</time>
      </trkpt>
      <trkpt lat="46.20422" lon="-1.35455">
        <ele>4.2</ele>
        <time>2025-06-29T09:40:52Z</time>
      </trkpt>
      <trkpt lat="46.20425" lon="-1.35457">
        <ele>4.4</ele>
        <time>2025-06-29T09:40:58Z</time>
      </trkpt>
      <trkpt lat="46.20424" lon="-1.35449">
        <ele>4</ele>
        <time>2025-06-29T09:41:05Z</time>
      </trkpt>
      <trkpt lat="46.20424" lon="-1.35447">
        <ele>4</ele>
        <time>2025-06-29T09:41:06Z</time>
      </trkpt>
      <trkpt lat="46.20424" lon="-1.35443">
        <ele>3.4</ele>
        <time>2025-06-29T09:41:10Z</time>
      </trkpt>
      <trkpt lat="46.20424" lon="-1.35442">
        <ele>3.2</ele>
        <time>2025-06-29T09:41:13Z</time>
      </trkpt>
      <trkpt lat="46.20424" lon="-1.35442">
        <ele>3.2</ele>
        <time>2025-06-29T09:41:14Z</time>
      </trkpt>
      <trkpt lat="46.20424" lon="-1.35442">
        <ele>3.2</ele>
        <time>2025-06-29T09:41:17Z</time>
      </trkpt>
      <trkpt lat="46.20424" lon="-1.35444">
        <ele>3.4</ele>
        <time>2025-06-29T09:41:24Z</time>
      </trkpt>
      <trkpt lat="46.20426" lon="-1.35444">
        <ele>3.6</ele>
        <time>2025-06-29T09:41:27Z</time>
      </trkpt>
      <trkpt lat="46.20425" lon="-1.35443">
        <ele>3</ele>
        <time>2025-06-29T09:42:01Z</time>
      </trkpt>
      <trkpt lat="46.20424" lon="-1.35446">
        <ele>3.2</ele>
        <time>2025-06-29T09:42:04Z</time>
      </trkpt>
      <trkpt lat="46.20424" lon="-1.35455">
        <ele>3</ele>
        <time>2025-06-29T09:42:09Z</time>
      </trkpt>
      <trkpt lat="46.20426" lon="-1.35461">
        <ele>3.2</ele>
        <time>2025-06-29T09:42:13Z</time>
      </trkpt>
      <trkpt lat="46.20428" lon="-1.35468">
        <ele>3.4</ele>
        <time>2025-06-29T09:42:17Z</time>
      </trkpt>
      <trkpt lat="46.20432" lon="-1.35473">
        <ele>4.4</ele>
        <time>2025-06-29T09:42:21Z</time>
      </trkpt>
      <trkpt lat="46.20435" lon="-1.35478">
        <ele>4.8</ele>
        <time>2025-06-29T09:42:25Z</time>
      </trkpt>
      <trkpt lat="46.20438" lon="-1.35482">
        <ele>4.8</ele>
        <time>2025-06-29T09:42:28Z</time>
      </trkpt>
      <trkpt lat="46.20445" lon="-1.35495">
        <ele>5.2</ele>
        <time>2025-06-29T09:42:37Z</time>
      </trkpt>
      <trkpt lat="46.20446" lon="-1.35496">
        <ele>5.4</ele>
        <time>2025-06-29T09:42:38Z</time>
      </trkpt>
      <trkpt lat="46.20451" lon="-1.35502">
        <ele>6</ele>
        <time>2025-06-29T09:42:43Z</time>
      </trkpt>
      <trkpt lat="46.20455" lon="-1.35507">
        <ele>6.6</ele>
        <time>2025-06-29T09:42:48Z</time>
      </trkpt>
      <trkpt lat="46.20458" lon="-1.3551">
        <ele>6.4</ele>
        <time>2025-06-29T09:42:51Z</time>
      </trkpt>
      <trkpt lat="46.20463" lon="-1.3551">
        <ele>6.4</ele>
        <time>2025-06-29T09:42:55Z</time>
      </trkpt>
      <trkpt lat="46.20471" lon="-1.35509">
        <ele>6.4</ele>
        <time>2025-06-29T09:43:01Z</time>
      </trkpt>
      <trkpt lat="46.20472" lon="-1.35509">
        <ele>6.4</ele>
        <time>2025-06-29T09:43:02Z</time>
      </trkpt>
      <trkpt lat="46.20476" lon="-1.35509">
        <ele>6.6</ele>
        <time>2025-06-29T09:43:05Z</time>
      </trkpt>
      <trkpt lat="46.2048" lon="-1.35512">
        <ele>6.2</ele>
        <time>2025-06-29T09:43:10Z</time>
      </trkpt>
      <trkpt lat="46.20483" lon="-1.35513">
        <ele>5.8</ele>
        <time>2025-06-29T09:43:17Z</time>
      </trkpt>
      <trkpt lat="46.20485" lon="-1.35514">
        <ele>5.6</ele>
        <time>2025-06-29T09:43:21Z</time>
      </trkpt>
      <trkpt lat="46.20486" lon="-1.35515">
        <ele>5.4</ele>
        <time>2025-06-29T09:43:22Z</time>
      </trkpt>
      <trkpt lat="46.20487" lon="-1.35516">
        <ele>5.4</ele>
        <time>2025-06-29T09:43:24Z</time>
      </trkpt>
      <trkpt lat="46.20488" lon="-1.35515">
        <ele>5.6</ele>
        <time>2025-06-29T09:43:28Z</time>
      </trkpt>
      <trkpt lat="46.20488" lon="-1.35514">
        <ele>5.6</ele>
        <time>2025-06-29T09:43:29Z</time>
      </trkpt>
      <trkpt lat="46.20488" lon="-1.35515">
        <ele>5.6</ele>
        <time>2025-06-29T09:43:34Z</time>
      </trkpt>
      <trkpt lat="46.20492" lon="-1.35522">
        <ele>6.2</ele>
        <time>2025-06-29T09:43:40Z</time>
      </trkpt>
      <trkpt lat="46.20496" lon="-1.3553">
        <ele>5.6</ele>
        <time>2025-06-29T09:43:46Z</time>
      </trkpt>
      <trkpt lat="46.20502" lon="-1.35538">
        <ele>5.8</ele>
        <time>2025-06-29T09:43:53Z</time>
      </trkpt>
      <trkpt lat="46.20512" lon="-1.35543">
        <ele>6.2</ele>
        <time>2025-06-29T09:44:01Z</time>
      </trkpt>
      <trkpt lat="46.2052" lon="-1.3554">
        <ele>6</ele>
        <time>2025-06-29T09:44:09Z</time>
      </trkpt>
      <trkpt lat="46.20533" lon="-1.35535">
        <ele>6</ele>
        <time>2025-06-29T09:44:19Z</time>
      </trkpt>
      <trkpt lat="46.20544" lon="-1.35533">
        <ele>6</ele>
        <time>2025-06-29T09:44:28Z</time>
      </trkpt>
      <trkpt lat="46.20555" lon="-1.35537">
        <ele>6</ele>
        <time>2025-06-29T09:44:37Z</time>
      </trkpt>
      <trkpt lat="46.2056" lon="-1.3554">
        <ele>6</ele>
        <time>2025-06-29T09:44:42Z</time>
      </trkpt>
      <trkpt lat="46.20563" lon="-1.35546">
        <ele>6.2</ele>
        <time>2025-06-29T09:44:47Z</time>
      </trkpt>
      <trkpt lat="46.20566" lon="-1.35555">
        <ele>6.4</ele>
        <time>2025-06-29T09:44:54Z</time>
      </trkpt>
      <trkpt lat="46.20568" lon="-1.35559">
        <ele>6.6</ele>
        <time>2025-06-29T09:44:58Z</time>
      </trkpt>
      <trkpt lat="46.20572" lon="-1.35563">
        <ele>6.6</ele>
        <time>2025-06-29T09:45:02Z</time>
      </trkpt>
      <trkpt lat="46.20576" lon="-1.35571">
        <ele>6.6</ele>
        <time>2025-06-29T09:45:11Z</time>
      </trkpt>
      <trkpt lat="46.20577" lon="-1.35571">
        <ele>7</ele>
        <time>2025-06-29T09:45:16Z</time>
      </trkpt>
      <trkpt lat="46.20577" lon="-1.35572">
        <ele>7</ele>
        <time>2025-06-29T09:45:18Z</time>
      </trkpt>
      <trkpt lat="46.20577" lon="-1.35572">
        <ele>7.2</ele>
        <time>2025-06-29T09:45:25Z</time>
      </trkpt>
      <trkpt lat="46.20575" lon="-1.35571">
        <ele>7.2</ele>
        <time>2025-06-29T09:45:35Z</time>
      </trkpt>
      <trkpt lat="46.20575" lon="-1.35571">
        <ele>7</ele>
        <time>2025-06-29T09:45:42Z</time>
      </trkpt>
      <trkpt lat="46.20575" lon="-1.35572">
        <ele>6.8</ele>
        <time>2025-06-29T09:45:54Z</time>
      </trkpt>
      <trkpt lat="46.20575" lon="-1.35572">
        <ele>6.6</ele>
        <time>2025-06-29T09:45:56Z</time>
      </trkpt>
      <trkpt lat="46.20576" lon="-1.35574">
        <ele>6.4</ele>
        <time>2025-06-29T09:45:58Z</time>
      </trkpt>
      <trkpt lat="46.20578" lon="-1.35583">
        <ele>6.2</ele>
        <time>2025-06-29T09:46:01Z</time>
      </trkpt>
      <trkpt lat="46.20585" lon="-1.35604">
        <ele>5.8</ele>
        <time>2025-06-29T09:46:10Z</time>
      </trkpt>
      <trkpt lat="46.20586" lon="-1.35608">
        <ele>5.4</ele>
        <time>2025-06-29T09:46:13Z</time>
      </trkpt>
      <trkpt lat="46.20589" lon="-1.35618">
        <ele>5.2</ele>
        <time>2025-06-29T09:46:19Z</time>
      </trkpt>
      <trkpt lat="46.20593" lon="-1.35637">
        <ele>4.8</ele>
        <time>2025-06-29T09:46:31Z</time>
      </trkpt>
      <trkpt lat="46.20596" lon="-1.35648">
        <ele>4.4</ele>
        <time>2025-06-29T09:46:39Z</time>
      </trkpt>
      <trkpt lat="46.20598" lon="-1.35651">
        <ele>4.2</ele>
        <time>2025-06-29T09:46:42Z</time>
      </trkpt>
      <trkpt lat="46.20602" lon="-1.35654">
        <ele>4</ele>
        <time>2025-06-29T09:46:50Z</time>
      </trkpt>
      <trkpt lat="46.206" lon="-1.35656">
        <ele>3.8</ele>
        <time>2025-06-29T09:46:54Z</time>
      </trkpt>
      <trkpt lat="46.20598" lon="-1.35659">
        <ele>3.8</ele>
        <time>2025-06-29T09:46:57Z</time>
      </trkpt>
      <trkpt lat="46.206" lon="-1.35665">
        <ele>3.8</ele>
        <time>2025-06-29T09:47:02Z</time>
      </trkpt>
      <trkpt lat="46.20602" lon="-1.35667">
        <ele>3.8</ele>
        <time>2025-06-29T09:47:04Z</time>
      </trkpt>
      <trkpt lat="46.20602" lon="-1.3567">
        <ele>4</ele>
        <time>2025-06-29T09:47:06Z</time>
      </trkpt>
      <trkpt lat="46.20601" lon="-1.35673">
        <ele>4</ele>
        <time>2025-06-29T09:47:10Z</time>
      </trkpt>
      <trkpt lat="46.20601" lon="-1.35674">
        <ele>3.8</ele>
        <time>2025-06-29T09:47:12Z</time>
      </trkpt>
      <trkpt lat="46.206" lon="-1.35674">
        <ele>3.6</ele>
        <time>2025-06-29T09:47:13Z</time>
      </trkpt>
      <trkpt lat="46.20599" lon="-1.35673">
        <ele>3.8</ele>
        <time>2025-06-29T09:47:16Z</time>
      </trkpt>
      <trkpt lat="46.20601" lon="-1.35678">
        <ele>3.6</ele>
        <time>2025-06-29T09:47:25Z</time>
      </trkpt>
      <trkpt lat="46.20603" lon="-1.3569">
        <ele>3.6</ele>
        <time>2025-06-29T09:47:30Z</time>
      </trkpt>
      <trkpt lat="46.20604" lon="-1.35693">
        <ele>3.6</ele>
        <time>2025-06-29T09:47:31Z</time>
      </trkpt>
      <trkpt lat="46.20605" lon="-1.35695">
        <ele>3.6</ele>
        <time>2025-06-29T09:47:32Z</time>
      </trkpt>
      <trkpt lat="46.20605" lon="-1.35704">
        <ele>3.6</ele>
        <time>2025-06-29T09:47:37Z</time>
      </trkpt>
      <trkpt lat="46.20607" lon="-1.35709">
        <ele>3.6</ele>
        <time>2025-06-29T09:47:40Z</time>
      </trkpt>
      <trkpt lat="46.20605" lon="-1.35715">
        <ele>3.6</ele>
        <time>2025-06-29T09:47:44Z</time>
      </trkpt>
      <trkpt lat="46.20605" lon="-1.35717">
        <ele>3.6</ele>
        <time>2025-06-29T09:47:45Z</time>
      </trkpt>
      <trkpt lat="46.20604" lon="-1.35719">
        <ele>3.6</ele>
        <time>2025-06-29T09:47:46Z</time>
      </trkpt>
      <trkpt lat="46.20604" lon="-1.35731">
        <ele>3.6</ele>
        <time>2025-06-29T09:47:53Z</time>
      </trkpt>
      <trkpt lat="46.20603" lon="-1.35738">
        <ele>3.6</ele>
        <time>2025-06-29T09:47:57Z</time>
      </trkpt>
      <trkpt lat="46.20604" lon="-1.35742">
        <ele>3.6</ele>
        <time>2025-06-29T09:47:59Z</time>
      </trkpt>
      <trkpt lat="46.20603" lon="-1.3575">
        <ele>3.6</ele>
        <time>2025-06-29T09:48:04Z</time>
      </trkpt>
      <trkpt lat="46.20602" lon="-1.35764">
        <ele>3.6</ele>
        <time>2025-06-29T09:48:12Z</time>
      </trkpt>
      <trkpt lat="46.20602" lon="-1.35765">
        <ele>3.6</ele>
        <time>2025-06-29T09:48:13Z</time>
      </trkpt>
      <trkpt lat="46.206" lon="-1.3577">
        <ele>3.6</ele>
        <time>2025-06-29T09:48:16Z</time>
      </trkpt>
      <trkpt lat="46.206" lon="-1.35772">
        <ele>3.6</ele>
        <time>2025-06-29T09:48:20Z</time>
      </trkpt>
      <trkpt lat="46.20597" lon="-1.35779">
        <ele>3.6</ele>
        <time>2025-06-29T09:48:32Z</time>
      </trkpt>
      <trkpt lat="46.20597" lon="-1.35789">
        <ele>3.6</ele>
        <time>2025-06-29T09:48:38Z</time>
      </trkpt>
      <trkpt lat="46.20596" lon="-1.3579">
        <ele>3.6</ele>
        <time>2025-06-29T09:48:39Z</time>
      </trkpt>
      <trkpt lat="46.20595" lon="-1.35802">
        <ele>3.4</ele>
        <time>2025-06-29T09:48:46Z</time>
      </trkpt>
      <trkpt lat="46.20594" lon="-1.35809">
        <ele>3.4</ele>
        <time>2025-06-29T09:48:50Z</time>
      </trkpt>
      <trkpt lat="46.20592" lon="-1.3582">
        <ele>3.6</ele>
        <time>2025-06-29T09:48:58Z</time>
      </trkpt>
      <trkpt lat="46.20591" lon="-1.3582">
        <ele>3.6</ele>
        <time>2025-06-29T09:48:59Z</time>
      </trkpt>
      <trkpt lat="46.2059" lon="-1.35821">
        <ele>3.6</ele>
        <time>2025-06-29T09:49:01Z</time>
      </trkpt>
      <trkpt lat="46.20589" lon="-1.35826">
        <ele>3.6</ele>
        <time>2025-06-29T09:49:04Z</time>
      </trkpt>
      <trkpt lat="46.20584" lon="-1.35845">
        <ele>3.4</ele>
        <time>2025-06-29T09:49:15Z</time>
      </trkpt>
      <trkpt lat="46.20584" lon="-1.35846">
        <ele>3.4</ele>
        <time>2025-06-29T09:49:16Z</time>
      </trkpt>
      <trkpt lat="46.2058" lon="-1.35855">
        <ele>3.4</ele>
        <time>2025-06-29T09:49:22Z</time>
      </trkpt>
      <trkpt lat="46.20576" lon="-1.35863">
        <ele>3.4</ele>
        <time>2025-06-29T09:49:30Z</time>
      </trkpt>
      <trkpt lat="46.20577" lon="-1.35867">
        <ele>3.4</ele>
        <time>2025-06-29T09:49:35Z</time>
      </trkpt>
      <trkpt lat="46.20586" lon="-1.35867">
        <ele>3.6</ele>
        <time>2025-06-29T09:49:42Z</time>
      </trkpt>
      <trkpt lat="46.20591" lon="-1.35867">
        <ele>3.6</ele>
        <time>2025-06-29T09:49:48Z</time>
      </trkpt>
      <trkpt lat="46.20592" lon="-1.3587">
        <ele>3.4</ele>
        <time>2025-06-29T09:49:50Z</time>
      </trkpt>
      <trkpt lat="46.20593" lon="-1.35879">
        <ele>3.2</ele>
        <time>2025-06-29T09:49:56Z</time>
      </trkpt>
      <trkpt lat="46.20595" lon="-1.35886">
        <ele>3.2</ele>
        <time>2025-06-29T09:50:01Z</time>
      </trkpt>
      <trkpt lat="46.20595" lon="-1.35887">
        <ele>3.4</ele>
        <time>2025-06-29T09:50:06Z</time>
      </trkpt>
      <trkpt lat="46.20595" lon="-1.35894">
        <ele>3.8</ele>
        <time>2025-06-29T09:50:14Z</time>
      </trkpt>
      <trkpt lat="46.20598" lon="-1.35905">
        <ele>3.2</ele>
        <time>2025-06-29T09:50:22Z</time>
      </trkpt>
      <trkpt lat="46.20599" lon="-1.35905">
        <ele>3.2</ele>
        <time>2025-06-29T09:50:23Z</time>
      </trkpt>
      <trkpt lat="46.20605" lon="-1.359">
        <ele>3.4</ele>
        <time>2025-06-29T09:50:29Z</time>
      </trkpt>
      <trkpt lat="46.20615" lon="-1.35895">
        <ele>3.4</ele>
        <time>2025-06-29T09:50:36Z</time>
      </trkpt>
      <trkpt lat="46.20618" lon="-1.35894">
        <ele>3.4</ele>
        <time>2025-06-29T09:50:39Z</time>
      </trkpt>
      <trkpt lat="46.20623" lon="-1.35891">
        <ele>3.6</ele>
        <time>2025-06-29T09:50:44Z</time>
      </trkpt>
      <trkpt lat="46.20635" lon="-1.35887">
        <ele>3.4</ele>
        <time>2025-06-29T09:50:53Z</time>
      </trkpt>
      <trkpt lat="46.20646" lon="-1.35881">
        <ele>3.6</ele>
        <time>2025-06-29T09:51:02Z</time>
      </trkpt>
      <trkpt lat="46.20654" lon="-1.35869">
        <ele>3.8</ele>
        <time>2025-06-29T09:51:12Z</time>
      </trkpt>
      <trkpt lat="46.20655" lon="-1.35869">
        <ele>4</ele>
        <time>2025-06-29T09:51:18Z</time>
      </trkpt>
      <trkpt lat="46.20655" lon="-1.3587">
        <ele>4</ele>
        <time>2025-06-29T09:51:19Z</time>
      </trkpt>
      <trkpt lat="46.20656" lon="-1.35874">
        <ele>4.4</ele>
        <time>2025-06-29T09:51:21Z</time>
      </trkpt>
      <trkpt lat="46.20656" lon="-1.35879">
        <ele>4.6</ele>
        <time>2025-06-29T09:51:24Z</time>
      </trkpt>
      <trkpt lat="46.20658" lon="-1.35883">
        <ele>4.2</ele>
        <time>2025-06-29T09:51:29Z</time>
      </trkpt>
      <trkpt lat="46.20658" lon="-1.35882">
        <ele>4.4</ele>
        <time>2025-06-29T09:51:33Z</time>
      </trkpt>
      <trkpt lat="46.20659" lon="-1.35881">
        <ele>4.4</ele>
        <time>2025-06-29T09:51:36Z</time>
      </trkpt>
      <trkpt lat="46.20658" lon="-1.3588">
        <ele>3.8</ele>
        <time>2025-06-29T09:51:56Z</time>
      </trkpt>
      <trkpt lat="46.20658" lon="-1.35879">
        <ele>3.4</ele>
        <time>2025-06-29T09:52:00Z</time>
      </trkpt>
      <trkpt lat="46.20659" lon="-1.35882">
        <ele>3.8</ele>
        <time>2025-06-29T09:52:05Z</time>
      </trkpt>
      <trkpt lat="46.20663" lon="-1.35878">
        <ele>4.4</ele>
        <time>2025-06-29T09:52:14Z</time>
      </trkpt>
      <trkpt lat="46.20663" lon="-1.35878">
        <ele>4.6</ele>
        <time>2025-06-29T09:52:20Z</time>
      </trkpt>
      <trkpt lat="46.20663" lon="-1.35878">
        <ele>4.4</ele>
        <time>2025-06-29T09:52:33Z</time>
      </trkpt>
      <trkpt lat="46.20663" lon="-1.35878">
        <ele>4.2</ele>
        <time>2025-06-29T09:52:41Z</time>
      </trkpt>
      <trkpt lat="46.20663" lon="-1.35878">
        <ele>4.2</ele>
        <time>2025-06-29T09:52:43Z</time>
      </trkpt>
      <trkpt lat="46.20663" lon="-1.35878">
        <ele>4.2</ele>
        <time>2025-06-29T09:52:46Z</time>
      </trkpt>
      <trkpt lat="46.20663" lon="-1.35878">
        <ele>4.2</ele>
        <time>2025-06-29T09:52:47Z</time>
      </trkpt>
      <trkpt lat="46.20663" lon="-1.35878">
        <ele>4.2</ele>
        <time>2025-06-29T09:52:49Z</time>
      </trkpt>
      <trkpt lat="46.20663" lon="-1.35874">
        <ele>4.2</ele>
        <time>2025-06-29T09:52:57Z</time>
      </trkpt>
      <trkpt lat="46.20659" lon="-1.35869">
        <ele>3.6</ele>
        <time>2025-06-29T09:53:13Z</time>
      </trkpt>
      <trkpt lat="46.20659" lon="-1.35868">
        <ele>4</ele>
        <time>2025-06-29T09:53:26Z</time>
      </trkpt>
      <trkpt lat="46.2066" lon="-1.35868">
        <ele>4</ele>
        <time>2025-06-29T09:53:33Z</time>
      </trkpt>
      <trkpt lat="46.20661" lon="-1.35873">
        <ele>3.4</ele>
        <time>2025-06-29T09:53:40Z</time>
      </trkpt>
      <trkpt lat="46.20661" lon="-1.35875">
        <ele>3.6</ele>
        <time>2025-06-29T09:53:41Z</time>
      </trkpt>
      <trkpt lat="46.20658" lon="-1.35883">
        <ele>3.2</ele>
        <time>2025-06-29T09:53:49Z</time>
      </trkpt>
      <trkpt lat="46.20653" lon="-1.35888">
        <ele>3.6</ele>
        <time>2025-06-29T09:53:54Z</time>
      </trkpt>
      <trkpt lat="46.20649" lon="-1.35893">
        <ele>3.8</ele>
        <time>2025-06-29T09:53:58Z</time>
      </trkpt>
      <trkpt lat="46.20646" lon="-1.35898">
        <ele>3.8</ele>
        <time>2025-06-29T09:54:02Z</time>
      </trkpt>
      <trkpt lat="46.20633" lon="-1.35911">
        <ele>3.4</ele>
        <time>2025-06-29T09:54:14Z</time>
      </trkpt>
      <trkpt lat="46.20626" lon="-1.35916">
        <ele>3.4</ele>
        <time>2025-06-29T09:54:19Z</time>
      </trkpt>
      <trkpt lat="46.20623" lon="-1.35919">
        <ele>3.4</ele>
        <time>2025-06-29T09:54:22Z</time>
      </trkpt>
      <trkpt lat="46.20616" lon="-1.35922">
        <ele>3.6</ele>
        <time>2025-06-29T09:54:27Z</time>
      </trkpt>
      <trkpt lat="46.20614" lon="-1.35923">
        <ele>3.6</ele>
        <time>2025-06-29T09:54:29Z</time>
      </trkpt>
      <trkpt lat="46.2061" lon="-1.35926">
        <ele>3.6</ele>
        <time>2025-06-29T09:54:33Z</time>
      </trkpt>
      <trkpt lat="46.20611" lon="-1.35928">
        <ele>3.4</ele>
        <time>2025-06-29T09:54:36Z</time>
      </trkpt>
      <trkpt lat="46.2061" lon="-1.35927">
        <ele>3.2</ele>
        <time>2025-06-29T09:54:45Z</time>
      </trkpt>
      <trkpt lat="46.20608" lon="-1.35927">
        <ele>3.2</ele>
        <time>2025-06-29T09:54:48Z</time>
      </trkpt>
      <trkpt lat="46.20605" lon="-1.35928">
        <ele>3</ele>
        <time>2025-06-29T09:54:51Z</time>
      </trkpt>
      <trkpt lat="46.20604" lon="-1.35934">
        <ele>3</ele>
        <time>2025-06-29T09:54:56Z</time>
      </trkpt>
      <trkpt lat="46.20607" lon="-1.35947">
        <ele>3</ele>
        <time>2025-06-29T09:55:05Z</time>
      </trkpt>
      <trkpt lat="46.20608" lon="-1.35954">
        <ele>3</ele>
        <time>2025-06-29T09:55:11Z</time>
      </trkpt>
      <trkpt lat="46.20608" lon="-1.35954">
        <ele>3</ele>
        <time>2025-06-29T09:55:12Z</time>
      </trkpt>
      <trkpt lat="46.20607" lon="-1.35954">
        <ele>3</ele>
        <time>2025-06-29T09:55:16Z</time>
      </trkpt>
      <trkpt lat="46.20608" lon="-1.35954">
        <ele>2.8</ele>
        <time>2025-06-29T09:55:19Z</time>
      </trkpt>
      <trkpt lat="46.20607" lon="-1.35953">
        <ele>2.8</ele>
        <time>2025-06-29T09:55:28Z</time>
      </trkpt>
      <trkpt lat="46.20607" lon="-1.35953">
        <ele>2.8</ele>
        <time>2025-06-29T09:55:36Z</time>
      </trkpt>
      <trkpt lat="46.20607" lon="-1.35953">
        <ele>2.6</ele>
        <time>2025-06-29T09:55:37Z</time>
      </trkpt>
      <trkpt lat="46.2061" lon="-1.35961">
        <ele>2.6</ele>
        <time>2025-06-29T09:55:42Z</time>
      </trkpt>
      <trkpt lat="46.20615" lon="-1.35974">
        <ele>2.8</ele>
        <time>2025-06-29T09:55:48Z</time>
      </trkpt>
      <trkpt lat="46.20615" lon="-1.35988">
        <ele>2.8</ele>
        <time>2025-06-29T09:55:55Z</time>
      </trkpt>
      <trkpt lat="46.20615" lon="-1.3599">
        <ele>2.8</ele>
        <time>2025-06-29T09:55:56Z</time>
      </trkpt>
      <trkpt lat="46.20615" lon="-1.35993">
        <ele>2.8</ele>
        <time>2025-06-29T09:55:58Z</time>
      </trkpt>
      <trkpt lat="46.20617" lon="-1.35999">
        <ele>3</ele>
        <time>2025-06-29T09:56:02Z</time>
      </trkpt>
      <trkpt lat="46.20621" lon="-1.36011">
        <ele>3.2</ele>
        <time>2025-06-29T09:56:10Z</time>
      </trkpt>
      <trkpt lat="46.20622" lon="-1.36027">
        <ele>3</ele>
        <time>2025-06-29T09:56:18Z</time>
      </trkpt>
      <trkpt lat="46.20622" lon="-1.36045">
        <ele>3</ele>
        <time>2025-06-29T09:56:28Z</time>
      </trkpt>
      <trkpt lat="46.2062" lon="-1.36058">
        <ele>3</ele>
        <time>2025-06-29T09:56:38Z</time>
      </trkpt>
      <trkpt lat="46.20619" lon="-1.36061">
        <ele>3.2</ele>
        <time>2025-06-29T09:56:42Z</time>
      </trkpt>
      <trkpt lat="46.20617" lon="-1.36066">
        <ele>3.4</ele>
        <time>2025-06-29T09:56:45Z</time>
      </trkpt>
      <trkpt lat="46.20617" lon="-1.36068">
        <ele>3.2</ele>
        <time>2025-06-29T09:56:46Z</time>
      </trkpt>
      <trkpt lat="46.2062" lon="-1.36075">
        <ele>3.2</ele>
        <time>2025-06-29T09:56:51Z</time>
      </trkpt>
      <trkpt lat="46.20624" lon="-1.36082">
        <ele>3.4</ele>
        <time>2025-06-29T09:56:56Z</time>
      </trkpt>
      <trkpt lat="46.20625" lon="-1.36084">
        <ele>3.6</ele>
        <time>2025-06-29T09:56:58Z</time>
      </trkpt>
      <trkpt lat="46.20626" lon="-1.36084">
        <ele>3.8</ele>
        <time>2025-06-29T09:56:59Z</time>
      </trkpt>
      <trkpt lat="46.20626" lon="-1.36088">
        <ele>4.4</ele>
        <time>2025-06-29T09:57:02Z</time>
      </trkpt>
      <trkpt lat="46.20627" lon="-1.3609">
        <ele>4.4</ele>
        <time>2025-06-29T09:57:03Z</time>
      </trkpt>
      <trkpt lat="46.20627" lon="-1.36092">
        <ele>4.4</ele>
        <time>2025-06-29T09:57:04Z</time>
      </trkpt>
      <trkpt lat="46.20632" lon="-1.36101">
        <ele>4.2</ele>
        <time>2025-06-29T09:57:10Z</time>
      </trkpt>
      <trkpt lat="46.20634" lon="-1.36105">
        <ele>4.2</ele>
        <time>2025-06-29T09:57:13Z</time>
      </trkpt>
      <trkpt lat="46.20633" lon="-1.36117">
        <ele>4</ele>
        <time>2025-06-29T09:57:20Z</time>
      </trkpt>
      <trkpt lat="46.20633" lon="-1.36117">
        <ele>4</ele>
        <time>2025-06-29T09:57:21Z</time>
      </trkpt>
      <trkpt lat="46.20633" lon="-1.36118">
        <ele>4</ele>
        <time>2025-06-29T09:57:22Z</time>
      </trkpt>
      <trkpt lat="46.20633" lon="-1.36123">
        <ele>4</ele>
        <time>2025-06-29T09:57:25Z</time>
      </trkpt>
      <trkpt lat="46.20633" lon="-1.3614">
        <ele>4</ele>
        <time>2025-06-29T09:57:34Z</time>
      </trkpt>
      <trkpt lat="46.20633" lon="-1.36142">
        <ele>4</ele>
        <time>2025-06-29T09:57:35Z</time>
      </trkpt>
      <trkpt lat="46.20633" lon="-1.36155">
        <ele>4</ele>
        <time>2025-06-29T09:57:42Z</time>
      </trkpt>
      <trkpt lat="46.20632" lon="-1.36176">
        <ele>4.2</ele>
        <time>2025-06-29T09:57:53Z</time>
      </trkpt>
      <trkpt lat="46.20632" lon="-1.36178">
        <ele>4.2</ele>
        <time>2025-06-29T09:57:54Z</time>
      </trkpt>
      <trkpt lat="46.20633" lon="-1.36183">
        <ele>4.4</ele>
        <time>2025-06-29T09:57:57Z</time>
      </trkpt>
      <trkpt lat="46.20633" lon="-1.36185">
        <ele>4.4</ele>
        <time>2025-06-29T09:57:58Z</time>
      </trkpt>
      <trkpt lat="46.20633" lon="-1.36196">
        <ele>4.4</ele>
        <time>2025-06-29T09:58:05Z</time>
      </trkpt>
      <trkpt lat="46.20634" lon="-1.3621">
        <ele>4.4</ele>
        <time>2025-06-29T09:58:13Z</time>
      </trkpt>
      <trkpt lat="46.20632" lon="-1.36231">
        <ele>4.4</ele>
        <time>2025-06-29T09:58:24Z</time>
      </trkpt>
      <trkpt lat="46.20633" lon="-1.3625">
        <ele>4.4</ele>
        <time>2025-06-29T09:58:34Z</time>
      </trkpt>
      <trkpt lat="46.20635" lon="-1.36265">
        <ele>4.6</ele>
        <time>2025-06-29T09:58:42Z</time>
      </trkpt>
      <trkpt lat="46.20635" lon="-1.36269">
        <ele>4.6</ele>
        <time>2025-06-29T09:58:44Z</time>
      </trkpt>
      <trkpt lat="46.20635" lon="-1.36282">
        <ele>4.6</ele>
        <time>2025-06-29T09:58:51Z</time>
      </trkpt>
      <trkpt lat="46.20637" lon="-1.36294">
        <ele>4.8</ele>
        <time>2025-06-29T09:58:57Z</time>
      </trkpt>
      <trkpt lat="46.20638" lon="-1.36303">
        <ele>4.8</ele>
        <time>2025-06-29T09:59:02Z</time>
      </trkpt>
      <trkpt lat="46.20639" lon="-1.36322">
        <ele>4.8</ele>
        <time>2025-06-29T09:59:12Z</time>
      </trkpt>
      <trkpt lat="46.20639" lon="-1.3634">
        <ele>4.8</ele>
        <time>2025-06-29T09:59:21Z</time>
      </trkpt>
      <trkpt lat="46.2064" lon="-1.36357">
        <ele>4.8</ele>
        <time>2025-06-29T09:59:30Z</time>
      </trkpt>
      <trkpt lat="46.20647" lon="-1.36365">
        <ele>5</ele>
        <time>2025-06-29T09:59:37Z</time>
      </trkpt>
      <trkpt lat="46.20655" lon="-1.36373">
        <ele>5.2</ele>
        <time>2025-06-29T09:59:44Z</time>
      </trkpt>
      <trkpt lat="46.20661" lon="-1.36379">
        <ele>5.2</ele>
        <time>2025-06-29T09:59:50Z</time>
      </trkpt>
      <trkpt lat="46.20664" lon="-1.36383">
        <ele>5.2</ele>
        <time>2025-06-29T09:59:53Z</time>
      </trkpt>
      <trkpt lat="46.20665" lon="-1.36384">
        <ele>5.2</ele>
        <time>2025-06-29T09:59:54Z</time>
      </trkpt>
      <trkpt lat="46.20672" lon="-1.36388">
        <ele>5.2</ele>
        <time>2025-06-29T09:59:59Z</time>
      </trkpt>
      <trkpt lat="46.2068" lon="-1.36396">
        <ele>5.4</ele>
        <time>2025-06-29T10:00:06Z</time>
      </trkpt>
      <trkpt lat="46.20681" lon="-1.36397">
        <ele>5.4</ele>
        <time>2025-06-29T10:00:07Z</time>
      </trkpt>
      <trkpt lat="46.20692" lon="-1.36409">
        <ele>5.4</ele>
        <time>2025-06-29T10:00:17Z</time>
      </trkpt>
      <trkpt lat="46.20694" lon="-1.36411">
        <ele>5.4</ele>
        <time>2025-06-29T10:00:18Z</time>
      </trkpt>
      <trkpt lat="46.20703" lon="-1.36419">
        <ele>5.6</ele>
        <time>2025-06-29T10:00:26Z</time>
      </trkpt>
      <trkpt lat="46.20704" lon="-1.3642">
        <ele>5.6</ele>
        <time>2025-06-29T10:00:27Z</time>
      </trkpt>
      <trkpt lat="46.20704" lon="-1.36421">
        <ele>5.6</ele>
        <time>2025-06-29T10:00:28Z</time>
      </trkpt>
      <trkpt lat="46.20711" lon="-1.36427">
        <ele>5.6</ele>
        <time>2025-06-29T10:00:34Z</time>
      </trkpt>
      <trkpt lat="46.2072" lon="-1.36438">
        <ele>5.8</ele>
        <time>2025-06-29T10:00:42Z</time>
      </trkpt>
      <trkpt lat="46.20723" lon="-1.36441">
        <ele>5.8</ele>
        <time>2025-06-29T10:00:45Z</time>
      </trkpt>
      <trkpt lat="46.20726" lon="-1.36444">
        <ele>5.8</ele>
        <time>2025-06-29T10:00:48Z</time>
      </trkpt>
      <trkpt lat="46.20736" lon="-1.36456">
        <ele>6</ele>
        <time>2025-06-29T10:00:59Z</time>
      </trkpt>
      <trkpt lat="46.20743" lon="-1.36463">
        <ele>6.2</ele>
        <time>2025-06-29T10:01:07Z</time>
      </trkpt>
      <trkpt lat="46.20745" lon="-1.36466">
        <ele>6.6</ele>
        <time>2025-06-29T10:01:09Z</time>
      </trkpt>
      <trkpt lat="46.20746" lon="-1.36472">
        <ele>6.8</ele>
        <time>2025-06-29T10:01:13Z</time>
      </trkpt>
      <trkpt lat="46.20747" lon="-1.36476">
        <ele>6.8</ele>
        <time>2025-06-29T10:01:15Z</time>
      </trkpt>
      <trkpt lat="46.20748" lon="-1.36489">
        <ele>6.8</ele>
        <time>2025-06-29T10:01:23Z</time>
      </trkpt>
      <trkpt lat="46.20748" lon="-1.36496">
        <ele>6.8</ele>
        <time>2025-06-29T10:01:27Z</time>
      </trkpt>
      <trkpt lat="46.20747" lon="-1.36503">
        <ele>6.8</ele>
        <time>2025-06-29T10:01:31Z</time>
      </trkpt>
      <trkpt lat="46.20746" lon="-1.36518">
        <ele>6.8</ele>
        <time>2025-06-29T10:01:40Z</time>
      </trkpt>
      <trkpt lat="46.20744" lon="-1.36535">
        <ele>6.8</ele>
        <time>2025-06-29T10:01:49Z</time>
      </trkpt>
      <trkpt lat="46.20739" lon="-1.36553">
        <ele>6.2</ele>
        <time>2025-06-29T10:01:59Z</time>
      </trkpt>
      <trkpt lat="46.20733" lon="-1.3656">
        <ele>6</ele>
        <time>2025-06-29T10:02:06Z</time>
      </trkpt>
      <trkpt lat="46.20732" lon="-1.3656">
        <ele>6</ele>
        <time>2025-06-29T10:02:08Z</time>
      </trkpt>
      <trkpt lat="46.20728" lon="-1.3656">
        <ele>5.8</ele>
        <time>2025-06-29T10:02:12Z</time>
      </trkpt>
      <trkpt lat="46.20725" lon="-1.36562">
        <ele>5.6</ele>
        <time>2025-06-29T10:02:15Z</time>
      </trkpt>
      <trkpt lat="46.20725" lon="-1.36567">
        <ele>5.6</ele>
        <time>2025-06-29T10:02:18Z</time>
      </trkpt>
      <trkpt lat="46.20722" lon="-1.36579">
        <ele>5.6</ele>
        <time>2025-06-29T10:02:25Z</time>
      </trkpt>
      <trkpt lat="46.20718" lon="-1.36585">
        <ele>5.6</ele>
        <time>2025-06-29T10:02:30Z</time>
      </trkpt>
      <trkpt lat="46.20716" lon="-1.36586">
        <ele>5.4</ele>
        <time>2025-06-29T10:02:32Z</time>
      </trkpt>
      <trkpt lat="46.20715" lon="-1.36587">
        <ele>5.4</ele>
        <time>2025-06-29T10:02:33Z</time>
      </trkpt>
      <trkpt lat="46.20708" lon="-1.36594">
        <ele>4.4</ele>
        <time>2025-06-29T10:02:41Z</time>
      </trkpt>
      <trkpt lat="46.20706" lon="-1.36595">
        <ele>4.4</ele>
        <time>2025-06-29T10:02:42Z</time>
      </trkpt>
      <trkpt lat="46.20704" lon="-1.36599">
        <ele>3.8</ele>
        <time>2025-06-29T10:02:45Z</time>
      </trkpt>
      <trkpt lat="46.20702" lon="-1.36601">
        <ele>3.4</ele>
        <time>2025-06-29T10:02:47Z</time>
      </trkpt>
      <trkpt lat="46.207" lon="-1.36603">
        <ele>3.2</ele>
        <time>2025-06-29T10:02:49Z</time>
      </trkpt>
      <trkpt lat="46.20691" lon="-1.36608">
        <ele>2.8</ele>
        <time>2025-06-29T10:02:57Z</time>
      </trkpt>
      <trkpt lat="46.20689" lon="-1.36609">
        <ele>2.8</ele>
        <time>2025-06-29T10:02:58Z</time>
      </trkpt>
      <trkpt lat="46.20686" lon="-1.3661">
        <ele>2.4</ele>
        <time>2025-06-29T10:03:01Z</time>
      </trkpt>
      <trkpt lat="46.20679" lon="-1.36611">
        <ele>2</ele>
        <time>2025-06-29T10:03:06Z</time>
      </trkpt>
      <trkpt lat="46.20672" lon="-1.36612">
        <ele>2</ele>
        <time>2025-06-29T10:03:13Z</time>
      </trkpt>
      <trkpt lat="46.20666" lon="-1.36612">
        <ele>1.4</ele>
        <time>2025-06-29T10:03:18Z</time>
      </trkpt>
      <trkpt lat="46.20662" lon="-1.36613">
        <ele>1</ele>
        <time>2025-06-29T10:03:23Z</time>
      </trkpt>
      <trkpt lat="46.20656" lon="-1.36616">
        <ele>0.80000000000001</ele>
        <time>2025-06-29T10:03:29Z</time>
      </trkpt>
      <trkpt lat="46.20656" lon="-1.36616">
        <ele>0.80000000000001</ele>
        <time>2025-06-29T10:03:31Z</time>
      </trkpt>
      <trkpt lat="46.2065" lon="-1.36618">
        <ele>0.80000000000001</ele>
        <time>2025-06-29T10:03:37Z</time>
      </trkpt>
      <trkpt lat="46.20647" lon="-1.36619">
        <ele>0.19999999999999</ele>
        <time>2025-06-29T10:03:42Z</time>
      </trkpt>
      <trkpt lat="46.20646" lon="-1.36619">
        <ele>0.19999999999999</ele>
        <time>2025-06-29T10:03:43Z</time>
      </trkpt>
      <trkpt lat="46.20642" lon="-1.36623">
        <ele>0.19999999999999</ele>
        <time>2025-06-29T10:03:49Z</time>
      </trkpt>
      <trkpt lat="46.20647" lon="-1.36622">
        <ele>0.19999999999999</ele>
        <time>2025-06-29T10:03:56Z</time>
      </trkpt>
      <trkpt lat="46.20649" lon="-1.36622">
        <ele>0.39999999999998</ele>
        <time>2025-06-29T10:03:59Z</time>
      </trkpt>
      <trkpt lat="46.2065" lon="-1.36622">
        <ele>0.39999999999998</ele>
        <time>2025-06-29T10:04:01Z</time>
      </trkpt>
      <trkpt lat="46.20648" lon="-1.36621">
        <ele>0.19999999999999</ele>
        <time>2025-06-29T10:04:05Z</time>
      </trkpt>
      <trkpt lat="46.20648" lon="-1.36621">
        <ele>0.19999999999999</ele>
        <time>2025-06-29T10:04:08Z</time>
      </trkpt>
      <trkpt lat="46.20647" lon="-1.36621">
        <ele>0.19999999999999</ele>
        <time>2025-06-29T10:04:23Z</time>
      </trkpt>
      <trkpt lat="46.20638" lon="-1.36621">
        <ele>0.39999999999998</ele>
        <time>2025-06-29T10:04:29Z</time>
      </trkpt>
      <trkpt lat="46.20633" lon="-1.36622">
        <ele>0.19999999999999</ele>
        <time>2025-06-29T10:04:35Z</time>
      </trkpt>
      <trkpt lat="46.20629" lon="-1.36623">
        <ele>0.19999999999999</ele>
        <time>2025-06-29T10:04:39Z</time>
      </trkpt>
      <trkpt lat="46.20628" lon="-1.36623">
        <ele>0.19999999999999</ele>
        <time>2025-06-29T10:04:40Z</time>
      </trkpt>
      <trkpt lat="46.20626" lon="-1.36624">
        <ele>0.19999999999999</ele>
        <time>2025-06-29T10:04:42Z</time>
      </trkpt>
      <trkpt lat="46.20614" lon="-1.36629">
        <ele>0.19999999999999</ele>
        <time>2025-06-29T10:04:51Z</time>
      </trkpt>
      <trkpt lat="46.20603" lon="-1.36631">
        <ele>0.19999999999999</ele>
        <time>2025-06-29T10:05:01Z</time>
      </trkpt>
      <trkpt lat="46.20593" lon="-1.36631">
        <ele>0.19999999999999</ele>
        <time>2025-06-29T10:05:08Z</time>
      </trkpt>
      <trkpt lat="46.2059" lon="-1.36632">
        <ele>0.19999999999999</ele>
        <time>2025-06-29T10:05:12Z</time>
      </trkpt>
      <trkpt lat="46.2059" lon="-1.36631">
        <ele>0.39999999999998</ele>
        <time>2025-06-29T10:05:14Z</time>
      </trkpt>
      <trkpt lat="46.2059" lon="-1.36632">
        <ele>0.39999999999998</ele>
        <time>2025-06-29T10:05:19Z</time>
      </trkpt>
      <trkpt lat="46.2059" lon="-1.36632">
        <ele>0.19999999999999</ele>
        <time>2025-06-29T10:05:27Z</time>
      </trkpt>
      <trkpt lat="46.20587" lon="-1.36633">
        <ele>0.19999999999999</ele>
        <time>2025-06-29T10:05:35Z</time>
      </trkpt>
      <trkpt lat="46.20588" lon="-1.36634">
        <ele>0.39999999999998</ele>
        <time>2025-06-29T10:05:39Z</time>
      </trkpt>
      <trkpt lat="46.20599" lon="-1.36663">
        <ele>2.4</ele>
        <time>2025-06-29T10:11:04Z</time>
      </trkpt>
      <trkpt lat="46.20599" lon="-1.3666">
        <ele>2.6</ele>
        <time>2025-06-29T10:11:05Z</time>
      </trkpt>
      <trkpt lat="46.20593" lon="-1.36656">
        <ele>2.6</ele>
        <time>2025-06-29T10:11:11Z</time>
      </trkpt>
      <trkpt lat="46.20584" lon="-1.3665">
        <ele>2.6</ele>
        <time>2025-06-29T10:11:17Z</time>
      </trkpt>
      <trkpt lat="46.20569" lon="-1.36645">
        <ele>2.4</ele>
        <time>2025-06-29T10:11:24Z</time>
      </trkpt>
      <trkpt lat="46.20559" lon="-1.36643">
        <ele>2.4</ele>
        <time>2025-06-29T10:11:31Z</time>
      </trkpt>
      <trkpt lat="46.20553" lon="-1.36641">
        <ele>2.8</ele>
        <time>2025-06-29T10:11:37Z</time>
      </trkpt>
      <trkpt lat="46.2055" lon="-1.36642">
        <ele>2.8</ele>
        <time>2025-06-29T10:11:40Z</time>
      </trkpt>
      <trkpt lat="46.20546" lon="-1.36641">
        <ele>2.8</ele>
        <time>2025-06-29T10:11:44Z</time>
      </trkpt>
      <trkpt lat="46.20542" lon="-1.36643">
        <ele>2.8</ele>
        <time>2025-06-29T10:11:49Z</time>
      </trkpt>
      <trkpt lat="46.20529" lon="-1.36648">
        <ele>3</ele>
        <time>2025-06-29T10:11:59Z</time>
      </trkpt>
      <trkpt lat="46.20522" lon="-1.36653">
        <ele>2.6</ele>
        <time>2025-06-29T10:12:06Z</time>
      </trkpt>
      <trkpt lat="46.20522" lon="-1.36655">
        <ele>2.6</ele>
        <time>2025-06-29T10:12:08Z</time>
      </trkpt>
      <trkpt lat="46.2052" lon="-1.36657">
        <ele>2.2</ele>
        <time>2025-06-29T10:12:14Z</time>
      </trkpt>
      <trkpt lat="46.20521" lon="-1.36655">
        <ele>2.2</ele>
        <time>2025-06-29T10:12:18Z</time>
      </trkpt>
      <trkpt lat="46.20528" lon="-1.36651">
        <ele>2.2</ele>
        <time>2025-06-29T10:20:18Z</time>
      </trkpt>
      <trkpt lat="46.20527" lon="-1.36652">
        <ele>2.2</ele>
        <time>2025-06-29T10:20:19Z</time>
      </trkpt>
      <trkpt lat="46.20515" lon="-1.36661">
        <ele>0.39999999999998</ele>
        <time>2025-06-29T10:20:30Z</time>
      </trkpt>
      <trkpt lat="46.20509" lon="-1.36675">
        <ele>-0.19999999999999</ele>
        <time>2025-06-29T10:20:40Z</time>
      </trkpt>
      <trkpt lat="46.20508" lon="-1.36677">
        <ele>-0.39999999999998</ele>
        <time>2025-06-29T10:20:42Z</time>
      </trkpt>
      <trkpt lat="46.20506" lon="-1.36683">
        <ele>-0.60000000000002</ele>
        <time>2025-06-29T10:20:46Z</time>
      </trkpt>
      <trkpt lat="46.20505" lon="-1.36686">
        <ele>-0.39999999999998</ele>
        <time>2025-06-29T10:20:48Z</time>
      </trkpt>
      <trkpt lat="46.20503" lon="-1.36693">
        <ele>-0.39999999999998</ele>
        <time>2025-06-29T10:20:52Z</time>
      </trkpt>
      <trkpt lat="46.20503" lon="-1.36697">
        <ele>-0.39999999999998</ele>
        <time>2025-06-29T10:20:54Z</time>
      </trkpt>
      <trkpt lat="46.205" lon="-1.36711">
        <ele>-0.60000000000002</ele>
        <time>2025-06-29T10:21:03Z</time>
      </trkpt>
      <trkpt lat="46.20494" lon="-1.36729">
        <ele>-0.39999999999998</ele>
        <time>2025-06-29T10:21:14Z</time>
      </trkpt>
      <trkpt lat="46.20492" lon="-1.36742">
        <ele>-0.39999999999998</ele>
        <time>2025-06-29T10:21:22Z</time>
      </trkpt>
      <trkpt lat="46.20498" lon="-1.36751">
        <ele>-0.19999999999999</ele>
        <time>2025-06-29T10:21:30Z</time>
      </trkpt>
      <trkpt lat="46.20508" lon="-1.36758">
        <ele>-0.19999999999999</ele>
        <time>2025-06-29T10:21:39Z</time>
      </trkpt>
      <trkpt lat="46.20509" lon="-1.36759">
        <ele>-0.19999999999999</ele>
        <time>2025-06-29T10:21:40Z</time>
      </trkpt>
      <trkpt lat="46.20514" lon="-1.36761">
        <ele>-0.19999999999999</ele>
        <time>2025-06-29T10:21:44Z</time>
      </trkpt>
      <trkpt lat="46.20521" lon="-1.36762">
        <ele>-0.19999999999999</ele>
        <time>2025-06-29T10:21:50Z</time>
      </trkpt>
      <trkpt lat="46.20527" lon="-1.3676">
        <ele>-0.19999999999999</ele>
        <time>2025-06-29T10:21:56Z</time>
      </trkpt>
      <trkpt lat="46.20532" lon="-1.36758">
        <ele>2.8</ele>
        <time>2025-06-29T10:50:48Z</time>
      </trkpt>
      <trkpt lat="46.20534" lon="-1.36757">
        <ele>2.8</ele>
        <time>2025-06-29T10:50:50Z</time>
      </trkpt>
      <trkpt lat="46.20536" lon="-1.36752">
        <ele>2.6</ele>
        <time>2025-06-29T10:50:54Z</time>
      </trkpt>
      <trkpt lat="46.20538" lon="-1.36749">
        <ele>2.4</ele>
        <time>2025-06-29T10:50:56Z</time>
      </trkpt>
      <trkpt lat="46.20545" lon="-1.36744">
        <ele>2.4</ele>
        <time>2025-06-29T10:51:03Z</time>
      </trkpt>
      <trkpt lat="46.20552" lon="-1.36739">
        <ele>2.4</ele>
        <time>2025-06-29T10:51:09Z</time>
      </trkpt>
      <trkpt lat="46.20554" lon="-1.36736">
        <ele>2.6</ele>
        <time>2025-06-29T10:51:11Z</time>
      </trkpt>
      <trkpt lat="46.20557" lon="-1.36733">
        <ele>2.6</ele>
        <time>2025-06-29T10:51:14Z</time>
      </trkpt>
      <trkpt lat="46.20562" lon="-1.36727">
        <ele>2.8</ele>
        <time>2025-06-29T10:51:20Z</time>
      </trkpt>
      <trkpt lat="46.20564" lon="-1.36726">
        <ele>2.8</ele>
        <time>2025-06-29T10:51:21Z</time>
      </trkpt>
      <trkpt lat="46.20564" lon="-1.36725">
        <ele>2.8</ele>
        <time>2025-06-29T10:51:22Z</time>
      </trkpt>
      <trkpt lat="46.20566" lon="-1.36722">
        <ele>2.8</ele>
        <time>2025-06-29T10:51:25Z</time>
      </trkpt>
      <trkpt lat="46.20569" lon="-1.36717">
        <ele>2.8</ele>
        <time>2025-06-29T10:51:29Z</time>
      </trkpt>
      <trkpt lat="46.2057" lon="-1.36716">
        <ele>2.8</ele>
        <time>2025-06-29T10:51:30Z</time>
      </trkpt>
      <trkpt lat="46.20571" lon="-1.36715">
        <ele>2.8</ele>
        <time>2025-06-29T10:51:31Z</time>
      </trkpt>
      <trkpt lat="46.20578" lon="-1.36711">
        <ele>2.8</ele>
        <time>2025-06-29T10:51:37Z</time>
      </trkpt>
      <trkpt lat="46.20579" lon="-1.36711">
        <ele>2.8</ele>
        <time>2025-06-29T10:51:38Z</time>
      </trkpt>
      <trkpt lat="46.2059" lon="-1.3671">
        <ele>2.6</ele>
        <time>2025-06-29T10:51:47Z</time>
      </trkpt>
      <trkpt lat="46.20597" lon="-1.36712">
        <ele>2.8</ele>
        <time>2025-06-29T10:51:54Z</time>
      </trkpt>
      <trkpt lat="46.20598" lon="-1.36711">
        <ele>2.8</ele>
        <time>2025-06-29T10:51:56Z</time>
      </trkpt>
      <trkpt lat="46.206" lon="-1.3671">
        <ele>2.8</ele>
        <time>2025-06-29T10:51:57Z</time>
      </trkpt>
      <trkpt lat="46.20604" lon="-1.3671">
        <ele>2.8</ele>
        <time>2025-06-29T10:52:01Z</time>
      </trkpt>
      <trkpt lat="46.20605" lon="-1.3671">
        <ele>2.8</ele>
        <time>2025-06-29T10:52:02Z</time>
      </trkpt>
      <trkpt lat="46.20611" lon="-1.36713">
        <ele>2.8</ele>
        <time>2025-06-29T10:52:07Z</time>
      </trkpt>
      <trkpt lat="46.20615" lon="-1.36715">
        <ele>2.8</ele>
        <time>2025-06-29T10:52:10Z</time>
      </trkpt>
      <trkpt lat="46.20615" lon="-1.36717">
        <ele>2.8</ele>
        <time>2025-06-29T10:52:11Z</time>
      </trkpt>
      <trkpt lat="46.20615" lon="-1.36719">
        <ele>2.8</ele>
        <time>2025-06-29T10:52:12Z</time>
      </trkpt>
      <trkpt lat="46.20615" lon="-1.3672">
        <ele>2.8</ele>
        <time>2025-06-29T10:52:13Z</time>
      </trkpt>
      <trkpt lat="46.20619" lon="-1.36724">
        <ele>2.8</ele>
        <time>2025-06-29T10:52:16Z</time>
      </trkpt>
      <trkpt lat="46.20625" lon="-1.36735">
        <ele>3.2</ele>
        <time>2025-06-29T10:52:21Z</time>
      </trkpt>
      <trkpt lat="46.20624" lon="-1.36738">
        <ele>3.4</ele>
        <time>2025-06-29T10:52:23Z</time>
      </trkpt>
      <trkpt lat="46.20626" lon="-1.36742">
        <ele>3.6</ele>
        <time>2025-06-29T10:52:26Z</time>
      </trkpt>
      <trkpt lat="46.20627" lon="-1.36747">
        <ele>3.8</ele>
        <time>2025-06-29T10:52:29Z</time>
      </trkpt>
      <trkpt lat="46.20628" lon="-1.36749">
        <ele>3.8</ele>
        <time>2025-06-29T10:52:30Z</time>
      </trkpt>
      <trkpt lat="46.2063" lon="-1.3675">
        <ele>3.8</ele>
        <time>2025-06-29T10:52:32Z</time>
      </trkpt>
      <trkpt lat="46.20635" lon="-1.36752">
        <ele>4</ele>
        <time>2025-06-29T10:52:38Z</time>
      </trkpt>
      <trkpt lat="46.2064" lon="-1.36752">
        <ele>4.2</ele>
        <time>2025-06-29T10:52:42Z</time>
      </trkpt>
      <trkpt lat="46.20645" lon="-1.36754">
        <ele>4.4</ele>
        <time>2025-06-29T10:52:47Z</time>
      </trkpt>
      <trkpt lat="46.20646" lon="-1.36754">
        <ele>4.4</ele>
        <time>2025-06-29T10:52:51Z</time>
      </trkpt>
      <trkpt lat="46.20643" lon="-1.36756">
        <ele>4.4</ele>
        <time>2025-06-29T10:52:57Z</time>
      </trkpt>
      <trkpt lat="46.20647" lon="-1.36755">
        <ele>4.6</ele>
        <time>2025-06-29T10:53:00Z</time>
      </trkpt>
      <trkpt lat="46.2065" lon="-1.36753">
        <ele>4.6</ele>
        <time>2025-06-29T10:53:03Z</time>
      </trkpt>
      <trkpt lat="46.20657" lon="-1.36749">
        <ele>4.2</ele>
        <time>2025-06-29T10:53:09Z</time>
      </trkpt>
      <trkpt lat="46.20657" lon="-1.36745">
        <ele>4.2</ele>
        <time>2025-06-29T10:53:12Z</time>
      </trkpt>
      <trkpt lat="46.20656" lon="-1.36733">
        <ele>3.4</ele>
        <time>2025-06-29T10:53:19Z</time>
      </trkpt>
      <trkpt lat="46.20656" lon="-1.36731">
        <ele>3.4</ele>
        <time>2025-06-29T10:53:20Z</time>
      </trkpt>
      <trkpt lat="46.20656" lon="-1.36728">
        <ele>3.4</ele>
        <time>2025-06-29T10:53:22Z</time>
      </trkpt>
      <trkpt lat="46.20657" lon="-1.36722">
        <ele>3.4</ele>
        <time>2025-06-29T10:53:26Z</time>
      </trkpt>
      <trkpt lat="46.20657" lon="-1.36721">
        <ele>3.4</ele>
        <time>2025-06-29T10:53:27Z</time>
      </trkpt>
      <trkpt lat="46.2066" lon="-1.36714">
        <ele>3.4</ele>
        <time>2025-06-29T10:53:30Z</time>
      </trkpt>
      <trkpt lat="46.20665" lon="-1.36705">
        <ele>3</ele>
        <time>2025-06-29T10:53:37Z</time>
      </trkpt>
      <trkpt lat="46.20672" lon="-1.36692">
        <ele>3.2</ele>
        <time>2025-06-29T10:53:45Z</time>
      </trkpt>
      <trkpt lat="46.20676" lon="-1.36686">
        <ele>3</ele>
        <time>2025-06-29T10:53:50Z</time>
      </trkpt>
      <trkpt lat="46.20677" lon="-1.36685">
        <ele>3</ele>
        <time>2025-06-29T10:53:51Z</time>
      </trkpt>
      <trkpt lat="46.2068" lon="-1.36682">
        <ele>3.2</ele>
        <time>2025-06-29T10:53:54Z</time>
      </trkpt>
      <trkpt lat="46.2068" lon="-1.36681">
        <ele>3.2</ele>
        <time>2025-06-29T10:53:55Z</time>
      </trkpt>
      <trkpt lat="46.20682" lon="-1.36678">
        <ele>3.2</ele>
        <time>2025-06-29T10:53:57Z</time>
      </trkpt>
      <trkpt lat="46.20688" lon="-1.36667">
        <ele>3.4</ele>
        <time>2025-06-29T10:54:05Z</time>
      </trkpt>
      <trkpt lat="46.20692" lon="-1.36655">
        <ele>3.4</ele>
        <time>2025-06-29T10:54:13Z</time>
      </trkpt>
      <trkpt lat="46.20693" lon="-1.36655">
        <ele>3.4</ele>
        <time>2025-06-29T10:54:14Z</time>
      </trkpt>
      <trkpt lat="46.20695" lon="-1.36654">
        <ele>3.4</ele>
        <time>2025-06-29T10:54:16Z</time>
      </trkpt>
      <trkpt lat="46.20701" lon="-1.36654">
        <ele>3.6</ele>
        <time>2025-06-29T10:54:21Z</time>
      </trkpt>
      <trkpt lat="46.20706" lon="-1.36656">
        <ele>4.2</ele>
        <time>2025-06-29T10:54:27Z</time>
      </trkpt>
      <trkpt lat="46.20708" lon="-1.36657">
        <ele>4.4</ele>
        <time>2025-06-29T10:54:29Z</time>
      </trkpt>
      <trkpt lat="46.2071" lon="-1.36657">
        <ele>4.6</ele>
        <time>2025-06-29T10:54:30Z</time>
      </trkpt>
      <trkpt lat="46.20711" lon="-1.36657">
        <ele>4.6</ele>
        <time>2025-06-29T10:54:31Z</time>
      </trkpt>
      <trkpt lat="46.20713" lon="-1.3666">
        <ele>5</ele>
        <time>2025-06-29T10:54:33Z</time>
      </trkpt>
      <trkpt lat="46.20715" lon="-1.36663">
        <ele>5.2</ele>
        <time>2025-06-29T10:54:36Z</time>
      </trkpt>
      <trkpt lat="46.20717" lon="-1.36662">
        <ele>5.2</ele>
        <time>2025-06-29T10:54:38Z</time>
      </trkpt>
      <trkpt lat="46.20719" lon="-1.36658">
        <ele>5.2</ele>
        <time>2025-06-29T10:54:41Z</time>
      </trkpt>
      <trkpt lat="46.20724" lon="-1.36654">
        <ele>5.4</ele>
        <time>2025-06-29T10:54:50Z</time>
      </trkpt>
      <trkpt lat="46.20724" lon="-1.36657">
        <ele>6</ele>
        <time>2025-06-29T10:54:53Z</time>
      </trkpt>
      <trkpt lat="46.20724" lon="-1.36659">
        <ele>6.4</ele>
        <time>2025-06-29T10:54:55Z</time>
      </trkpt>
      <trkpt lat="46.20723" lon="-1.36663">
        <ele>6.6</ele>
        <time>2025-06-29T10:54:57Z</time>
      </trkpt>
      <trkpt lat="46.20723" lon="-1.36675">
        <ele>6.8</ele>
        <time>2025-06-29T10:55:04Z</time>
      </trkpt>
      <trkpt lat="46.20723" lon="-1.36682">
        <ele>6.6</ele>
        <time>2025-06-29T10:55:08Z</time>
      </trkpt>
      <trkpt lat="46.20723" lon="-1.3669">
        <ele>6.6</ele>
        <time>2025-06-29T10:55:12Z</time>
      </trkpt>
      <trkpt lat="46.20722" lon="-1.36701">
        <ele>6.4</ele>
        <time>2025-06-29T10:55:18Z</time>
      </trkpt>
      <trkpt lat="46.20721" lon="-1.36703">
        <ele>6.2</ele>
        <time>2025-06-29T10:55:21Z</time>
      </trkpt>
      <trkpt lat="46.2072" lon="-1.36703">
        <ele>6</ele>
        <time>2025-06-29T10:55:22Z</time>
      </trkpt>
      <trkpt lat="46.20718" lon="-1.36703">
        <ele>5.6</ele>
        <time>2025-06-29T10:55:24Z</time>
      </trkpt>
      <trkpt lat="46.20717" lon="-1.36705">
        <ele>5.2</ele>
        <time>2025-06-29T10:55:26Z</time>
      </trkpt>
      <trkpt lat="46.20717" lon="-1.36707">
        <ele>5</ele>
        <time>2025-06-29T10:55:27Z</time>
      </trkpt>
      <trkpt lat="46.20717" lon="-1.36717">
        <ele>4.6</ele>
        <time>2025-06-29T10:55:32Z</time>
      </trkpt>
      <trkpt lat="46.20718" lon="-1.3672">
        <ele>4.4</ele>
        <time>2025-06-29T10:55:34Z</time>
      </trkpt>
      <trkpt lat="46.20719" lon="-1.36734">
        <ele>4.6</ele>
        <time>2025-06-29T10:55:41Z</time>
      </trkpt>
      <trkpt lat="46.20719" lon="-1.36735">
        <ele>4.6</ele>
        <time>2025-06-29T10:55:42Z</time>
      </trkpt>
      <trkpt lat="46.20719" lon="-1.36738">
        <ele>4.8</ele>
        <time>2025-06-29T10:55:44Z</time>
      </trkpt>
      <trkpt lat="46.2072" lon="-1.36752">
        <ele>4.6</ele>
        <time>2025-06-29T10:55:52Z</time>
      </trkpt>
      <trkpt lat="46.2072" lon="-1.36763">
        <ele>4.4</ele>
        <time>2025-06-29T10:55:58Z</time>
      </trkpt>
      <trkpt lat="46.2072" lon="-1.36767">
        <ele>4.4</ele>
        <time>2025-06-29T10:56:01Z</time>
      </trkpt>
      <trkpt lat="46.20722" lon="-1.36786">
        <ele>4.2</ele>
        <time>2025-06-29T10:56:11Z</time>
      </trkpt>
      <trkpt lat="46.20722" lon="-1.36795">
        <ele>4.8</ele>
        <time>2025-06-29T10:56:17Z</time>
      </trkpt>
      <trkpt lat="46.20722" lon="-1.36798">
        <ele>4.8</ele>
        <time>2025-06-29T10:56:19Z</time>
      </trkpt>
      <trkpt lat="46.2072" lon="-1.36809">
        <ele>5.4</ele>
        <time>2025-06-29T10:56:26Z</time>
      </trkpt>
      <trkpt lat="46.2072" lon="-1.36811">
        <ele>5.4</ele>
        <time>2025-06-29T10:56:27Z</time>
      </trkpt>
      <trkpt lat="46.20719" lon="-1.36814">
        <ele>5.6</ele>
        <time>2025-06-29T10:56:29Z</time>
      </trkpt>
      <trkpt lat="46.20719" lon="-1.36822">
        <ele>6</ele>
        <time>2025-06-29T10:56:34Z</time>
      </trkpt>
      <trkpt lat="46.2072" lon="-1.36823">
        <ele>6</ele>
        <time>2025-06-29T10:56:35Z</time>
      </trkpt>
      <trkpt lat="46.2072" lon="-1.36824">
        <ele>6</ele>
        <time>2025-06-29T10:56:36Z</time>
      </trkpt>
      <trkpt lat="46.2072" lon="-1.36833">
        <ele>5.6</ele>
        <time>2025-06-29T10:56:45Z</time>
      </trkpt>
      <trkpt lat="46.20719" lon="-1.36834">
        <ele>5.4</ele>
        <time>2025-06-29T10:56:46Z</time>
      </trkpt>
      <trkpt lat="46.20713" lon="-1.36838">
        <ele>5.4</ele>
        <time>2025-06-29T10:56:52Z</time>
      </trkpt>
      <trkpt lat="46.20708" lon="-1.36843">
        <ele>5.4</ele>
        <time>2025-06-29T10:56:57Z</time>
      </trkpt>
      <trkpt lat="46.20704" lon="-1.36845">
        <ele>5.6</ele>
        <time>2025-06-29T10:57:01Z</time>
      </trkpt>
      <trkpt lat="46.207" lon="-1.36849">
        <ele>5.6</ele>
        <time>2025-06-29T10:57:05Z</time>
      </trkpt>
      <trkpt lat="46.207" lon="-1.36849">
        <ele>5.6</ele>
        <time>2025-06-29T10:57:09Z</time>
      </trkpt>
      <trkpt lat="46.20696" lon="-1.36853">
        <ele>5.4</ele>
        <time>2025-06-29T10:57:20Z</time>
      </trkpt>
      <trkpt lat="46.20693" lon="-1.36857">
        <ele>5.4</ele>
        <time>2025-06-29T10:57:26Z</time>
      </trkpt>
      <trkpt lat="46.20688" lon="-1.36859">
        <ele>5</ele>
        <time>2025-06-29T10:57:32Z</time>
      </trkpt>
      <trkpt lat="46.20686" lon="-1.36861">
        <ele>5</ele>
        <time>2025-06-29T10:57:34Z</time>
      </trkpt>
      <trkpt lat="46.20682" lon="-1.36863">
        <ele>5</ele>
        <time>2025-06-29T10:57:37Z</time>
      </trkpt>
      <trkpt lat="46.2068" lon="-1.36865">
        <ele>4.8</ele>
        <time>2025-06-29T10:57:39Z</time>
      </trkpt>
      <trkpt lat="46.20678" lon="-1.36866">
        <ele>4.8</ele>
        <time>2025-06-29T10:57:41Z</time>
      </trkpt>
      <trkpt lat="46.2067" lon="-1.36872">
        <ele>4.4</ele>
        <time>2025-06-29T10:57:48Z</time>
      </trkpt>
      <trkpt lat="46.20666" lon="-1.36875">
        <ele>4.4</ele>
        <time>2025-06-29T10:57:51Z</time>
      </trkpt>
      <trkpt lat="46.20654" lon="-1.36883">
        <ele>4.4</ele>
        <time>2025-06-29T10:58:01Z</time>
      </trkpt>
      <trkpt lat="46.20642" lon="-1.36893">
        <ele>4.2</ele>
        <time>2025-06-29T10:58:11Z</time>
      </trkpt>
      <trkpt lat="46.20634" lon="-1.369">
        <ele>4.2</ele>
        <time>2025-06-29T10:58:19Z</time>
      </trkpt>
      <trkpt lat="46.20622" lon="-1.3691">
        <ele>4</ele>
        <time>2025-06-29T10:58:29Z</time>
      </trkpt>
      <trkpt lat="46.2062" lon="-1.36913">
        <ele>4</ele>
        <time>2025-06-29T10:58:32Z</time>
      </trkpt>
      <trkpt lat="46.20619" lon="-1.36916">
        <ele>4</ele>
        <time>2025-06-29T10:58:34Z</time>
      </trkpt>
      <trkpt lat="46.20619" lon="-1.36918">
        <ele>4</ele>
        <time>2025-06-29T10:58:35Z</time>
      </trkpt>
      <trkpt lat="46.20618" lon="-1.36921">
        <ele>4</ele>
        <time>2025-06-29T10:58:37Z</time>
      </trkpt>
      <trkpt lat="46.20615" lon="-1.36936">
        <ele>3.8</ele>
        <time>2025-06-29T10:58:46Z</time>
      </trkpt>
      <trkpt lat="46.20614" lon="-1.36941">
        <ele>3.8</ele>
        <time>2025-06-29T10:58:49Z</time>
      </trkpt>
      <trkpt lat="46.20613" lon="-1.3695">
        <ele>3.8</ele>
        <time>2025-06-29T10:58:54Z</time>
      </trkpt>
      <trkpt lat="46.20611" lon="-1.36966">
        <ele>3.6</ele>
        <time>2025-06-29T10:59:03Z</time>
      </trkpt>
      <trkpt lat="46.20608" lon="-1.3698">
        <ele>3.6</ele>
        <time>2025-06-29T10:59:11Z</time>
      </trkpt>
      <trkpt lat="46.20605" lon="-1.37">
        <ele>3.6</ele>
        <time>2025-06-29T10:59:21Z</time>
      </trkpt>
      <trkpt lat="46.20603" lon="-1.37019">
        <ele>3.8</ele>
        <time>2025-06-29T10:59:31Z</time>
      </trkpt>
      <trkpt lat="46.20599" lon="-1.37041">
        <ele>3.8</ele>
        <time>2025-06-29T10:59:42Z</time>
      </trkpt>
      <trkpt lat="46.20597" lon="-1.37054">
        <ele>4.2</ele>
        <time>2025-06-29T10:59:50Z</time>
      </trkpt>
      <trkpt lat="46.20595" lon="-1.37071">
        <ele>4.2</ele>
        <time>2025-06-29T11:00:00Z</time>
      </trkpt>
      <trkpt lat="46.20593" lon="-1.37093">
        <ele>4.2</ele>
        <time>2025-06-29T11:00:11Z</time>
      </trkpt>
      <trkpt lat="46.2059" lon="-1.37105">
        <ele>4.2</ele>
        <time>2025-06-29T11:00:18Z</time>
      </trkpt>
      <trkpt lat="46.20589" lon="-1.37111">
        <ele>4.4</ele>
        <time>2025-06-29T11:00:21Z</time>
      </trkpt>
      <trkpt lat="46.20588" lon="-1.37121">
        <ele>4.2</ele>
        <time>2025-06-29T11:00:26Z</time>
      </trkpt>
      <trkpt lat="46.20586" lon="-1.37135">
        <ele>4.4</ele>
        <time>2025-06-29T11:00:34Z</time>
      </trkpt>
      <trkpt lat="46.20582" lon="-1.37155">
        <ele>4.2</ele>
        <time>2025-06-29T11:00:44Z</time>
      </trkpt>
      <trkpt lat="46.2058" lon="-1.3717">
        <ele>4.2</ele>
        <time>2025-06-29T11:00:53Z</time>
      </trkpt>
      <trkpt lat="46.20578" lon="-1.37189">
        <ele>4.8</ele>
        <time>2025-06-29T11:01:03Z</time>
      </trkpt>
      <trkpt lat="46.20576" lon="-1.37203">
        <ele>4.2</ele>
        <time>2025-06-29T11:01:11Z</time>
      </trkpt>
      <trkpt lat="46.20572" lon="-1.37224">
        <ele>3.8</ele>
        <time>2025-06-29T11:01:22Z</time>
      </trkpt>
      <trkpt lat="46.2057" lon="-1.37236">
        <ele>4</ele>
        <time>2025-06-29T11:01:30Z</time>
      </trkpt>
      <trkpt lat="46.2057" lon="-1.37243">
        <ele>4.2</ele>
        <time>2025-06-29T11:01:35Z</time>
      </trkpt>
      <trkpt lat="46.20569" lon="-1.37254">
        <ele>4.2</ele>
        <time>2025-06-29T11:01:41Z</time>
      </trkpt>
      <trkpt lat="46.20569" lon="-1.37258">
        <ele>4</ele>
        <time>2025-06-29T11:01:43Z</time>
      </trkpt>
      <trkpt lat="46.20571" lon="-1.3726">
        <ele>4</ele>
        <time>2025-06-29T11:01:45Z</time>
      </trkpt>
      <trkpt lat="46.20572" lon="-1.3726">
        <ele>4</ele>
        <time>2025-06-29T11:01:46Z</time>
      </trkpt>
      <trkpt lat="46.20583" lon="-1.37265">
        <ele>3.6</ele>
        <time>2025-06-29T11:01:55Z</time>
      </trkpt>
      <trkpt lat="46.20583" lon="-1.37276">
        <ele>3.8</ele>
        <time>2025-06-29T11:02:01Z</time>
      </trkpt>
      <trkpt lat="46.20582" lon="-1.37295">
        <ele>4.4</ele>
        <time>2025-06-29T11:02:11Z</time>
      </trkpt>
      <trkpt lat="46.20582" lon="-1.37305">
        <ele>5</ele>
        <time>2025-06-29T11:02:18Z</time>
      </trkpt>
      <trkpt lat="46.20582" lon="-1.37307">
        <ele>5.2</ele>
        <time>2025-06-29T11:02:19Z</time>
      </trkpt>
      <trkpt lat="46.20583" lon="-1.37321">
        <ele>6.2</ele>
        <time>2025-06-29T11:02:27Z</time>
      </trkpt>
      <trkpt lat="46.20583" lon="-1.3733">
        <ele>6.4</ele>
        <time>2025-06-29T11:02:32Z</time>
      </trkpt>
      <trkpt lat="46.20582" lon="-1.3734">
        <ele>6.6</ele>
        <time>2025-06-29T11:02:37Z</time>
      </trkpt>
      <trkpt lat="46.20583" lon="-1.37354">
        <ele>6.8</ele>
        <time>2025-06-29T11:02:45Z</time>
      </trkpt>
      <trkpt lat="46.20583" lon="-1.37372">
        <ele>7</ele>
        <time>2025-06-29T11:02:55Z</time>
      </trkpt>
      <trkpt lat="46.20584" lon="-1.37389">
        <ele>7</ele>
        <time>2025-06-29T11:03:04Z</time>
      </trkpt>
      <trkpt lat="46.20585" lon="-1.37394">
        <ele>7.2</ele>
        <time>2025-06-29T11:03:07Z</time>
      </trkpt>
      <trkpt lat="46.20585" lon="-1.37406">
        <ele>7.4</ele>
        <time>2025-06-29T11:03:13Z</time>
      </trkpt>
      <trkpt lat="46.20584" lon="-1.37416">
        <ele>7.8</ele>
        <time>2025-06-29T11:03:23Z</time>
      </trkpt>
      <trkpt lat="46.2058" lon="-1.37414">
        <ele>7.6</ele>
        <time>2025-06-29T11:03:28Z</time>
      </trkpt>
      <trkpt lat="46.20579" lon="-1.37413">
        <ele>7.6</ele>
        <time>2025-06-29T11:03:29Z</time>
      </trkpt>
      <trkpt lat="46.20568" lon="-1.37408">
        <ele>8</ele>
        <time>2025-06-29T11:03:38Z</time>
      </trkpt>
      <trkpt lat="46.20558" lon="-1.37404">
        <ele>8</ele>
        <time>2025-06-29T11:03:46Z</time>
      </trkpt>
      <trkpt lat="46.20549" lon="-1.37401">
        <ele>7.8</ele>
        <time>2025-06-29T11:03:53Z</time>
      </trkpt>
      <trkpt lat="46.20546" lon="-1.37398">
        <ele>7.6</ele>
        <time>2025-06-29T11:03:56Z</time>
      </trkpt>
      <trkpt lat="46.20545" lon="-1.37397">
        <ele>7.6</ele>
        <time>2025-06-29T11:03:57Z</time>
      </trkpt>
      <trkpt lat="46.20544" lon="-1.37397">
        <ele>7.6</ele>
        <time>2025-06-29T11:03:58Z</time>
      </trkpt>
      <trkpt lat="46.20541" lon="-1.37397">
        <ele>7.6</ele>
        <time>2025-06-29T11:04:00Z</time>
      </trkpt>
      <trkpt lat="46.2054" lon="-1.37397">
        <ele>7.6</ele>
        <time>2025-06-29T11:04:01Z</time>
      </trkpt>
      <trkpt lat="46.20533" lon="-1.37395">
        <ele>7.6</ele>
        <time>2025-06-29T11:04:07Z</time>
      </trkpt>
      <trkpt lat="46.20525" lon="-1.37392">
        <ele>7.6</ele>
        <time>2025-06-29T11:04:13Z</time>
      </trkpt>
      <trkpt lat="46.20523" lon="-1.37391">
        <ele>7.6</ele>
        <time>2025-06-29T11:04:15Z</time>
      </trkpt>
      <trkpt lat="46.20513" lon="-1.37387">
        <ele>7.4</ele>
        <time>2025-06-29T11:04:23Z</time>
      </trkpt>
      <trkpt lat="46.205" lon="-1.37384">
        <ele>7.4</ele>
        <time>2025-06-29T11:04:33Z</time>
      </trkpt>
      <trkpt lat="46.20491" lon="-1.37376">
        <ele>7.4</ele>
        <time>2025-06-29T11:04:43Z</time>
      </trkpt>
      <trkpt lat="46.20491" lon="-1.37375">
        <ele>7</ele>
        <time>2025-06-29T11:04:45Z</time>
      </trkpt>
      <trkpt lat="46.20489" lon="-1.37371">
        <ele>6.4</ele>
        <time>2025-06-29T11:04:48Z</time>
      </trkpt>
      <trkpt lat="46.20488" lon="-1.3737">
        <ele>6.2</ele>
        <time>2025-06-29T11:04:49Z</time>
      </trkpt>
      <trkpt lat="46.20487" lon="-1.3737">
        <ele>6</ele>
        <time>2025-06-29T11:04:50Z</time>
      </trkpt>
      <trkpt lat="46.20487" lon="-1.37369">
        <ele>5.8</ele>
        <time>2025-06-29T11:04:51Z</time>
      </trkpt>
      <trkpt lat="46.20473" lon="-1.37343">
        <ele>-1.2</ele>
        <time>2025-06-29T11:06:04Z</time>
      </trkpt>
      <trkpt lat="46.20466" lon="-1.37347">
        <ele>-1.2</ele>
        <time>2025-06-29T11:06:05Z</time>
      </trkpt>
      <trkpt lat="46.20472" lon="-1.37354">
        <ele>-0.80000000000001</ele>
        <time>2025-06-29T11:06:06Z</time>
      </trkpt>
      <trkpt lat="46.20465" lon="-1.37341">
        <ele>-0.19999999999999</ele>
        <time>2025-06-29T11:06:08Z</time>
      </trkpt>
      <trkpt lat="46.20459" lon="-1.37343">
        <ele>-0.60000000000002</ele>
        <time>2025-06-29T11:06:19Z</time>
      </trkpt>
      <trkpt lat="46.20454" lon="-1.37344">
        <ele>-0.39999999999998</ele>
        <time>2025-06-29T11:06:23Z</time>
      </trkpt>
      <trkpt lat="46.20452" lon="-1.37344">
        <ele>-0.19999999999999</ele>
        <time>2025-06-29T11:06:25Z</time>
      </trkpt>
      <trkpt lat="46.20442" lon="-1.37347">
        <ele>0.19999999999999</ele>
        <time>2025-06-29T11:06:32Z</time>
      </trkpt>
      <trkpt lat="46.20441" lon="-1.37347">
        <ele>0.19999999999999</ele>
        <time>2025-06-29T11:06:33Z</time>
      </trkpt>
      <trkpt lat="46.20435" lon="-1.37347">
        <ele>0.39999999999998</ele>
        <time>2025-06-29T11:06:39Z</time>
      </trkpt>
      <trkpt lat="46.20434" lon="-1.37347">
        <ele>0.60000000000002</ele>
        <time>2025-06-29T11:06:40Z</time>
      </trkpt>
      <trkpt lat="46.20428" lon="-1.37345">
        <ele>0.60000000000002</ele>
        <time>2025-06-29T11:06:45Z</time>
      </trkpt>
      <trkpt lat="46.20426" lon="-1.37345">
        <ele>0.60000000000002</ele>
        <time>2025-06-29T11:06:47Z</time>
      </trkpt>
      <trkpt lat="46.20419" lon="-1.37347">
        <ele>0.60000000000002</ele>
        <time>2025-06-29T11:06:53Z</time>
      </trkpt>
      <trkpt lat="46.2042" lon="-1.37342">
        <ele>0.39999999999998</ele>
        <time>2025-06-29T11:06:58Z</time>
      </trkpt>
      <trkpt lat="46.20403" lon="-1.37303">
        <ele>5</ele>
        <time>2025-06-29T11:07:39Z</time>
      </trkpt>
      <trkpt lat="46.20423" lon="-1.37309">
        <ele>5.2</ele>
        <time>2025-06-29T11:07:41Z</time>
      </trkpt>
      <trkpt lat="46.20421" lon="-1.37308">
        <ele>5.4</ele>
        <time>2025-06-29T11:07:42Z</time>
      </trkpt>
      <trkpt lat="46.20417" lon="-1.3731">
        <ele>5.8</ele>
        <time>2025-06-29T11:07:44Z</time>
      </trkpt>
      <trkpt lat="46.20419" lon="-1.37312">
        <ele>6</ele>
        <time>2025-06-29T11:07:45Z</time>
      </trkpt>
      <trkpt lat="46.20418" lon="-1.37314">
        <ele>6.2</ele>
        <time>2025-06-29T11:07:47Z</time>
      </trkpt>
      <trkpt lat="46.20414" lon="-1.37313">
        <ele>6.4</ele>
        <time>2025-06-29T11:07:48Z</time>
      </trkpt>
      <trkpt lat="46.20397" lon="-1.373">
        <ele>6.6</ele>
        <time>2025-06-29T11:07:51Z</time>
      </trkpt>
      <trkpt lat="46.20395" lon="-1.37305">
        <ele>6.6</ele>
        <time>2025-06-29T11:07:54Z</time>
      </trkpt>
      <trkpt lat="46.20386" lon="-1.37305">
        <ele>6.6</ele>
        <time>2025-06-29T11:08:03Z</time>
      </trkpt>
      <trkpt lat="46.20383" lon="-1.37306">
        <ele>7</ele>
        <time>2025-06-29T11:08:06Z</time>
      </trkpt>
      <trkpt lat="46.20379" lon="-1.37309">
        <ele>7.2</ele>
        <time>2025-06-29T11:08:10Z</time>
      </trkpt>
      <trkpt lat="46.20374" lon="-1.3731">
        <ele>7.4</ele>
        <time>2025-06-29T11:08:14Z</time>
      </trkpt>
      <trkpt lat="46.20366" lon="-1.37321">
        <ele>8</ele>
        <time>2025-06-29T11:08:23Z</time>
      </trkpt>
      <trkpt lat="46.20362" lon="-1.37322">
        <ele>8</ele>
        <time>2025-06-29T11:08:26Z</time>
      </trkpt>
      <trkpt lat="46.20355" lon="-1.37323">
        <ele>8</ele>
        <time>2025-06-29T11:08:32Z</time>
      </trkpt>
      <trkpt lat="46.20341" lon="-1.37327">
        <ele>8.2</ele>
        <time>2025-06-29T11:08:44Z</time>
      </trkpt>
      <trkpt lat="46.20336" lon="-1.37325">
        <ele>8.4</ele>
        <time>2025-06-29T11:08:49Z</time>
      </trkpt>
      <trkpt lat="46.20332" lon="-1.37325">
        <ele>8.4</ele>
        <time>2025-06-29T11:08:52Z</time>
      </trkpt>
      <trkpt lat="46.20322" lon="-1.37327">
        <ele>8.2</ele>
        <time>2025-06-29T11:08:59Z</time>
      </trkpt>
      <trkpt lat="46.2031" lon="-1.37327">
        <ele>8</ele>
        <time>2025-06-29T11:09:07Z</time>
      </trkpt>
      <trkpt lat="46.20298" lon="-1.37327">
        <ele>7.6</ele>
        <time>2025-06-29T11:09:16Z</time>
      </trkpt>
      <trkpt lat="46.20286" lon="-1.37327">
        <ele>7.6</ele>
        <time>2025-06-29T11:09:24Z</time>
      </trkpt>
      <trkpt lat="46.20282" lon="-1.37328">
        <ele>7.6</ele>
        <time>2025-06-29T11:09:27Z</time>
      </trkpt>
      <trkpt lat="46.20272" lon="-1.37329">
        <ele>7.4</ele>
        <time>2025-06-29T11:09:35Z</time>
      </trkpt>
      <trkpt lat="46.20264" lon="-1.37327">
        <ele>7.4</ele>
        <time>2025-06-29T11:09:41Z</time>
      </trkpt>
      <trkpt lat="46.20263" lon="-1.37327">
        <ele>7.4</ele>
        <time>2025-06-29T11:09:42Z</time>
      </trkpt>
      <trkpt lat="46.20262" lon="-1.37327">
        <ele>7.4</ele>
        <time>2025-06-29T11:09:43Z</time>
      </trkpt>
      <trkpt lat="46.20257" lon="-1.37327">
        <ele>7.2</ele>
        <time>2025-06-29T11:09:47Z</time>
      </trkpt>
      <trkpt lat="46.20244" lon="-1.37329">
        <ele>7.4</ele>
        <time>2025-06-29T11:09:57Z</time>
      </trkpt>
      <trkpt lat="46.20241" lon="-1.3733">
        <ele>7.6</ele>
        <time>2025-06-29T11:10:00Z</time>
      </trkpt>
      <trkpt lat="46.20235" lon="-1.3733">
        <ele>7.6</ele>
        <time>2025-06-29T11:10:04Z</time>
      </trkpt>
      <trkpt lat="46.20233" lon="-1.3733">
        <ele>7.4</ele>
        <time>2025-06-29T11:10:06Z</time>
      </trkpt>
      <trkpt lat="46.20222" lon="-1.37331">
        <ele>7.6</ele>
        <time>2025-06-29T11:10:15Z</time>
      </trkpt>
      <trkpt lat="46.20216" lon="-1.37335">
        <ele>7.6</ele>
        <time>2025-06-29T11:10:20Z</time>
      </trkpt>
      <trkpt lat="46.20213" lon="-1.37337">
        <ele>7.6</ele>
        <time>2025-06-29T11:10:22Z</time>
      </trkpt>
      <trkpt lat="46.20207" lon="-1.37335">
        <ele>7.2</ele>
        <time>2025-06-29T11:10:29Z</time>
      </trkpt>
      <trkpt lat="46.20206" lon="-1.37332">
        <ele>7.2</ele>
        <time>2025-06-29T11:10:31Z</time>
      </trkpt>
      <trkpt lat="46.20209" lon="-1.37327">
        <ele>7.2</ele>
        <time>2025-06-29T11:10:35Z</time>
      </trkpt>
      <trkpt lat="46.20215" lon="-1.37314">
        <ele>7.8</ele>
        <time>2025-06-29T11:10:43Z</time>
      </trkpt>
      <trkpt lat="46.20217" lon="-1.37302">
        <ele>8.2</ele>
        <time>2025-06-29T11:10:50Z</time>
      </trkpt>
      <trkpt lat="46.20216" lon="-1.37302">
        <ele>8.2</ele>
        <time>2025-06-29T11:10:51Z</time>
      </trkpt>
      <trkpt lat="46.20209" lon="-1.3731">
        <ele>8.2</ele>
        <time>2025-06-29T11:10:58Z</time>
      </trkpt>
      <trkpt lat="46.20202" lon="-1.37313">
        <ele>8.4</ele>
        <time>2025-06-29T11:11:04Z</time>
      </trkpt>
      <trkpt lat="46.20199" lon="-1.37309">
        <ele>8.6</ele>
        <time>2025-06-29T11:11:11Z</time>
      </trkpt>
      <trkpt lat="46.20198" lon="-1.37309">
        <ele>8.8</ele>
        <time>2025-06-29T11:11:16Z</time>
      </trkpt>
      <trkpt lat="46.20198" lon="-1.37309">
        <ele>8.6</ele>
        <time>2025-06-29T11:11:25Z</time>
      </trkpt>
      <trkpt lat="46.20203" lon="-1.37307">
        <ele>8.4</ele>
        <time>2025-06-29T11:11:31Z</time>
      </trkpt>
      <trkpt lat="46.2021" lon="-1.37297">
        <ele>8.2</ele>
        <time>2025-06-29T11:11:38Z</time>
      </trkpt>
      <trkpt lat="46.20212" lon="-1.37289">
        <ele>8.2</ele>
        <time>2025-06-29T11:11:42Z</time>
      </trkpt>
      <trkpt lat="46.20213" lon="-1.37281">
        <ele>8.2</ele>
        <time>2025-06-29T11:11:46Z</time>
      </trkpt>
      <trkpt lat="46.20212" lon="-1.37279">
        <ele>8.2</ele>
        <time>2025-06-29T11:11:47Z</time>
      </trkpt>
      <trkpt lat="46.2021" lon="-1.37266">
        <ele>8.2</ele>
        <time>2025-06-29T11:11:54Z</time>
      </trkpt>
      <trkpt lat="46.20209" lon="-1.37265">
        <ele>8.4</ele>
        <time>2025-06-29T11:11:55Z</time>
      </trkpt>
      <trkpt lat="46.20205" lon="-1.37256">
        <ele>8.4</ele>
        <time>2025-06-29T11:12:01Z</time>
      </trkpt>
      <trkpt lat="46.20204" lon="-1.37253">
        <ele>8.4</ele>
        <time>2025-06-29T11:12:03Z</time>
      </trkpt>
      <trkpt lat="46.20197" lon="-1.37245">
        <ele>8.4</ele>
        <time>2025-06-29T11:12:10Z</time>
      </trkpt>
      <trkpt lat="46.20196" lon="-1.37245">
        <ele>8.4</ele>
        <time>2025-06-29T11:12:11Z</time>
      </trkpt>
      <trkpt lat="46.20188" lon="-1.37237">
        <ele>8.4</ele>
        <time>2025-06-29T11:12:19Z</time>
      </trkpt>
      <trkpt lat="46.2018" lon="-1.37234">
        <ele>8.2</ele>
        <time>2025-06-29T11:12:25Z</time>
      </trkpt>
      <trkpt lat="46.20179" lon="-1.37235">
        <ele>8.2</ele>
        <time>2025-06-29T11:12:26Z</time>
      </trkpt>
      <trkpt lat="46.20179" lon="-1.37235">
        <ele>8.2</ele>
        <time>2025-06-29T11:12:27Z</time>
      </trkpt>
      <trkpt lat="46.20177" lon="-1.37236">
        <ele>8.2</ele>
        <time>2025-06-29T11:12:29Z</time>
      </trkpt>
      <trkpt lat="46.20174" lon="-1.37236">
        <ele>8.4</ele>
        <time>2025-06-29T11:12:31Z</time>
      </trkpt>
      <trkpt lat="46.20174" lon="-1.37239">
        <ele>8.4</ele>
        <time>2025-06-29T11:12:33Z</time>
      </trkpt>
      <trkpt lat="46.20166" lon="-1.37262">
        <ele>8.4</ele>
        <time>2025-06-29T11:12:44Z</time>
      </trkpt>
      <trkpt lat="46.20164" lon="-1.37267">
        <ele>8.4</ele>
        <time>2025-06-29T11:12:48Z</time>
      </trkpt>
      <trkpt lat="46.20163" lon="-1.37272">
        <ele>8.4</ele>
        <time>2025-06-29T11:12:50Z</time>
      </trkpt>
      <trkpt lat="46.20161" lon="-1.37273">
        <ele>8.4</ele>
        <time>2025-06-29T11:12:51Z</time>
      </trkpt>
      <trkpt lat="46.20158" lon="-1.37278">
        <ele>8.2</ele>
        <time>2025-06-29T11:12:56Z</time>
      </trkpt>
      <trkpt lat="46.20157" lon="-1.37278">
        <ele>8.2</ele>
        <time>2025-06-29T11:12:57Z</time>
      </trkpt>
      <trkpt lat="46.20159" lon="-1.37274">
        <ele>8.2</ele>
        <time>2025-06-29T11:13:05Z</time>
      </trkpt>
      <trkpt lat="46.20159" lon="-1.37274">
        <ele>8.4</ele>
        <time>2025-06-29T11:13:11Z</time>
      </trkpt>
      <trkpt lat="46.20152" lon="-1.37283">
        <ele>8.2</ele>
        <time>2025-06-29T11:13:18Z</time>
      </trkpt>
      <trkpt lat="46.20145" lon="-1.37294">
        <ele>8.2</ele>
        <time>2025-06-29T11:13:25Z</time>
      </trkpt>
      <trkpt lat="46.20137" lon="-1.37306">
        <ele>8</ele>
        <time>2025-06-29T11:13:33Z</time>
      </trkpt>
      <trkpt lat="46.20135" lon="-1.37311">
        <ele>8</ele>
        <time>2025-06-29T11:13:37Z</time>
      </trkpt>
      <trkpt lat="46.20132" lon="-1.37314">
        <ele>8</ele>
        <time>2025-06-29T11:13:40Z</time>
      </trkpt>
      <trkpt lat="46.20124" lon="-1.37326">
        <ele>8</ele>
        <time>2025-06-29T11:13:49Z</time>
      </trkpt>
      <trkpt lat="46.20122" lon="-1.37339">
        <ele>7.8</ele>
        <time>2025-06-29T11:13:57Z</time>
      </trkpt>
      <trkpt lat="46.20125" lon="-1.37356">
        <ele>7.6</ele>
        <time>2025-06-29T11:14:06Z</time>
      </trkpt>
      <trkpt lat="46.2013" lon="-1.37373">
        <ele>7.8</ele>
        <time>2025-06-29T11:14:16Z</time>
      </trkpt>
      <trkpt lat="46.20133" lon="-1.37388">
        <ele>8</ele>
        <time>2025-06-29T11:14:23Z</time>
      </trkpt>
      <trkpt lat="46.20135" lon="-1.374">
        <ele>8.2</ele>
        <time>2025-06-29T11:14:30Z</time>
      </trkpt>
      <trkpt lat="46.20135" lon="-1.37404">
        <ele>8.2</ele>
        <time>2025-06-29T11:14:32Z</time>
      </trkpt>
      <trkpt lat="46.20136" lon="-1.37417">
        <ele>8.4</ele>
        <time>2025-06-29T11:14:39Z</time>
      </trkpt>
      <trkpt lat="46.2014" lon="-1.37426">
        <ele>8.4</ele>
        <time>2025-06-29T11:14:44Z</time>
      </trkpt>
      <trkpt lat="46.20142" lon="-1.3743">
        <ele>8.4</ele>
        <time>2025-06-29T11:14:47Z</time>
      </trkpt>
      <trkpt lat="46.20141" lon="-1.37442">
        <ele>8.4</ele>
        <time>2025-06-29T11:14:53Z</time>
      </trkpt>
      <trkpt lat="46.20134" lon="-1.37459">
        <ele>8.2</ele>
        <time>2025-06-29T11:15:04Z</time>
      </trkpt>
      <trkpt lat="46.20131" lon="-1.37471">
        <ele>8.2</ele>
        <time>2025-06-29T11:15:11Z</time>
      </trkpt>
      <trkpt lat="46.2013" lon="-1.37476">
        <ele>8</ele>
        <time>2025-06-29T11:15:14Z</time>
      </trkpt>
      <trkpt lat="46.20128" lon="-1.37481">
        <ele>8</ele>
        <time>2025-06-29T11:15:17Z</time>
      </trkpt>
      <trkpt lat="46.20124" lon="-1.37494">
        <ele>8</ele>
        <time>2025-06-29T11:15:25Z</time>
      </trkpt>
      <trkpt lat="46.20117" lon="-1.37502">
        <ele>8.2</ele>
        <time>2025-06-29T11:15:33Z</time>
      </trkpt>
      <trkpt lat="46.20115" lon="-1.37502">
        <ele>8.2</ele>
        <time>2025-06-29T11:15:35Z</time>
      </trkpt>
      <trkpt lat="46.20112" lon="-1.37502">
        <ele>8.4</ele>
        <time>2025-06-29T11:15:37Z</time>
      </trkpt>
      <trkpt lat="46.20108" lon="-1.37501">
        <ele>8.6</ele>
        <time>2025-06-29T11:15:40Z</time>
      </trkpt>
      <trkpt lat="46.201" lon="-1.37504">
        <ele>8.4</ele>
        <time>2025-06-29T11:15:46Z</time>
      </trkpt>
      <trkpt lat="46.20099" lon="-1.37506">
        <ele>8.4</ele>
        <time>2025-06-29T11:15:47Z</time>
      </trkpt>
      <trkpt lat="46.20093" lon="-1.37517">
        <ele>8.4</ele>
        <time>2025-06-29T11:15:55Z</time>
      </trkpt>
      <trkpt lat="46.20088" lon="-1.37519">
        <ele>8.4</ele>
        <time>2025-06-29T11:16:00Z</time>
      </trkpt>
      <trkpt lat="46.20084" lon="-1.37521">
        <ele>8.2</ele>
        <time>2025-06-29T11:16:03Z</time>
      </trkpt>
      <trkpt lat="46.20072" lon="-1.37527">
        <ele>8</ele>
        <time>2025-06-29T11:16:12Z</time>
      </trkpt>
      <trkpt lat="46.20064" lon="-1.37528">
        <ele>8.2</ele>
        <time>2025-06-29T11:16:18Z</time>
      </trkpt>
      <trkpt lat="46.2006" lon="-1.37528">
        <ele>8.2</ele>
        <time>2025-06-29T11:16:21Z</time>
      </trkpt>
      <trkpt lat="46.20052" lon="-1.3753">
        <ele>8.4</ele>
        <time>2025-06-29T11:16:26Z</time>
      </trkpt>
      <trkpt lat="46.20041" lon="-1.37534">
        <ele>8</ele>
        <time>2025-06-29T11:16:34Z</time>
      </trkpt>
      <trkpt lat="46.20034" lon="-1.37541">
        <ele>7.6</ele>
        <time>2025-06-29T11:16:41Z</time>
      </trkpt>
      <trkpt lat="46.20023" lon="-1.37543">
        <ele>7.4</ele>
        <time>2025-06-29T11:16:48Z</time>
      </trkpt>
      <trkpt lat="46.20019" lon="-1.37544">
        <ele>7.4</ele>
        <time>2025-06-29T11:16:51Z</time>
      </trkpt>
      <trkpt lat="46.2001" lon="-1.37542">
        <ele>7.2</ele>
        <time>2025-06-29T11:16:57Z</time>
      </trkpt>
      <trkpt lat="46.19999" lon="-1.37541">
        <ele>7.2</ele>
        <time>2025-06-29T11:17:05Z</time>
      </trkpt>
      <trkpt lat="46.19987" lon="-1.37542">
        <ele>7.2</ele>
        <time>2025-06-29T11:17:13Z</time>
      </trkpt>
      <trkpt lat="46.19977" lon="-1.37541">
        <ele>7</ele>
        <time>2025-06-29T11:17:20Z</time>
      </trkpt>
      <trkpt lat="46.19962" lon="-1.37543">
        <ele>6.4</ele>
        <time>2025-06-29T11:17:31Z</time>
      </trkpt>
      <trkpt lat="46.19955" lon="-1.37543">
        <ele>6.2</ele>
        <time>2025-06-29T11:17:37Z</time>
      </trkpt>
      <trkpt lat="46.19942" lon="-1.37545">
        <ele>6.6</ele>
        <time>2025-06-29T11:17:46Z</time>
      </trkpt>
      <trkpt lat="46.19938" lon="-1.37545">
        <ele>6.6</ele>
        <time>2025-06-29T11:17:49Z</time>
      </trkpt>
      <trkpt lat="46.19926" lon="-1.37544">
        <ele>6.4</ele>
        <time>2025-06-29T11:17:57Z</time>
      </trkpt>
      <trkpt lat="46.19914" lon="-1.37544">
        <ele>6.4</ele>
        <time>2025-06-29T11:18:05Z</time>
      </trkpt>
      <trkpt lat="46.19898" lon="-1.37544">
        <ele>6.4</ele>
        <time>2025-06-29T11:18:16Z</time>
      </trkpt>
      <trkpt lat="46.19888" lon="-1.37543">
        <ele>6.2</ele>
        <time>2025-06-29T11:18:23Z</time>
      </trkpt>
      <trkpt lat="46.19873" lon="-1.37543">
        <ele>6.2</ele>
        <time>2025-06-29T11:18:34Z</time>
      </trkpt>
      <trkpt lat="46.19857" lon="-1.37543">
        <ele>6</ele>
        <time>2025-06-29T11:18:46Z</time>
      </trkpt>
      <trkpt lat="46.19845" lon="-1.37544">
        <ele>6.2</ele>
        <time>2025-06-29T11:18:54Z</time>
      </trkpt>
      <trkpt lat="46.19837" lon="-1.37544">
        <ele>6</ele>
        <time>2025-06-29T11:18:59Z</time>
      </trkpt>
      <trkpt lat="46.1983" lon="-1.37544">
        <ele>6.2</ele>
        <time>2025-06-29T11:19:04Z</time>
      </trkpt>
      <trkpt lat="46.19819" lon="-1.37544">
        <ele>6</ele>
        <time>2025-06-29T11:19:12Z</time>
      </trkpt>
      <trkpt lat="46.19808" lon="-1.37544">
        <ele>5.8</ele>
        <time>2025-06-29T11:19:19Z</time>
      </trkpt>
      <trkpt lat="46.19799" lon="-1.37544">
        <ele>5.8</ele>
        <time>2025-06-29T11:19:25Z</time>
      </trkpt>
      <trkpt lat="46.19784" lon="-1.37545">
        <ele>5.8</ele>
        <time>2025-06-29T11:19:36Z</time>
      </trkpt>
      <trkpt lat="46.19773" lon="-1.37544">
        <ele>5.6</ele>
        <time>2025-06-29T11:19:44Z</time>
      </trkpt>
      <trkpt lat="46.19768" lon="-1.37545">
        <ele>5.6</ele>
        <time>2025-06-29T11:19:47Z</time>
      </trkpt>
      <trkpt lat="46.19759" lon="-1.37545">
        <ele>5.4</ele>
        <time>2025-06-29T11:19:53Z</time>
      </trkpt>
      <trkpt lat="46.19747" lon="-1.37545">
        <ele>5.4</ele>
        <time>2025-06-29T11:20:01Z</time>
      </trkpt>
      <trkpt lat="46.19745" lon="-1.37545">
        <ele>5.4</ele>
        <time>2025-06-29T11:20:03Z</time>
      </trkpt>
      <trkpt lat="46.19734" lon="-1.37545">
        <ele>5.4</ele>
        <time>2025-06-29T11:20:11Z</time>
      </trkpt>
      <trkpt lat="46.19722" lon="-1.37546">
        <ele>5.4</ele>
        <time>2025-06-29T11:20:19Z</time>
      </trkpt>
      <trkpt lat="46.19704" lon="-1.37547">
        <ele>5.2</ele>
        <time>2025-06-29T11:20:32Z</time>
      </trkpt>
      <trkpt lat="46.19702" lon="-1.37546">
        <ele>5.2</ele>
        <time>2025-06-29T11:20:33Z</time>
      </trkpt>
      <trkpt lat="46.1969" lon="-1.37547">
        <ele>5.2</ele>
        <time>2025-06-29T11:20:41Z</time>
      </trkpt>
      <trkpt lat="46.19683" lon="-1.37541">
        <ele>5.2</ele>
        <time>2025-06-29T11:20:48Z</time>
      </trkpt>
      <trkpt lat="46.19682" lon="-1.3754">
        <ele>5.2</ele>
        <time>2025-06-29T11:20:49Z</time>
      </trkpt>
      <trkpt lat="46.19678" lon="-1.37526">
        <ele>5.2</ele>
        <time>2025-06-29T11:20:56Z</time>
      </trkpt>
      <trkpt lat="46.19678" lon="-1.37508">
        <ele>5.6</ele>
        <time>2025-06-29T11:21:05Z</time>
      </trkpt>
      <trkpt lat="46.19678" lon="-1.37484">
        <ele>5.8</ele>
        <time>2025-06-29T11:21:17Z</time>
      </trkpt>
      <trkpt lat="46.19678" lon="-1.37461">
        <ele>5.8</ele>
        <time>2025-06-29T11:21:28Z</time>
      </trkpt>
      <trkpt lat="46.19678" lon="-1.37433">
        <ele>6.2</ele>
        <time>2025-06-29T11:21:41Z</time>
      </trkpt>
      <trkpt lat="46.19674" lon="-1.37421">
        <ele>6.4</ele>
        <time>2025-06-29T11:21:48Z</time>
      </trkpt>
      <trkpt lat="46.19667" lon="-1.37419">
        <ele>7</ele>
        <time>2025-06-29T11:21:53Z</time>
      </trkpt>
      <trkpt lat="46.19664" lon="-1.37419">
        <ele>7.2</ele>
        <time>2025-06-29T11:21:55Z</time>
      </trkpt>
      <trkpt lat="46.19657" lon="-1.3742">
        <ele>7.4</ele>
        <time>2025-06-29T11:22:01Z</time>
      </trkpt>
      <trkpt lat="46.19655" lon="-1.3742">
        <ele>7.4</ele>
        <time>2025-06-29T11:22:02Z</time>
      </trkpt>
      <trkpt lat="46.19654" lon="-1.3742">
        <ele>7.4</ele>
        <time>2025-06-29T11:22:03Z</time>
      </trkpt>
      <trkpt lat="46.19648" lon="-1.3742">
        <ele>7.4</ele>
        <time>2025-06-29T11:22:07Z</time>
      </trkpt>
      <trkpt lat="46.19647" lon="-1.3742">
        <ele>7.4</ele>
        <time>2025-06-29T11:22:08Z</time>
      </trkpt>
      <trkpt lat="46.19635" lon="-1.37421">
        <ele>7.6</ele>
        <time>2025-06-29T11:22:17Z</time>
      </trkpt>
      <trkpt lat="46.19631" lon="-1.37421">
        <ele>7.6</ele>
        <time>2025-06-29T11:22:20Z</time>
      </trkpt>
      <trkpt lat="46.19625" lon="-1.3742">
        <ele>7.6</ele>
        <time>2025-06-29T11:22:24Z</time>
      </trkpt>
      <trkpt lat="46.19609" lon="-1.3742">
        <ele>7.6</ele>
        <time>2025-06-29T11:22:36Z</time>
      </trkpt>
      <trkpt lat="46.19601" lon="-1.37423">
        <ele>7.8</ele>
        <time>2025-06-29T11:22:43Z</time>
      </trkpt>
      <trkpt lat="46.19595" lon="-1.37422">
        <ele>8</ele>
        <time>2025-06-29T11:22:48Z</time>
      </trkpt>
      <trkpt lat="46.19592" lon="-1.37422">
        <ele>8</ele>
        <time>2025-06-29T11:22:50Z</time>
      </trkpt>
      <trkpt lat="46.19584" lon="-1.37422">
        <ele>7.8</ele>
        <time>2025-06-29T11:22:57Z</time>
      </trkpt>
      <trkpt lat="46.19569" lon="-1.3742">
        <ele>7.6</ele>
        <time>2025-06-29T11:23:08Z</time>
      </trkpt>
      <trkpt lat="46.19565" lon="-1.3742">
        <ele>7.8</ele>
        <time>2025-06-29T11:23:11Z</time>
      </trkpt>
      <trkpt lat="46.19563" lon="-1.3742">
        <ele>7.8</ele>
        <time>2025-06-29T11:23:12Z</time>
      </trkpt>
      <trkpt lat="46.1956" lon="-1.3742">
        <ele>7.8</ele>
        <time>2025-06-29T11:23:14Z</time>
      </trkpt>
      <trkpt lat="46.19551" lon="-1.37422">
        <ele>7.6</ele>
        <time>2025-06-29T11:23:21Z</time>
      </trkpt>
      <trkpt lat="46.19538" lon="-1.37424">
        <ele>7.4</ele>
        <time>2025-06-29T11:23:31Z</time>
      </trkpt>
      <trkpt lat="46.19519" lon="-1.37423">
        <ele>7.6</ele>
        <time>2025-06-29T11:23:43Z</time>
      </trkpt>
      <trkpt lat="46.19505" lon="-1.37424">
        <ele>7.4</ele>
        <time>2025-06-29T11:23:52Z</time>
      </trkpt>
      <trkpt lat="46.19494" lon="-1.37421">
        <ele>7.4</ele>
        <time>2025-06-29T11:24:00Z</time>
      </trkpt>
      <trkpt lat="46.19483" lon="-1.37419">
        <ele>7</ele>
        <time>2025-06-29T11:24:08Z</time>
      </trkpt>
      <trkpt lat="46.19472" lon="-1.37416">
        <ele>7.2</ele>
        <time>2025-06-29T11:24:16Z</time>
      </trkpt>
      <trkpt lat="46.1946" lon="-1.37412">
        <ele>7.2</ele>
        <time>2025-06-29T11:24:24Z</time>
      </trkpt>
      <trkpt lat="46.19448" lon="-1.37408">
        <ele>7.2</ele>
        <time>2025-06-29T11:24:34Z</time>
      </trkpt>
      <trkpt lat="46.19434" lon="-1.37403">
        <ele>7</ele>
        <time>2025-06-29T11:24:44Z</time>
      </trkpt>
      <trkpt lat="46.19426" lon="-1.37402">
        <ele>7</ele>
        <time>2025-06-29T11:24:49Z</time>
      </trkpt>
      <trkpt lat="46.19424" lon="-1.37402">
        <ele>7</ele>
        <time>2025-06-29T11:24:51Z</time>
      </trkpt>
      <trkpt lat="46.19413" lon="-1.37402">
        <ele>7</ele>
        <time>2025-06-29T11:24:59Z</time>
      </trkpt>
      <trkpt lat="46.19403" lon="-1.37402">
        <ele>6.8</ele>
        <time>2025-06-29T11:25:07Z</time>
      </trkpt>
      <trkpt lat="46.19386" lon="-1.37401">
        <ele>6.8</ele>
        <time>2025-06-29T11:25:18Z</time>
      </trkpt>
      <trkpt lat="46.19372" lon="-1.374">
        <ele>6.6</ele>
        <time>2025-06-29T11:25:28Z</time>
      </trkpt>
      <trkpt lat="46.19357" lon="-1.37398">
        <ele>6.8</ele>
        <time>2025-06-29T11:25:39Z</time>
      </trkpt>
      <trkpt lat="46.19345" lon="-1.37397">
        <ele>6.8</ele>
        <time>2025-06-29T11:25:48Z</time>
      </trkpt>
      <trkpt lat="46.19332" lon="-1.37397">
        <ele>6.6</ele>
        <time>2025-06-29T11:25:58Z</time>
      </trkpt>
      <trkpt lat="46.19323" lon="-1.37395">
        <ele>6.6</ele>
        <time>2025-06-29T11:26:04Z</time>
      </trkpt>
      <trkpt lat="46.1932" lon="-1.37394">
        <ele>6.6</ele>
        <time>2025-06-29T11:26:06Z</time>
      </trkpt>
      <trkpt lat="46.19307" lon="-1.37394">
        <ele>6.8</ele>
        <time>2025-06-29T11:26:15Z</time>
      </trkpt>
      <trkpt lat="46.19296" lon="-1.37394">
        <ele>6.6</ele>
        <time>2025-06-29T11:26:24Z</time>
      </trkpt>
      <trkpt lat="46.19286" lon="-1.37394">
        <ele>6.4</ele>
        <time>2025-06-29T11:26:31Z</time>
      </trkpt>
      <trkpt lat="46.19283" lon="-1.37394">
        <ele>6.4</ele>
        <time>2025-06-29T11:26:33Z</time>
      </trkpt>
      <trkpt lat="46.19274" lon="-1.37394">
        <ele>6.2</ele>
        <time>2025-06-29T11:26:39Z</time>
      </trkpt>
      <trkpt lat="46.19262" lon="-1.37395">
        <ele>6.2</ele>
        <time>2025-06-29T11:26:48Z</time>
      </trkpt>
      <trkpt lat="46.19249" lon="-1.37397">
        <ele>6</ele>
        <time>2025-06-29T11:26:57Z</time>
      </trkpt>
      <trkpt lat="46.19238" lon="-1.37401">
        <ele>6.2</ele>
        <time>2025-06-29T11:27:05Z</time>
      </trkpt>
      <trkpt lat="46.19227" lon="-1.37406">
        <ele>6.4</ele>
        <time>2025-06-29T11:27:13Z</time>
      </trkpt>
      <trkpt lat="46.19217" lon="-1.37412">
        <ele>6</ele>
        <time>2025-06-29T11:27:21Z</time>
      </trkpt>
      <trkpt lat="46.19203" lon="-1.3742">
        <ele>6.4</ele>
        <time>2025-06-29T11:27:31Z</time>
      </trkpt>
      <trkpt lat="46.19192" lon="-1.37429">
        <ele>6.4</ele>
        <time>2025-06-29T11:27:40Z</time>
      </trkpt>
      <trkpt lat="46.19178" lon="-1.37439">
        <ele>6.6</ele>
        <time>2025-06-29T11:27:51Z</time>
      </trkpt>
      <trkpt lat="46.19166" lon="-1.3745">
        <ele>6.6</ele>
        <time>2025-06-29T11:28:01Z</time>
      </trkpt>
      <trkpt lat="46.19156" lon="-1.3746">
        <ele>6.6</ele>
        <time>2025-06-29T11:28:10Z</time>
      </trkpt>
      <trkpt lat="46.19145" lon="-1.37471">
        <ele>6.6</ele>
        <time>2025-06-29T11:28:19Z</time>
      </trkpt>
      <trkpt lat="46.19137" lon="-1.37479">
        <ele>6.6</ele>
        <time>2025-06-29T11:28:26Z</time>
      </trkpt>
      <trkpt lat="46.19124" lon="-1.37491">
        <ele>6.4</ele>
        <time>2025-06-29T11:28:37Z</time>
      </trkpt>
      <trkpt lat="46.19111" lon="-1.37505">
        <ele>6.4</ele>
        <time>2025-06-29T11:28:48Z</time>
      </trkpt>
      <trkpt lat="46.191" lon="-1.37516">
        <ele>6.6</ele>
        <time>2025-06-29T11:28:57Z</time>
      </trkpt>
      <trkpt lat="46.19089" lon="-1.37526">
        <ele>6.6</ele>
        <time>2025-06-29T11:29:06Z</time>
      </trkpt>
      <trkpt lat="46.19082" lon="-1.37534">
        <ele>6.6</ele>
        <time>2025-06-29T11:29:12Z</time>
      </trkpt>
      <trkpt lat="46.19079" lon="-1.37536">
        <ele>6.6</ele>
        <time>2025-06-29T11:29:14Z</time>
      </trkpt>
      <trkpt lat="46.19078" lon="-1.37537">
        <ele>6.6</ele>
        <time>2025-06-29T11:29:15Z</time>
      </trkpt>
      <trkpt lat="46.19065" lon="-1.3755">
        <ele>6.4</ele>
        <time>2025-06-29T11:29:26Z</time>
      </trkpt>
      <trkpt lat="46.19055" lon="-1.37559">
        <ele>6.4</ele>
        <time>2025-06-29T11:29:35Z</time>
      </trkpt>
      <trkpt lat="46.19048" lon="-1.37566">
        <ele>6.2</ele>
        <time>2025-06-29T11:29:41Z</time>
      </trkpt>
      <trkpt lat="46.19044" lon="-1.37571">
        <ele>6.2</ele>
        <time>2025-06-29T11:29:44Z</time>
      </trkpt>
      <trkpt lat="46.19036" lon="-1.37576">
        <ele>6</ele>
        <time>2025-06-29T11:29:50Z</time>
      </trkpt>
      <trkpt lat="46.19034" lon="-1.37577">
        <ele>5.8</ele>
        <time>2025-06-29T11:29:52Z</time>
      </trkpt>
      <trkpt lat="46.19029" lon="-1.37582">
        <ele>5.8</ele>
        <time>2025-06-29T11:29:56Z</time>
      </trkpt>
      <trkpt lat="46.19025" lon="-1.37583">
        <ele>5.6</ele>
        <time>2025-06-29T11:29:59Z</time>
      </trkpt>
      <trkpt lat="46.19015" lon="-1.37591">
        <ele>5.6</ele>
        <time>2025-06-29T11:30:07Z</time>
      </trkpt>
      <trkpt lat="46.19005" lon="-1.37599">
        <ele>5.4</ele>
        <time>2025-06-29T11:30:15Z</time>
      </trkpt>
      <trkpt lat="46.18994" lon="-1.37607">
        <ele>5.4</ele>
        <time>2025-06-29T11:30:23Z</time>
      </trkpt>
      <trkpt lat="46.18986" lon="-1.37616">
        <ele>5.2</ele>
        <time>2025-06-29T11:30:30Z</time>
      </trkpt>
      <trkpt lat="46.18972" lon="-1.37627">
        <ele>5</ele>
        <time>2025-06-29T11:30:41Z</time>
      </trkpt>
      <trkpt lat="46.18959" lon="-1.37638">
        <ele>5</ele>
        <time>2025-06-29T11:30:51Z</time>
      </trkpt>
      <trkpt lat="46.1895" lon="-1.37646">
        <ele>5.2</ele>
        <time>2025-06-29T11:30:58Z</time>
      </trkpt>
      <trkpt lat="46.1894" lon="-1.37654">
        <ele>5.2</ele>
        <time>2025-06-29T11:31:07Z</time>
      </trkpt>
      <trkpt lat="46.18931" lon="-1.37664">
        <ele>5</ele>
        <time>2025-06-29T11:31:16Z</time>
      </trkpt>
      <trkpt lat="46.18927" lon="-1.37668">
        <ele>4.8</ele>
        <time>2025-06-29T11:31:19Z</time>
      </trkpt>
      <trkpt lat="46.18921" lon="-1.37677">
        <ele>4.8</ele>
        <time>2025-06-29T11:31:26Z</time>
      </trkpt>
      <trkpt lat="46.18913" lon="-1.37687">
        <ele>4.8</ele>
        <time>2025-06-29T11:31:34Z</time>
      </trkpt>
      <trkpt lat="46.18905" lon="-1.37701">
        <ele>4.6</ele>
        <time>2025-06-29T11:31:44Z</time>
      </trkpt>
      <trkpt lat="46.18894" lon="-1.37711">
        <ele>4.6</ele>
        <time>2025-06-29T11:31:52Z</time>
      </trkpt>
      <trkpt lat="46.18893" lon="-1.37712">
        <ele>4.6</ele>
        <time>2025-06-29T11:31:53Z</time>
      </trkpt>
      <trkpt lat="46.1889" lon="-1.37716">
        <ele>4.4</ele>
        <time>2025-06-29T11:31:56Z</time>
      </trkpt>
      <trkpt lat="46.18889" lon="-1.37718">
        <ele>4.4</ele>
        <time>2025-06-29T11:31:57Z</time>
      </trkpt>
      <trkpt lat="46.18882" lon="-1.37729">
        <ele>4.2</ele>
        <time>2025-06-29T11:32:04Z</time>
      </trkpt>
      <trkpt lat="46.18874" lon="-1.3774">
        <ele>4.2</ele>
        <time>2025-06-29T11:32:11Z</time>
      </trkpt>
      <trkpt lat="46.18872" lon="-1.37743">
        <ele>4.2</ele>
        <time>2025-06-29T11:32:13Z</time>
      </trkpt>
      <trkpt lat="46.18867" lon="-1.37749">
        <ele>4.2</ele>
        <time>2025-06-29T11:32:17Z</time>
      </trkpt>
      <trkpt lat="46.18866" lon="-1.37751">
        <ele>4.2</ele>
        <time>2025-06-29T11:32:18Z</time>
      </trkpt>
      <trkpt lat="46.18865" lon="-1.37752">
        <ele>4.2</ele>
        <time>2025-06-29T11:32:19Z</time>
      </trkpt>
      <trkpt lat="46.18858" lon="-1.37761">
        <ele>4</ele>
        <time>2025-06-29T11:32:26Z</time>
      </trkpt>
      <trkpt lat="46.18852" lon="-1.37759">
        <ele>4.2</ele>
        <time>2025-06-29T11:32:31Z</time>
      </trkpt>
      <trkpt lat="46.18854" lon="-1.37747">
        <ele>4.4</ele>
        <time>2025-06-29T11:32:37Z</time>
      </trkpt>
      <trkpt lat="46.18855" lon="-1.37745">
        <ele>4.2</ele>
        <time>2025-06-29T11:32:39Z</time>
      </trkpt>
      <trkpt lat="46.18854" lon="-1.37748">
        <ele>4.2</ele>
        <time>2025-06-29T11:32:41Z</time>
      </trkpt>
      <trkpt lat="46.18854" lon="-1.37754">
        <ele>3.8</ele>
        <time>2025-06-29T11:32:44Z</time>
      </trkpt>
      <trkpt lat="46.1885" lon="-1.37758">
        <ele>3.8</ele>
        <time>2025-06-29T11:32:47Z</time>
      </trkpt>
      <trkpt lat="46.18846" lon="-1.37758">
        <ele>3.8</ele>
        <time>2025-06-29T11:32:50Z</time>
      </trkpt>
      <trkpt lat="46.18845" lon="-1.37755">
        <ele>3.8</ele>
        <time>2025-06-29T11:32:52Z</time>
      </trkpt>
      <trkpt lat="46.18839" lon="-1.37737">
        <ele>3.6</ele>
        <time>2025-06-29T11:33:01Z</time>
      </trkpt>
      <trkpt lat="46.18836" lon="-1.37722">
        <ele>3.8</ele>
        <time>2025-06-29T11:33:08Z</time>
      </trkpt>
      <trkpt lat="46.1883" lon="-1.37708">
        <ele>3.6</ele>
        <time>2025-06-29T11:33:15Z</time>
      </trkpt>
      <trkpt lat="46.1883" lon="-1.37706">
        <ele>3.6</ele>
        <time>2025-06-29T11:33:16Z</time>
      </trkpt>
      <trkpt lat="46.18828" lon="-1.37699">
        <ele>3.6</ele>
        <time>2025-06-29T11:33:20Z</time>
      </trkpt>
      <trkpt lat="46.18823" lon="-1.37688">
        <ele>3.6</ele>
        <time>2025-06-29T11:33:26Z</time>
      </trkpt>
      <trkpt lat="46.18822" lon="-1.37687">
        <ele>3.6</ele>
        <time>2025-06-29T11:33:27Z</time>
      </trkpt>
      <trkpt lat="46.1881" lon="-1.37678">
        <ele>3.8</ele>
        <time>2025-06-29T11:33:37Z</time>
      </trkpt>
      <trkpt lat="46.188" lon="-1.37672">
        <ele>3.8</ele>
        <time>2025-06-29T11:33:44Z</time>
      </trkpt>
      <trkpt lat="46.18798" lon="-1.37671">
        <ele>3.8</ele>
        <time>2025-06-29T11:33:45Z</time>
      </trkpt>
      <trkpt lat="46.18795" lon="-1.37671">
        <ele>3.8</ele>
        <time>2025-06-29T11:33:48Z</time>
      </trkpt>
      <trkpt lat="46.18791" lon="-1.37674">
        <ele>4</ele>
        <time>2025-06-29T11:33:51Z</time>
      </trkpt>
      <trkpt lat="46.18787" lon="-1.37688">
        <ele>4</ele>
        <time>2025-06-29T11:33:58Z</time>
      </trkpt>
      <trkpt lat="46.18784" lon="-1.37707">
        <ele>4</ele>
        <time>2025-06-29T11:34:08Z</time>
      </trkpt>
      <trkpt lat="46.18783" lon="-1.3772">
        <ele>4</ele>
        <time>2025-06-29T11:34:14Z</time>
      </trkpt>
      <trkpt lat="46.18779" lon="-1.37731">
        <ele>3.8</ele>
        <time>2025-06-29T11:34:20Z</time>
      </trkpt>
      <trkpt lat="46.18772" lon="-1.37733">
        <ele>3.8</ele>
        <time>2025-06-29T11:34:26Z</time>
      </trkpt>
      <trkpt lat="46.18771" lon="-1.37733">
        <ele>3.8</ele>
        <time>2025-06-29T11:34:27Z</time>
      </trkpt>
      <trkpt lat="46.18756" lon="-1.37731">
        <ele>3.8</ele>
        <time>2025-06-29T11:34:38Z</time>
      </trkpt>
      <trkpt lat="46.18747" lon="-1.37728">
        <ele>4</ele>
        <time>2025-06-29T11:34:44Z</time>
      </trkpt>
      <trkpt lat="46.18736" lon="-1.37725">
        <ele>4</ele>
        <time>2025-06-29T11:34:52Z</time>
      </trkpt>
      <trkpt lat="46.18727" lon="-1.37721">
        <ele>4.2</ele>
        <time>2025-06-29T11:34:59Z</time>
      </trkpt>
      <trkpt lat="46.18717" lon="-1.37719">
        <ele>4.2</ele>
        <time>2025-06-29T11:35:06Z</time>
      </trkpt>
      <trkpt lat="46.18708" lon="-1.37717">
        <ele>4.2</ele>
        <time>2025-06-29T11:35:13Z</time>
      </trkpt>
      <trkpt lat="46.187" lon="-1.37714">
        <ele>4.4</ele>
        <time>2025-06-29T11:35:19Z</time>
      </trkpt>
      <trkpt lat="46.18699" lon="-1.37713">
        <ele>4.4</ele>
        <time>2025-06-29T11:35:20Z</time>
      </trkpt>
      <trkpt lat="46.18695" lon="-1.3771">
        <ele>4.4</ele>
        <time>2025-06-29T11:35:23Z</time>
      </trkpt>
      <trkpt lat="46.18694" lon="-1.37707">
        <ele>4.4</ele>
        <time>2025-06-29T11:35:24Z</time>
      </trkpt>
      <trkpt lat="46.18692" lon="-1.37698">
        <ele>4.6</ele>
        <time>2025-06-29T11:35:28Z</time>
      </trkpt>
      <trkpt lat="46.18686" lon="-1.3769">
        <ele>4.6</ele>
        <time>2025-06-29T11:35:34Z</time>
      </trkpt>
      <trkpt lat="46.18686" lon="-1.37684">
        <ele>4.6</ele>
        <time>2025-06-29T11:35:37Z</time>
      </trkpt>
      <trkpt lat="46.18684" lon="-1.37681">
        <ele>4.6</ele>
        <time>2025-06-29T11:35:39Z</time>
      </trkpt>
      <trkpt lat="46.18682" lon="-1.3768">
        <ele>4.8</ele>
        <time>2025-06-29T11:35:41Z</time>
      </trkpt>
      <trkpt lat="46.18678" lon="-1.37675">
        <ele>5</ele>
        <time>2025-06-29T11:35:45Z</time>
      </trkpt>
      <trkpt lat="46.18672" lon="-1.3767">
        <ele>5</ele>
        <time>2025-06-29T11:35:51Z</time>
      </trkpt>
      <trkpt lat="46.18671" lon="-1.37669">
        <ele>5.2</ele>
        <time>2025-06-29T11:35:52Z</time>
      </trkpt>
      <trkpt lat="46.18664" lon="-1.37664">
        <ele>5.4</ele>
        <time>2025-06-29T11:35:58Z</time>
      </trkpt>
      <trkpt lat="46.18662" lon="-1.37664">
        <ele>5.6</ele>
        <time>2025-06-29T11:36:00Z</time>
      </trkpt>
      <trkpt lat="46.18659" lon="-1.37661">
        <ele>5.6</ele>
        <time>2025-06-29T11:36:03Z</time>
      </trkpt>
      <trkpt lat="46.18656" lon="-1.3766">
        <ele>5.6</ele>
        <time>2025-06-29T11:36:05Z</time>
      </trkpt>
      <trkpt lat="46.18651" lon="-1.37658">
        <ele>5.8</ele>
        <time>2025-06-29T11:36:09Z</time>
      </trkpt>
      <trkpt lat="46.18649" lon="-1.37657">
        <ele>5.8</ele>
        <time>2025-06-29T11:36:11Z</time>
      </trkpt>
      <trkpt lat="46.18647" lon="-1.37658">
        <ele>5.8</ele>
        <time>2025-06-29T11:36:12Z</time>
      </trkpt>
      <trkpt lat="46.18642" lon="-1.37657">
        <ele>6</ele>
        <time>2025-06-29T11:36:15Z</time>
      </trkpt>
      <trkpt lat="46.18641" lon="-1.37656">
        <ele>6</ele>
        <time>2025-06-29T11:36:16Z</time>
      </trkpt>
      <trkpt lat="46.18639" lon="-1.37654">
        <ele>6.2</ele>
        <time>2025-06-29T11:36:18Z</time>
      </trkpt>
      <trkpt lat="46.18638" lon="-1.37654">
        <ele>6.2</ele>
        <time>2025-06-29T11:36:19Z</time>
      </trkpt>
      <trkpt lat="46.18631" lon="-1.37646">
        <ele>6.8</ele>
        <time>2025-06-29T11:36:23Z</time>
      </trkpt>
      <trkpt lat="46.18625" lon="-1.37642">
        <ele>7</ele>
        <time>2025-06-29T11:36:26Z</time>
      </trkpt>
      <trkpt lat="46.18624" lon="-1.37642">
        <ele>7</ele>
        <time>2025-06-29T11:36:27Z</time>
      </trkpt>
      <trkpt lat="46.1862" lon="-1.37641">
        <ele>7</ele>
        <time>2025-06-29T11:36:30Z</time>
      </trkpt>
      <trkpt lat="46.18618" lon="-1.37641">
        <ele>7</ele>
        <time>2025-06-29T11:36:31Z</time>
      </trkpt>
      <trkpt lat="46.18613" lon="-1.37639">
        <ele>7.4</ele>
        <time>2025-06-29T11:36:35Z</time>
      </trkpt>
      <trkpt lat="46.18609" lon="-1.37638">
        <ele>7.6</ele>
        <time>2025-06-29T11:36:38Z</time>
      </trkpt>
      <trkpt lat="46.18606" lon="-1.37637">
        <ele>7.6</ele>
        <time>2025-06-29T11:36:40Z</time>
      </trkpt>
      <trkpt lat="46.18604" lon="-1.37636">
        <ele>7.8</ele>
        <time>2025-06-29T11:36:41Z</time>
      </trkpt>
      <trkpt lat="46.18602" lon="-1.37635">
        <ele>7.8</ele>
        <time>2025-06-29T11:36:42Z</time>
      </trkpt>
      <trkpt lat="46.186" lon="-1.37633">
        <ele>8</ele>
        <time>2025-06-29T11:36:44Z</time>
      </trkpt>
      <trkpt lat="46.18597" lon="-1.37629">
        <ele>8</ele>
        <time>2025-06-29T11:36:47Z</time>
      </trkpt>
      <trkpt lat="46.18591" lon="-1.37617">
        <ele>8.2</ele>
        <time>2025-06-29T11:36:54Z</time>
      </trkpt>
      <trkpt lat="46.18583" lon="-1.37612">
        <ele>8.4</ele>
        <time>2025-06-29T11:37:01Z</time>
      </trkpt>
      <trkpt lat="46.18581" lon="-1.37611">
        <ele>8.6</ele>
        <time>2025-06-29T11:37:02Z</time>
      </trkpt>
      <trkpt lat="46.18569" lon="-1.37608">
        <ele>8.6</ele>
        <time>2025-06-29T11:37:11Z</time>
      </trkpt>
      <trkpt lat="46.18565" lon="-1.37607">
        <ele>8.8</ele>
        <time>2025-06-29T11:37:14Z</time>
      </trkpt>
      <trkpt lat="46.18555" lon="-1.37604">
        <ele>9</ele>
        <time>2025-06-29T11:37:21Z</time>
      </trkpt>
      <trkpt lat="46.18549" lon="-1.37601">
        <ele>9</ele>
        <time>2025-06-29T11:37:25Z</time>
      </trkpt>
      <trkpt lat="46.18548" lon="-1.37601">
        <ele>9</ele>
        <time>2025-06-29T11:37:26Z</time>
      </trkpt>
      <trkpt lat="46.18545" lon="-1.376">
        <ele>9</ele>
        <time>2025-06-29T11:37:28Z</time>
      </trkpt>
      <trkpt lat="46.18538" lon="-1.37597">
        <ele>9.2</ele>
        <time>2025-06-29T11:37:34Z</time>
      </trkpt>
      <trkpt lat="46.18535" lon="-1.37595">
        <ele>9.2</ele>
        <time>2025-06-29T11:37:36Z</time>
      </trkpt>
      <trkpt lat="46.18526" lon="-1.37588">
        <ele>9.2</ele>
        <time>2025-06-29T11:37:43Z</time>
      </trkpt>
      <trkpt lat="46.18525" lon="-1.37587">
        <ele>9.2</ele>
        <time>2025-06-29T11:37:44Z</time>
      </trkpt>
      <trkpt lat="46.18516" lon="-1.37579">
        <ele>9.2</ele>
        <time>2025-06-29T11:37:51Z</time>
      </trkpt>
      <trkpt lat="46.18515" lon="-1.37578">
        <ele>9.2</ele>
        <time>2025-06-29T11:37:52Z</time>
      </trkpt>
      <trkpt lat="46.18507" lon="-1.37575">
        <ele>9.2</ele>
        <time>2025-06-29T11:37:57Z</time>
      </trkpt>
      <trkpt lat="46.18498" lon="-1.37573">
        <ele>9</ele>
        <time>2025-06-29T11:38:04Z</time>
      </trkpt>
      <trkpt lat="46.1849" lon="-1.3756">
        <ele>9.2</ele>
        <time>2025-06-29T11:38:13Z</time>
      </trkpt>
      <trkpt lat="46.18481" lon="-1.37546">
        <ele>9.2</ele>
        <time>2025-06-29T11:38:22Z</time>
      </trkpt>
      <trkpt lat="46.18474" lon="-1.37531">
        <ele>9.2</ele>
        <time>2025-06-29T11:38:31Z</time>
      </trkpt>
      <trkpt lat="46.1847" lon="-1.37523">
        <ele>9.4</ele>
        <time>2025-06-29T11:38:36Z</time>
      </trkpt>
      <trkpt lat="46.18468" lon="-1.37522">
        <ele>9.4</ele>
        <time>2025-06-29T11:38:37Z</time>
      </trkpt>
      <trkpt lat="46.18464" lon="-1.37515">
        <ele>9.4</ele>
        <time>2025-06-29T11:38:42Z</time>
      </trkpt>
      <trkpt lat="46.18463" lon="-1.37513">
        <ele>9.6</ele>
        <time>2025-06-29T11:38:43Z</time>
      </trkpt>
      <trkpt lat="46.18455" lon="-1.37497">
        <ele>9.4</ele>
        <time>2025-06-29T11:38:53Z</time>
      </trkpt>
      <trkpt lat="46.18444" lon="-1.37488">
        <ele>9</ele>
        <time>2025-06-29T11:39:01Z</time>
      </trkpt>
      <trkpt lat="46.18433" lon="-1.37482">
        <ele>9.2</ele>
        <time>2025-06-29T11:39:10Z</time>
      </trkpt>
      <trkpt lat="46.1843" lon="-1.3748">
        <ele>9.2</ele>
        <time>2025-06-29T11:39:12Z</time>
      </trkpt>
      <trkpt lat="46.18427" lon="-1.37475">
        <ele>9</ele>
        <time>2025-06-29T11:39:16Z</time>
      </trkpt>
      <trkpt lat="46.18422" lon="-1.37465">
        <ele>9</ele>
        <time>2025-06-29T11:39:23Z</time>
      </trkpt>
      <trkpt lat="46.18421" lon="-1.37463">
        <ele>9</ele>
        <time>2025-06-29T11:39:24Z</time>
      </trkpt>
      <trkpt lat="46.18417" lon="-1.37464">
        <ele>9.2</ele>
        <time>2025-06-29T11:39:27Z</time>
      </trkpt>
      <trkpt lat="46.1841" lon="-1.3746">
        <ele>9.2</ele>
        <time>2025-06-29T11:39:33Z</time>
      </trkpt>
      <trkpt lat="46.18408" lon="-1.37459">
        <ele>9.2</ele>
        <time>2025-06-29T11:39:35Z</time>
      </trkpt>
      <trkpt lat="46.18407" lon="-1.37458">
        <ele>9.2</ele>
        <time>2025-06-29T11:39:36Z</time>
      </trkpt>
      <trkpt lat="46.18406" lon="-1.37458">
        <ele>9.2</ele>
        <time>2025-06-29T11:39:37Z</time>
      </trkpt>
      <trkpt lat="46.18404" lon="-1.37456">
        <ele>9.2</ele>
        <time>2025-06-29T11:39:39Z</time>
      </trkpt>
      <trkpt lat="46.184" lon="-1.37454">
        <ele>9.2</ele>
        <time>2025-06-29T11:39:42Z</time>
      </trkpt>
      <trkpt lat="46.18397" lon="-1.3745">
        <ele>9.2</ele>
        <time>2025-06-29T11:39:44Z</time>
      </trkpt>
      <trkpt lat="46.18396" lon="-1.37446">
        <ele>9.2</ele>
        <time>2025-06-29T11:39:46Z</time>
      </trkpt>
      <trkpt lat="46.18394" lon="-1.37443">
        <ele>9.4</ele>
        <time>2025-06-29T11:39:48Z</time>
      </trkpt>
      <trkpt lat="46.18393" lon="-1.37442">
        <ele>9.4</ele>
        <time>2025-06-29T11:39:49Z</time>
      </trkpt>
      <trkpt lat="46.18391" lon="-1.37439">
        <ele>9.4</ele>
        <time>2025-06-29T11:39:51Z</time>
      </trkpt>
      <trkpt lat="46.1839" lon="-1.37438">
        <ele>9.4</ele>
        <time>2025-06-29T11:39:52Z</time>
      </trkpt>
      <trkpt lat="46.18386" lon="-1.37436">
        <ele>9.2</ele>
        <time>2025-06-29T11:39:56Z</time>
      </trkpt>
      <trkpt lat="46.18378" lon="-1.37431">
        <ele>9.2</ele>
        <time>2025-06-29T11:40:02Z</time>
      </trkpt>
      <trkpt lat="46.18377" lon="-1.3743">
        <ele>9.2</ele>
        <time>2025-06-29T11:40:03Z</time>
      </trkpt>
      <trkpt lat="46.18367" lon="-1.37428">
        <ele>9.4</ele>
        <time>2025-06-29T11:40:10Z</time>
      </trkpt>
      <trkpt lat="46.18358" lon="-1.37425">
        <ele>9.6</ele>
        <time>2025-06-29T11:40:16Z</time>
      </trkpt>
      <trkpt lat="46.18357" lon="-1.37424">
        <ele>9.6</ele>
        <time>2025-06-29T11:40:17Z</time>
      </trkpt>
      <trkpt lat="46.18356" lon="-1.37422">
        <ele>9.6</ele>
        <time>2025-06-29T11:40:18Z</time>
      </trkpt>
      <trkpt lat="46.18354" lon="-1.37419">
        <ele>9.6</ele>
        <time>2025-06-29T11:40:20Z</time>
      </trkpt>
      <trkpt lat="46.18352" lon="-1.3742">
        <ele>9.6</ele>
        <time>2025-06-29T11:40:21Z</time>
      </trkpt>
      <trkpt lat="46.18347" lon="-1.37421">
        <ele>9.6</ele>
        <time>2025-06-29T11:40:25Z</time>
      </trkpt>
      <trkpt lat="46.18346" lon="-1.3742">
        <ele>9.6</ele>
        <time>2025-06-29T11:40:26Z</time>
      </trkpt>
      <trkpt lat="46.18336" lon="-1.37414">
        <ele>9.4</ele>
        <time>2025-06-29T11:40:33Z</time>
      </trkpt>
      <trkpt lat="46.18331" lon="-1.3741">
        <ele>9.4</ele>
        <time>2025-06-29T11:40:38Z</time>
      </trkpt>
      <trkpt lat="46.18329" lon="-1.3741">
        <ele>9.4</ele>
        <time>2025-06-29T11:40:39Z</time>
      </trkpt>
      <trkpt lat="46.18328" lon="-1.37409">
        <ele>9.4</ele>
        <time>2025-06-29T11:40:40Z</time>
      </trkpt>
      <trkpt lat="46.18325" lon="-1.37404">
        <ele>9.4</ele>
        <time>2025-06-29T11:40:43Z</time>
      </trkpt>
      <trkpt lat="46.18323" lon="-1.37403">
        <ele>9.4</ele>
        <time>2025-06-29T11:40:45Z</time>
      </trkpt>
      <trkpt lat="46.1832" lon="-1.37402">
        <ele>9.2</ele>
        <time>2025-06-29T11:40:47Z</time>
      </trkpt>
      <trkpt lat="46.18318" lon="-1.374">
        <ele>9.2</ele>
        <time>2025-06-29T11:40:49Z</time>
      </trkpt>
      <trkpt lat="46.18315" lon="-1.37399">
        <ele>9.2</ele>
        <time>2025-06-29T11:40:51Z</time>
      </trkpt>
      <trkpt lat="46.18312" lon="-1.37397">
        <ele>9.2</ele>
        <time>2025-06-29T11:40:53Z</time>
      </trkpt>
      <trkpt lat="46.18304" lon="-1.37389">
        <ele>9</ele>
        <time>2025-06-29T11:40:59Z</time>
      </trkpt>
      <trkpt lat="46.18303" lon="-1.37385">
        <ele>9.2</ele>
        <time>2025-06-29T11:41:01Z</time>
      </trkpt>
      <trkpt lat="46.183" lon="-1.3738">
        <ele>9.2</ele>
        <time>2025-06-29T11:41:05Z</time>
      </trkpt>
      <trkpt lat="46.18297" lon="-1.37374">
        <ele>9.2</ele>
        <time>2025-06-29T11:41:09Z</time>
      </trkpt>
      <trkpt lat="46.18296" lon="-1.37372">
        <ele>9.4</ele>
        <time>2025-06-29T11:41:10Z</time>
      </trkpt>
      <trkpt lat="46.1829" lon="-1.37358">
        <ele>9</ele>
        <time>2025-06-29T11:41:17Z</time>
      </trkpt>
      <trkpt lat="46.18285" lon="-1.37353">
        <ele>9.4</ele>
        <time>2025-06-29T11:41:21Z</time>
      </trkpt>
      <trkpt lat="46.18282" lon="-1.3735">
        <ele>9.4</ele>
        <time>2025-06-29T11:41:24Z</time>
      </trkpt>
      <trkpt lat="46.1828" lon="-1.37346">
        <ele>9.4</ele>
        <time>2025-06-29T11:41:27Z</time>
      </trkpt>
      <trkpt lat="46.18276" lon="-1.37343">
        <ele>9.4</ele>
        <time>2025-06-29T11:41:30Z</time>
      </trkpt>
      <trkpt lat="46.18269" lon="-1.37334">
        <ele>9.4</ele>
        <time>2025-06-29T11:41:37Z</time>
      </trkpt>
      <trkpt lat="46.18266" lon="-1.37331">
        <ele>9.4</ele>
        <time>2025-06-29T11:41:39Z</time>
      </trkpt>
      <trkpt lat="46.18262" lon="-1.3733">
        <ele>9.2</ele>
        <time>2025-06-29T11:41:42Z</time>
      </trkpt>
      <trkpt lat="46.18261" lon="-1.37329">
        <ele>9.2</ele>
        <time>2025-06-29T11:41:43Z</time>
      </trkpt>
      <trkpt lat="46.18259" lon="-1.37326">
        <ele>9.4</ele>
        <time>2025-06-29T11:41:45Z</time>
      </trkpt>
      <trkpt lat="46.18254" lon="-1.37319">
        <ele>9.4</ele>
        <time>2025-06-29T11:41:50Z</time>
      </trkpt>
      <trkpt lat="46.18253" lon="-1.37317">
        <ele>9.4</ele>
        <time>2025-06-29T11:41:52Z</time>
      </trkpt>
      <trkpt lat="46.18251" lon="-1.37306">
        <ele>9.4</ele>
        <time>2025-06-29T11:41:58Z</time>
      </trkpt>
      <trkpt lat="46.18243" lon="-1.37292">
        <ele>9.2</ele>
        <time>2025-06-29T11:42:06Z</time>
      </trkpt>
      <trkpt lat="46.18242" lon="-1.3729">
        <ele>9.2</ele>
        <time>2025-06-29T11:42:07Z</time>
      </trkpt>
      <trkpt lat="46.18237" lon="-1.37282">
        <ele>9</ele>
        <time>2025-06-29T11:42:12Z</time>
      </trkpt>
      <trkpt lat="46.18234" lon="-1.37278">
        <ele>8.8</ele>
        <time>2025-06-29T11:42:15Z</time>
      </trkpt>
      <trkpt lat="46.18233" lon="-1.37277">
        <ele>9</ele>
        <time>2025-06-29T11:42:16Z</time>
      </trkpt>
      <trkpt lat="46.18231" lon="-1.37263">
        <ele>9</ele>
        <time>2025-06-29T11:42:23Z</time>
      </trkpt>
      <trkpt lat="46.18228" lon="-1.37244">
        <ele>9.8</ele>
        <time>2025-06-29T11:42:32Z</time>
      </trkpt>
      <trkpt lat="46.18227" lon="-1.3724">
        <ele>9.4</ele>
        <time>2025-06-29T11:42:34Z</time>
      </trkpt>
      <trkpt lat="46.18226" lon="-1.37229">
        <ele>10</ele>
        <time>2025-06-29T11:42:39Z</time>
      </trkpt>
      <trkpt lat="46.18226" lon="-1.37223">
        <ele>10</ele>
        <time>2025-06-29T11:42:42Z</time>
      </trkpt>
      <trkpt lat="46.18224" lon="-1.37203">
        <ele>10.4</ele>
        <time>2025-06-29T11:42:53Z</time>
      </trkpt>
      <trkpt lat="46.18224" lon="-1.37193">
        <ele>10.2</ele>
        <time>2025-06-29T11:42:58Z</time>
      </trkpt>
      <trkpt lat="46.18224" lon="-1.37188">
        <ele>10</ele>
        <time>2025-06-29T11:43:00Z</time>
      </trkpt>
      <trkpt lat="46.18223" lon="-1.37186">
        <ele>10</ele>
        <time>2025-06-29T11:43:01Z</time>
      </trkpt>
      <trkpt lat="46.18222" lon="-1.37178">
        <ele>10.2</ele>
        <time>2025-06-29T11:43:05Z</time>
      </trkpt>
      <trkpt lat="46.18221" lon="-1.37171">
        <ele>10.8</ele>
        <time>2025-06-29T11:43:08Z</time>
      </trkpt>
      <trkpt lat="46.18221" lon="-1.37167">
        <ele>10.6</ele>
        <time>2025-06-29T11:43:11Z</time>
      </trkpt>
      <trkpt lat="46.18221" lon="-1.37165">
        <ele>10.6</ele>
        <time>2025-06-29T11:43:13Z</time>
      </trkpt>
      <trkpt lat="46.1822" lon="-1.37163">
        <ele>10.6</ele>
        <time>2025-06-29T11:43:15Z</time>
      </trkpt>
      <trkpt lat="46.18219" lon="-1.37153">
        <ele>10.6</ele>
        <time>2025-06-29T11:43:21Z</time>
      </trkpt>
      <trkpt lat="46.18218" lon="-1.37135">
        <ele>10.4</ele>
        <time>2025-06-29T11:43:29Z</time>
      </trkpt>
      <trkpt lat="46.18218" lon="-1.37131">
        <ele>10.4</ele>
        <time>2025-06-29T11:43:31Z</time>
      </trkpt>
      <trkpt lat="46.18219" lon="-1.37126">
        <ele>10.6</ele>
        <time>2025-06-29T11:43:34Z</time>
      </trkpt>
      <trkpt lat="46.18217" lon="-1.37115">
        <ele>11</ele>
        <time>2025-06-29T11:43:39Z</time>
      </trkpt>
      <trkpt lat="46.18216" lon="-1.37109">
        <ele>11.2</ele>
        <time>2025-06-29T11:43:42Z</time>
      </trkpt>
      <trkpt lat="46.18215" lon="-1.37104">
        <ele>11.2</ele>
        <time>2025-06-29T11:43:44Z</time>
      </trkpt>
      <trkpt lat="46.18214" lon="-1.37101">
        <ele>11.2</ele>
        <time>2025-06-29T11:43:45Z</time>
      </trkpt>
      <trkpt lat="46.18213" lon="-1.37096">
        <ele>11.2</ele>
        <time>2025-06-29T11:43:47Z</time>
      </trkpt>
      <trkpt lat="46.18213" lon="-1.37094">
        <ele>11.2</ele>
        <time>2025-06-29T11:43:48Z</time>
      </trkpt>
      <trkpt lat="46.18212" lon="-1.37078">
        <ele>11.4</ele>
        <time>2025-06-29T11:43:56Z</time>
      </trkpt>
      <trkpt lat="46.18212" lon="-1.3706">
        <ele>11.6</ele>
        <time>2025-06-29T11:44:04Z</time>
      </trkpt>
      <trkpt lat="46.18211" lon="-1.37058">
        <ele>11.6</ele>
        <time>2025-06-29T11:44:05Z</time>
      </trkpt>
      <trkpt lat="46.1821" lon="-1.37051">
        <ele>11.6</ele>
        <time>2025-06-29T11:44:09Z</time>
      </trkpt>
      <trkpt lat="46.1821" lon="-1.37048">
        <ele>11.8</ele>
        <time>2025-06-29T11:44:10Z</time>
      </trkpt>
      <trkpt lat="46.1821" lon="-1.37037">
        <ele>12</ele>
        <time>2025-06-29T11:44:15Z</time>
      </trkpt>
      <trkpt lat="46.1821" lon="-1.37035">
        <ele>12.2</ele>
        <time>2025-06-29T11:44:16Z</time>
      </trkpt>
      <trkpt lat="46.18211" lon="-1.37023">
        <ele>12</ele>
        <time>2025-06-29T11:44:23Z</time>
      </trkpt>
      <trkpt lat="46.18212" lon="-1.37022">
        <ele>12</ele>
        <time>2025-06-29T11:44:24Z</time>
      </trkpt>
      <trkpt lat="46.18217" lon="-1.37016">
        <ele>12.2</ele>
        <time>2025-06-29T11:44:29Z</time>
      </trkpt>
      <trkpt lat="46.18222" lon="-1.37008">
        <ele>12.4</ele>
        <time>2025-06-29T11:44:34Z</time>
      </trkpt>
      <trkpt lat="46.18222" lon="-1.37006">
        <ele>12.4</ele>
        <time>2025-06-29T11:44:35Z</time>
      </trkpt>
      <trkpt lat="46.18225" lon="-1.36996">
        <ele>12.8</ele>
        <time>2025-06-29T11:44:40Z</time>
      </trkpt>
      <trkpt lat="46.18225" lon="-1.36994">
        <ele>12.8</ele>
        <time>2025-06-29T11:44:41Z</time>
      </trkpt>
      <trkpt lat="46.18224" lon="-1.36988">
        <ele>12.6</ele>
        <time>2025-06-29T11:44:45Z</time>
      </trkpt>
      <trkpt lat="46.18227" lon="-1.36988">
        <ele>12.4</ele>
        <time>2025-06-29T11:44:47Z</time>
      </trkpt>
      <trkpt lat="46.18236" lon="-1.36989">
        <ele>12.4</ele>
        <time>2025-06-29T11:44:53Z</time>
      </trkpt>
      <trkpt lat="46.18244" lon="-1.36989">
        <ele>12.8</ele>
        <time>2025-06-29T11:44:59Z</time>
      </trkpt>
      <trkpt lat="46.18247" lon="-1.3699">
        <ele>12.8</ele>
        <time>2025-06-29T11:45:01Z</time>
      </trkpt>
      <trkpt lat="46.18256" lon="-1.3699">
        <ele>13.2</ele>
        <time>2025-06-29T11:45:08Z</time>
      </trkpt>
      <trkpt lat="46.1826" lon="-1.36988">
        <ele>13.4</ele>
        <time>2025-06-29T11:45:11Z</time>
      </trkpt>
      <trkpt lat="46.18261" lon="-1.36985">
        <ele>13.4</ele>
        <time>2025-06-29T11:45:13Z</time>
      </trkpt>
      <trkpt lat="46.18263" lon="-1.36979">
        <ele>13.4</ele>
        <time>2025-06-29T11:45:16Z</time>
      </trkpt>
      <trkpt lat="46.18266" lon="-1.36963">
        <ele>13.8</ele>
        <time>2025-06-29T11:45:25Z</time>
      </trkpt>
      <trkpt lat="46.18267" lon="-1.36946">
        <ele>14</ele>
        <time>2025-06-29T11:45:33Z</time>
      </trkpt>
      <trkpt lat="46.18266" lon="-1.36944">
        <ele>14</ele>
        <time>2025-06-29T11:45:34Z</time>
      </trkpt>
      <trkpt lat="46.18268" lon="-1.36942">
        <ele>14.2</ele>
        <time>2025-06-29T11:45:36Z</time>
      </trkpt>
      <trkpt lat="46.18271" lon="-1.36932">
        <ele>14</ele>
        <time>2025-06-29T11:45:40Z</time>
      </trkpt>
      <trkpt lat="46.18271" lon="-1.36931">
        <ele>14</ele>
        <time>2025-06-29T11:45:41Z</time>
      </trkpt>
      <trkpt lat="46.18276" lon="-1.36919">
        <ele>13.8</ele>
        <time>2025-06-29T11:45:48Z</time>
      </trkpt>
      <trkpt lat="46.18276" lon="-1.36918">
        <ele>13.8</ele>
        <time>2025-06-29T11:45:49Z</time>
      </trkpt>
      <trkpt lat="46.18278" lon="-1.36917">
        <ele>13.8</ele>
        <time>2025-06-29T11:45:50Z</time>
      </trkpt>
      <trkpt lat="46.18278" lon="-1.36916">
        <ele>13.6</ele>
        <time>2025-06-29T11:45:51Z</time>
      </trkpt>
      <trkpt lat="46.1828" lon="-1.36911">
        <ele>13.6</ele>
        <time>2025-06-29T11:45:54Z</time>
      </trkpt>
      <trkpt lat="46.18281" lon="-1.36908">
        <ele>13.6</ele>
        <time>2025-06-29T11:45:56Z</time>
      </trkpt>
      <trkpt lat="46.18282" lon="-1.36902">
        <ele>13.6</ele>
        <time>2025-06-29T11:46:01Z</time>
      </trkpt>
      <trkpt lat="46.18281" lon="-1.36899">
        <ele>13.6</ele>
        <time>2025-06-29T11:46:03Z</time>
      </trkpt>
      <trkpt lat="46.18281" lon="-1.36896">
        <ele>13.6</ele>
        <time>2025-06-29T11:46:06Z</time>
      </trkpt>
    </trkseg>
  </trk>
</gpx>